[[{"header":{"parameterUnit":"m.s-1","parameterCategory":1,"la1":31.0,"la2":29.5877,"lo1":-88.7671,"lo2":-86.6584,"dy":0.0162,"dx":0.0185,"nx":115,"ny":88,"refTime":"2024-02-17T06:00:00:Z","depth":0,"parameterNumber":2,"parameterNumberName":"U-component_of_WINDS"},"data":[0.0,0.0,0.0,0.0,0.0,0.0,0.0,0.0,0.0,0.0,0.0,0.0,0.0,0.0,0.0,0.0,0.0,0.0,0.0,0.0,0.0,0.0,0.0,0.0,0.0,0.0,0.0,0.0,0.0,0.0,0.0,0.0,0.0,0.0,0.0,0.0,0.0,0.0,0.0,0.0,0.0,0.0,0.0,0.0,0.0,0.0,0.0,0.0,0.0,0.0,0.0,0.0,0.0,0.0,0.0,0.0,0.0,0.0,0.0,0.0,0.0,0.0,0.0,0.0,0.0,0.0,0.0,0.0,0.0,0.0,0.0,0.0,0.0,0.0,0.0,0.0,0.0,0.0,0.0,0.0,0.0,0.0,0.0,0.0,0.0,0.0,0.0,0.0,0.0,0.0,0.0,0.0,0.0,0.0,0.0,0.0,0.0,0.0,0.0,0.0,0.0,0.0,0.0,0.0,0.0,0.0,0.0,0.0,0.0,0.0,0.0,0.0,0.0,0.0,0.0,0.0,0.0,0.0,0.0,0.0,0.0,0.0,0.0,0.0,0.0,0.0,0.0,0.0,0.0,0.0,0.0,0.0,0.0,0.0,0.0,0.0,0.0,0.0,0.0,0.0,0.0,0.0,0.0,0.0,0.0,0.0,0.0,0.0,0.0,0.0,0.0,0.0,0.0,0.0,0.0,0.0,0.0,0.0,0.0,0.0,0.0,0.0,0.0,0.0,0.0,0.0,0.0,0.0,0.0,0.0,0.0,0.0,0.0,0.0,0.0,0.0,0.0,0.0,0.0,0.0,0.0,0.0,0.0,0.0,0.0,0.0,0.0,0.0,0.0,0.0,0.0,0.0,0.0,0.0,0.0,0.0,0.0,0.0,0.0,0.0,0.0,0.0,0.0,0.0,0.0,0.0,0.0,0.0,0.0,0.0,0.0,0.0,0.0,0.0,0.0,0.0,0.0,0.0,0.0,0.0,0.0,0.0,0.0,0.0,0.0,0.0,0.0,0.0,0.0,0.0,0.0,0.0,0.0,0.0,0.0,0.0,0.0,0.0,0.0,0.0,0.0,0.0,0.0,0.0,0.0,0.0,0.0,0.0,0.0,0.0,0.0,0.0,0.0,0.0,0.0,0.0,0.0,0.0,0.0,0.0,0.0,0.0,0.0,0.0,0.0,0.0,0.0,0.0,0.0,0.0,0.0,0.0,0.0,0.0,0.0,0.0,0.0,0.0,0.0,0.0,0.0,0.0,0.0,0.0,0.0,0.0,0.0,0.0,0.0,0.0,0.0,0.0,0.0,0.0,0.0,0.0,0.0,0.0,0.0,0.0,0.0,0.0,0.0,0.0,0.0,0.0,0.0,0.0,0.0,0.0,0.0,0.0,0.0,0.0,0.0,0.0,0.0,0.0,0.0,0.0,0.0,0.0,0.0,0.0,0.0,0.0,0.0,0.0,0.0,0.0,0.0,0.0,0.0,0.0,0.0,0.0,0.0,0.0,0.0,0.0,0.0,0.0,0.0,0.0,0.0,0.0,0.0,0.0,0.0,0.0,0.0,0.0,0.0,0.0,0.0,0.0,0.0,0.0,0.0,0.0,0.0,0.0,0.0,0.0,0.0,0.0,0.0,0.0,0.0,0.0,0.0,0.0,0.0,0.0,0.0,0.0,0.0,0.0,0.0,0.0,0.0,0.0,0.0,0.0,0.0,0.0,0.0,0.0,0.0,0.0,0.0,0.0,0.0,0.0,0.0,0.0,0.0,0.0,0.0,0.0,0.0,0.0,0.0,0.0,0.0,0.0,0.0,0.0,0.0,0.0,0.0,0.0,0.0,0.0,0.0,0.0,0.0,0.0,0.0,0.0,0.0,0.0,0.0,0.0,0.0,0.0,0.0,0.0,0.0,0.0,0.0,0.0,0.0,0.0,0.0,0.0,0.0,0.0,0.0,0.0,0.0,0.0,0.0,0.0,0.0,0.0,0.0,0.0,0.0,0.0,0.0,0.0,0.0,0.0,0.0,0.0,0.0,0.0,0.0,0.0,0.0,0.0,0.0,0.0,0.0,0.0,0.0,0.0,0.0,0.0,0.0,0.0,0.0,0.0,0.0,0.0,0.0,0.0,0.0,0.0,0.0,0.0,0.0,0.0,0.0,0.0,0.0,0.0,0.0,0.0,0.0,0.0,0.0,0.0,0.0,0.0,0.0,0.0,0.0,0.0,0.0,0.0,0.0,0.0,0.0,0.0,0.0,0.0,0.0,0.0,0.0,0.0,0.0,0.0,0.0,0.0,0.0,0.0,0.0,0.0,0.0,0.0,0.0,0.0,0.0,0.0,0.0,0.0,0.0,0.0,0.0,0.0,0.0,0.0,0.0,0.0,0.0,0.0,0.0,0.0,0.0,0.0,0.0,0.0,0.0,0.0,0.0,0.0,0.0,0.0,0.0,0.0,0.0,0.0,0.0,0.0,0.0,0.0,0.0,0.0,0.0,0.0,0.0,0.0,0.0,0.0,0.0,0.0,0.0,0.0,0.0,0.0,0.0,0.0,0.0,0.0,0.0,0.0,0.0,0.0,0.0,0.0,0.0,0.0,0.0,0.0,0.0,0.0,0.0,0.0,0.0,0.0,0.0,0.0,0.0,0.0,0.0,0.0,0.0,0.0,0.0,0.0,0.0,0.0,0.0,0.0,0.0,0.0,0.0,0.0,0.0,0.0,0.0,0.0,0.0,0.0,0.0,0.0,0.0,0.0,0.0,0.0,0.0,0.0,0.0,0.0,0.0,0.0,0.0,0.0,0.0,0.0,0.0,0.0,0.0,0.0,0.0,0.0,0.0,0.0,0.0,0.0,0.0,0.0,0.0,0.0,0.0,0.0,0.0,0.0,0.0,0.0,0.0,0.0,0.0,0.0,0.0,0.0,0.0,0.0,0.0,0.0,0.0,0.0,0.0,0.0,0.0,0.0,0.0,0.0,0.0,0.0,0.0,0.0,0.0,0.0,0.0,0.0,0.0,0.0,0.0,0.0,0.0,0.0,0.0,0.0,0.0,0.0,0.0,0.0,0.0,0.0,0.0,0.0,0.0,0.0,0.0,0.0,0.0,0.0,0.0,0.0,0.0,0.0,0.0,0.0,0.0,0.0,0.0,0.0,0.0,0.0,0.0,0.0,0.0,0.0,0.0,0.0,0.0,0.0,0.0,0.0,0.0,0.0,0.0,0.0,0.0,0.0,0.0,0.0,0.0,0.0,0.0,0.0,0.0,0.0,0.0,0.0,0.0,0.0,0.0,0.0,0.0,0.0,0.0,0.0,0.0,0.0,0.0,0.0,0.0,0.0,0.0,0.0,0.0,0.0,0.0,0.0,0.0,0.0,0.0,0.0,0.0,0.0,0.0,0.0,0.0,0.0,0.0,0.0,0.0,0.0,0.0,0.0,0.0,0.0,0.0,0.0,0.0,0.0,0.0,0.0,0.0,0.0,0.0,0.0,0.0,0.0,0.0,0.0,0.0,0.0,0.0,0.0,0.0,0.0,0.0,0.0,0.0,0.0,0.0,0.0,0.0,0.0,0.0,0.0,0.0,0.0,0.0,0.0,0.0,0.0,0.0,0.0,0.0,0.0,0.0,0.0,0.0,0.0,0.0,0.0,0.0,0.0,0.0,0.0,0.0,0.0,0.0,0.0,0.0,0.0,0.0,0.0,0.0,0.0,0.0,0.0,0.0,0.0,0.0,0.0,0.0,0.0,0.0,0.0,0.0,0.0,0.0,0.0,0.0,0.0,0.0,0.0,0.0,0.0,0.0,0.0,0.0,0.0,0.0,0.0,0.0,0.0,0.0,0.0,0.0,0.0,0.0,0.0,0.0,0.0,0.0,0.0,0.0,0.0,0.0,0.0,0.0,0.0,0.0,0.0,0.0,0.0,0.0,0.0,0.0,0.0,0.0,0.0,0.0,0.0,0.0,0.0,0.0,0.0,0.0,0.0,0.0,0.0,0.0,0.0,0.0,0.0,0.0,0.0,0.0,0.0,0.0,0.0,0.0,0.0,0.0,0.0,0.0,0.0,0.0,0.0,0.0,0.0,0.0,0.0,0.0,0.0,0.0,0.0,0.0,0.0,0.0,0.0,0.0,0.0,0.0,0.0,0.0,0.0,0.0,0.0,0.0,0.0,0.0,0.0,0.0,0.0,0.0,0.0,0.0,0.0,0.0,0.0,0.0,0.0,0.0,0.0,0.0,0.0,0.0,0.0,0.0,0.0,0.0,0.0,0.0,0.0,0.0,0.0,0.2838,0.0,0.0,0.0,0.0,0.0,0.0,0.0,0.0,0.0,0.0,0.0,0.0,0.0,0.0,0.0,0.0,0.0,0.0,0.0,0.0,0.0,0.0,0.0,0.0,0.0,0.0,0.0,0.0,0.0,0.0,0.0,0.0,0.0,0.0,0.0,0.0,0.0,0.0,0.0,0.0,0.0,0.0,0.0,0.0,0.0,0.0,0.0,0.0,0.0,0.0,0.0,0.0,0.0,0.0,0.0,0.0,0.0,0.0,0.0,0.0,0.0,0.0,0.0,0.0,0.0,0.0,0.0,0.0,0.0,0.0,0.0,0.0,0.0,0.0,0.0,0.0,0.0,0.0,0.0,0.0,0.0,0.0,0.0,0.0,0.0,0.0,0.0,0.0,0.0,0.0,0.0,0.0,0.0,0.0,0.0,0.0,0.0,0.0,0.0,0.0,0.0,0.0,0.0,0.0,0.0,0.0,0.0,0.0,0.0,0.0,0.2679,0.2907,0.297,0.3134,0.3344,0.0,0.0,0.0,0.0,0.0,0.0,0.0,0.0,0.0,0.0,0.0,0.0,0.0,0.0,0.0,0.0,0.0,0.0,0.0,0.0,0.0,0.0,0.0,0.0,0.0,0.0,0.0,0.0,0.0,0.0,0.0,0.0,0.0,0.0,0.0,0.0,0.0,0.0,0.0,0.0,0.0,0.0,0.0,0.0,0.0,0.0,0.0,0.0,0.0,0.0,0.0,0.0,0.0,0.0,0.0,0.0,0.0,0.0,0.0,0.0,0.0,0.0,0.0,0.0,0.0,0.0,0.0,0.0,0.0,0.0,0.0,0.0,0.0,0.0,0.0,0.0,0.0,0.0,0.0,0.0,0.0,0.0,0.0,0.0,0.0,0.0,0.0,0.0,0.0,0.0,0.0,0.0,0.0,0.0,0.0,0.0,0.0,0.0,0.0,0.0,0.0,0.0,0.0,0.0,0.0,0.0,0.0,0.0,0.0,0.0,0.0,0.0,0.3457,0.3684,0.402,0.0,0.0,0.0,0.0,0.0,0.0,0.0,0.0,0.0,0.0,0.0,0.0,0.0,0.0,0.0,0.0,0.0,0.0,0.0,0.0,0.0,0.0,0.0,0.0,0.0,0.0,0.0,0.0,0.0,0.0,0.0,0.0,0.0,0.0,0.0,0.0,0.0,0.0,0.0,0.0,0.0,0.0,0.0,0.0,0.0,0.0,0.0,0.0,0.0,0.0,0.0,0.0,0.0,0.0,0.0,0.0,0.0,0.0,0.0,0.0,0.0,0.0,0.0,0.0,0.0,0.0,0.0,0.0,0.0,0.0,0.0,0.0,0.0,0.0,0.0,0.0,0.0,0.0,0.0,0.0,0.0,0.0,0.0,0.0,0.0,0.0,0.0,0.0,0.0,0.0,0.0,0.0,0.0,0.0,0.0,0.0,0.0,0.0,0.0,0.0,0.0,0.0,0.0,0.0,0.0,0.0,0.0,0.0,0.0,0.0,0.3651,0.3897,0.4107,0.0,0.4963,0.0,0.0,0.0,0.0,0.0,0.0,0.0,0.0,0.0,0.0,0.0,0.0,0.0,0.0,0.0,0.0,0.0,0.0,0.0,0.0,0.0,0.0,0.0,0.0,0.0,0.0,0.0,0.0,0.0,0.0,0.0,0.0,0.0,0.0,0.0,0.0,0.0,0.0,0.0,0.0,0.0,0.0,0.0,0.0,0.0,0.0,0.0,0.0,0.0,0.0,0.0,0.0,0.0,0.0,0.0,0.0,0.0,0.0,0.0,0.0,0.0,0.0,0.0,0.0,0.0,0.0,0.0,0.0,0.0,0.0,0.0,0.0,0.0,0.0,0.0,0.0,0.0,0.0,0.0,0.0,0.0,0.0,0.0,0.0,0.0,0.0,0.0,0.0,0.0,0.0,0.0,0.0,0.0,0.0,0.0,0.0,0.0,0.0,0.0,0.0,0.0,0.0,0.0,0.0,0.0,0.0,0.0,0.0,0.0,0.0,0.3928,0.4166,0.4498,0.4931,0.0,0.0,0.0,0.0,0.0,0.0,0.0,0.0,0.0,0.0,0.0,0.0,0.0,0.0,0.0,0.0,0.0,0.0,0.0,0.0,0.0,0.0,0.0,0.0,0.0,0.0,0.0,0.0,0.0,0.0,0.0,0.0,0.0,0.0,0.0,0.0,0.0,0.0,0.0,0.0,0.0,0.0,0.0,0.0,0.0,0.0,0.0,0.0,0.0,0.0,0.0,0.0,0.0,0.0,0.0,0.0,0.0,0.0,0.0,0.0,0.0,0.0,0.0,0.0,0.0,0.0,0.0,0.0,0.0,0.0,0.0,0.0,0.0,0.0,0.0,0.0,0.0,0.0,0.0,0.0,0.0,0.0,0.0,0.0,0.0,0.0,0.0,0.0,0.0,0.0,0.0,0.0,0.0,0.0,0.0,0.0,0.0,0.0,0.0,0.0,0.0,0.0,0.0,0.0,0.0,0.0,0.0,0.0,0.0,0.0,0.4014,0.4288,0.4571,0.4985,0.5395,0.5766,0.0,0.0,0.0,0.0,0.0,0.0,0.0,0.0,0.0,0.0,0.0,0.0,0.0,0.0,0.0,0.0,0.0,0.0,0.0,0.0,0.0,0.0,0.0,0.0,0.0,0.0,0.0,0.0,0.0,0.0,0.0,0.0,0.0,0.0,0.0,0.0,0.0,0.0,0.0,0.0,0.0,0.0,0.0,0.0,0.0,0.0,0.0,0.0,0.0,0.0,0.0,0.0,0.0,0.0,0.0,0.0,0.0,0.0,0.0,0.0,0.0,0.0,0.0,0.0,0.0,0.0,0.0,0.0,0.0,0.0,0.0,0.0,0.0,0.0,0.0,0.0,0.0,0.0,0.0,0.0,0.0,0.0,0.0,0.0,0.0,0.0,0.0,0.0,0.0,0.0,0.0,0.0,0.0,0.0,0.0,0.0,0.0,0.0,0.0,0.0,0.0,0.0,0.0,0.0,0.0,0.0,0.0,0.0,0.4515,0.4485,0.4736,0.5231,0.572,0.5884,0.0,0.0,0.0,0.0,0.0,0.0,0.0,0.0,0.0,0.0,0.0,0.0,0.0,0.0,0.0,0.0,0.0,0.0,0.0,0.0,0.0,0.0,0.0,0.0,0.0,0.0,0.0,0.0,0.0,0.0,0.0,0.0,0.0,0.0,0.0,0.0,0.0,0.0,0.0,0.0,0.0,0.0,0.0,0.0,0.0,0.0,0.0,0.0,0.0,0.0,0.0,0.0,0.0,0.0,0.0,0.0,0.0,0.0,0.0,0.0,0.0,0.0,0.0,0.0,0.0,0.0,0.0,0.0,0.0,0.0,0.0,0.0,0.0,0.0,0.0,0.0,0.0,0.0,0.0,0.0,0.0,0.0,0.0,0.0,0.0,0.0,0.0,0.0,0.0,0.0,0.0,0.0,0.0,0.0,0.0,0.0,0.0,0.0,0.0,0.0,0.0,0.0,0.0,0.0,0.0,0.0,0.0,0.0,0.0,0.454,0.4883,0.5252,0.5609,0.5916,0.6201,0.0,0.0,0.0,0.0,0.0,0.0,0.0,0.0,0.0,0.0,0.0,0.0,0.0,0.0,0.0,0.0,0.0,0.0,0.0,0.0,0.0,0.0,0.0,0.0,0.0,0.0,0.0,0.0,0.0,0.0,0.0,0.0,0.0,0.0,0.0,0.0,0.0,0.0,0.0,0.0,0.0,0.0,0.0,0.0,0.0,0.0,0.0,0.0,0.0,0.0,0.0,0.0,0.0,0.0,0.0,0.0,0.0,0.0,0.0,0.0,0.0,0.0,0.0,0.0,0.0,0.0,0.0,0.0,0.0,0.0,0.0,0.0,0.0,0.0,0.0,0.0,0.0,0.0,0.0,0.0,0.0,0.0,0.0,0.0,0.0,0.0,0.0,0.0,0.0,0.0,0.0,0.0,0.0,0.0,0.0,0.0,0.0,0.0,0.0,0.0,0.0,0.0,0.0,0.0,0.0,0.0,0.0,0.0,0.0,0.4709,0.0,0.5657,0.5848,0.6293,0.6609,0.0,0.0,0.0,0.0,0.0,0.0,0.0,0.0,0.0,0.0,0.0,0.0,0.0,0.0,0.0,0.0,0.0,0.0,0.0,0.0,0.0,0.0,0.0,0.0,0.0,0.0,0.0,0.0,0.0,0.0,0.0,0.0,0.0,0.0,0.0,0.0,0.0,0.0,0.0,0.0,0.0,0.0,0.0,0.0,0.0,0.0,0.0,0.0,0.0,0.0,0.0,0.0,0.0,0.0,0.0,0.0,0.0,0.0,0.0,0.0,0.0,0.0,0.0,0.0,0.0,0.0,0.0,0.0,0.0,0.0,0.0,0.0,0.0,0.0,0.0,0.0,0.0,0.0,0.0,0.0,0.0,0.0,0.0,0.0,0.0,0.0,0.0,0.0,0.0,0.0,0.0,0.0,0.0,0.0,0.0,0.0,0.0,0.0,0.0,0.0,0.0,0.0,0.0,0.0,0.0,0.0,0.0,0.0,0.479,0.5108,0.5619,0.5927,0.6019,0.6803,0.7051,0.0,0.0,0.0,0.0,0.0,0.0,0.0,0.0,0.0,0.0,0.0,0.0,0.0,0.0,0.0,0.0,0.0,0.0,0.0,0.0,0.0,0.0,0.0,0.0,0.0,0.0,0.0,0.0,0.0,0.0,0.0,0.0,0.0,0.0,0.0,0.0,0.0,0.0,0.0,0.0,0.0,0.0,0.0,0.0,0.0,0.0,0.0,0.0,0.0,0.0,0.0,0.0,0.0,0.0,0.0,0.0,0.0,0.0,0.0,0.0,0.0,0.0,0.0,0.0,0.0,0.0,0.0,0.0,0.0,0.0,0.0,0.0,0.0,0.0,0.0,0.0,0.0,0.0,0.0,0.0,0.0,0.0,0.0,0.0,0.0,0.0,0.0,0.0,0.0,0.0,0.0,0.0,0.0,0.0,0.0,0.0,0.0,0.0,0.0,0.0,0.0,0.0,0.0,0.0,0.0,0.0,0.0,0.0,0.0,0.5118,0.5617,0.611,0.6598,0.6692,0.6926,0.0,0.0,0.0,0.0,0.0,0.0,0.0,0.0,0.0,0.0,0.0,0.0,0.0,0.0,0.0,0.0,0.0,0.0,0.0,0.0,0.0,0.0,0.0,0.0,0.0,0.0,0.0,0.0,0.0,0.0,0.0,0.0,0.0,0.0,0.0,0.0,0.0,0.0,0.0,0.0,0.0,0.0,0.0,0.0,0.0,0.0,0.0,0.0,0.0,0.0,0.0,0.0,0.0,0.0,0.0,0.0,0.0,0.0,0.0,0.0,0.0,0.0,0.0,0.0,0.0,0.0,0.0,0.0,0.0,0.0,0.0,0.0,0.0,0.0,0.0,0.0,0.0,0.0,0.0,0.0,0.0,0.0,0.0,0.0,0.0,0.0,0.0,0.0,0.0,0.0,0.0,0.0,0.0,0.0,0.0,0.0,0.0,0.0,0.0,0.0,0.0,0.0,0.0,0.0,0.0,0.0,0.0,0.0,0.0,0.5551,0.5914,0.6355,0.684,0.6954,0.728,0.7763,0.0,0.0,0.0,0.0,0.0,0.0,0.0,0.0,0.0,0.0,0.0,0.0,0.0,0.0,0.0,0.0,0.0,0.0,0.0,0.0,0.0,0.0,0.0,0.0,0.0,0.0,0.0,0.0,0.0,0.0,0.0,0.0,0.0,0.0,0.0,0.0,0.0,0.0,0.0,0.0,0.0,0.0,0.0,0.0,0.0,0.0,0.0,0.0,0.0,0.0,0.0,0.0,0.0,0.0,0.0,0.0,0.0,0.0,0.0,0.0,0.0,0.0,0.0,0.0,0.0,0.0,0.0,0.0,0.0,0.0,0.0,0.0,0.0,0.0,0.0,0.0,0.0,0.0,0.0,0.0,0.0,0.0,0.0,0.0,0.0,0.0,0.0,0.0,0.0,0.0,0.0,0.0,0.0,0.0,0.0,0.0,0.0,0.0,0.0,0.0,0.0,0.0,0.0,0.0,0.0,0.0,0.0,0.0,0.6405,0.6505,0.666,0.679,0.7447,0.7928,0.0,0.0,0.0,0.0,0.0,0.0,0.0,0.0,0.0,0.0,0.0,0.0,0.0,0.0,0.0,0.0,0.0,0.0,0.0,0.0,0.0,0.0,0.0,0.0,0.0,0.0,0.0,0.0,0.0,0.0,0.0,0.0,0.0,0.0,0.0,0.0,0.0,0.0,0.0,0.0,0.0,0.0,0.0,0.0,0.0,0.0,0.0,0.0,0.0,0.0,0.0,0.0,0.0,0.0,0.0,0.0,0.0,0.0,0.0,0.0,0.0,0.0,0.0,0.0,0.0,0.0,0.0,0.0,0.0,0.0,0.0,0.0,0.0,0.0,0.0,0.0,0.0,0.0,0.0,0.0,0.0,0.0,0.0,0.0,0.0,0.0,0.0,0.0,0.0,0.0,0.0,0.0,0.0,0.0,0.0,0.0,0.0,0.0,0.0,0.0,0.0,0.0,0.0,0.0,0.0,0.0,0.0,0.0,0.0,0.7313,0.7373,0.7466,0.7668,0.7531,0.7788,0.0,0.0,0.0,0.0,0.0,0.0,0.0,0.0,0.0,0.0,0.0,0.0,0.0,0.0,0.0,0.0,0.0,0.0,0.0,0.0,0.0,0.0,0.0,0.0,0.0,0.0,0.0,0.0,0.0,0.0,0.0,0.0,0.0,0.0,0.0,0.0,0.0,0.0,0.0,0.0,0.0,0.0,0.0,0.0,0.0,0.0,0.0,0.0,0.0,0.0,0.0,0.0,0.0,0.0,0.0,0.0,0.0,0.0,0.0,0.0,0.0,0.0,0.0,0.0,0.0,0.0,0.0,0.0,0.0,0.0,0.0,0.0,0.0,0.0,0.0,0.0,0.0,0.0,0.0,0.0,0.0,0.0,0.0,0.0,0.0,0.0,0.0,0.0,0.0,0.0,0.0,0.0,0.0,0.0,0.0,0.0,0.0,0.0,0.0,0.0,0.0,0.0,0.0,0.0,0.0,0.0,0.0,0.0,0.7749,0.7773,0.787,0.8026,0.8283,0.8049,0.8185,0.0,0.0,0.0,0.0,0.0,0.0,0.0,0.0,0.0,0.0,0.0,0.0,0.0,0.0,0.0,0.0,0.0,0.0,0.0,0.0,0.0,0.0,0.0,0.0,0.0,0.0,0.0,0.0,0.0,0.0,0.0,0.0,0.0,0.0,0.0,0.0,0.0,0.0,0.0,0.0,0.0,0.0,0.0,0.0,0.0,0.0,0.0,0.0,0.0,0.0,0.0,0.0,0.0,0.0,0.0,0.0,0.0,0.0,0.0,0.0,0.0,0.0,0.0,0.0,0.0,0.0,0.0,0.0,0.0,0.0,0.0,0.0,0.0,0.0,0.0,0.0,0.0,0.0,0.0,0.0,0.0,0.0,0.0,0.0,0.0,0.0,0.0,0.0,0.0,0.0,0.0,0.0,0.0,0.0,0.0,0.0,0.0,0.0,0.0,0.0,0.0,0.0,0.0,0.0,0.0,0.0,0.0,0.0,0.8275,0.7912,0.8126,0.8406,0.8724,0.8716,0.8886,0.0,0.0,0.0,0.0,0.0,0.0,0.0,0.0,0.0,0.0,0.0,0.0,0.0,0.0,0.0,0.0,0.0,0.0,0.0,0.0,0.0,0.0,0.0,0.0,0.0,0.0,0.0,0.0,0.0,0.0,0.0,0.0,0.0,0.0,0.0,0.0,0.0,0.0,0.0,0.0,0.0,0.0,0.0,0.0,0.0,0.0,0.0,0.0,0.0,0.0,0.0,0.0,0.0,0.0,0.0,0.0,0.0,0.0,0.0,0.0,0.0,0.0,0.0,0.0,0.0,0.0,0.0,0.0,0.0,0.0,0.0,0.0,0.0,0.0,0.0,0.0,0.0,0.0,0.0,0.0,0.0,0.0,0.0,0.0,0.0,0.0,0.0,0.0,0.0,0.0,0.0,0.0,0.0,0.0,0.0,0.0,0.0,0.0,0.0,0.0,0.0,0.0,0.0,0.0,0.0,0.0,0.0,0.0,0.816,0.7987,0.8398,0.8683,0.8822,0.8765,0.8967,0.0,0.0,0.0,0.0,0.0,0.0,0.0,0.0,0.0,0.0,0.0,0.0,0.0,0.0,0.0,0.0,0.0,0.0,0.0,0.0,0.0,0.0,0.0,0.0,0.0,0.0,0.0,0.0,0.0,0.0,0.0,0.0,0.0,0.0,0.0,0.0,0.0,0.0,0.0,0.0,0.0,0.0,0.0,0.0,0.0,0.0,0.0,0.0,1.6503,0.0,0.0,0.0,0.0,0.0,0.0,0.0,0.0,0.0,0.0,0.0,0.0,0.0,0.0,0.0,0.0,0.0,0.0,0.0,0.0,0.0,0.0,0.0,0.0,0.0,0.0,0.0,0.0,0.0,0.0,0.0,0.0,0.0,0.0,0.0,0.0,0.0,0.0,0.0,0.0,0.0,0.0,0.0,0.0,0.0,0.0,0.0,0.0,0.0,0.0,0.0,0.0,0.0,0.0,0.0,0.0,0.0,0.0,0.0,0.8324,0.8349,0.8561,0.8765,0.8952,0.8935,0.9168,0.0,0.0,0.0,0.0,0.0,0.0,0.0,0.0,0.0,0.0,0.0,0.0,0.0,0.0,0.0,0.0,0.0,0.0,0.0,0.0,0.0,0.0,0.0,0.0,0.0,0.0,0.0,0.0,0.0,0.0,0.0,0.0,0.0,0.0,0.0,0.0,0.0,0.0,0.0,0.0,0.0,0.0,0.0,0.0,0.0,0.0,0.0,0.0,0.0,0.0,0.0,0.0,0.0,0.0,0.0,0.0,0.0,0.0,0.0,0.0,0.0,0.0,0.0,0.0,0.0,0.0,0.0,0.0,0.0,0.0,0.0,0.0,0.0,0.0,0.0,0.0,0.0,0.0,0.0,0.0,0.0,0.0,0.0,0.0,0.0,0.0,0.0,0.0,0.0,0.0,0.0,0.0,0.0,0.0,0.0,0.0,0.0,0.0,0.0,0.0,0.0,0.0,0.0,0.0,0.0,0.0,0.0,0.8367,0.8561,0.8675,0.8724,0.8854,0.9016,0.9136,0.9408,0.9853,0.0,0.0,0.0,0.0,0.0,0.0,0.0,0.0,0.0,0.0,0.0,0.0,0.0,0.0,0.0,0.0,0.0,0.0,0.0,0.0,0.0,0.0,0.0,0.0,0.0,0.0,0.0,0.0,0.0,0.0,0.0,0.0,0.0,0.0,0.0,0.0,0.0,0.0,1.3664,1.5617,0.0,0.0,0.0,0.0,0.0,0.0,0.0,0.0,1.7228,0.0,0.0,0.0,0.0,0.0,0.0,0.0,0.0,0.0,0.0,0.0,0.0,0.0,0.0,0.0,0.0,0.0,0.0,0.0,0.0,0.0,0.0,0.0,0.0,0.0,0.0,0.0,0.0,0.0,0.0,0.0,0.0,0.0,0.0,0.0,0.0,0.0,0.0,0.0,0.0,0.0,0.0,0.0,0.0,0.0,0.0,0.0,0.0,0.0,0.0,0.0,0.0,0.0,0.0,0.0,0.0,0.8318,0.8456,0.8521,0.8561,0.8926,0.9096,0.9016,0.9168,0.9558,1.0166,0.0,0.0,0.0,0.0,0.0,0.0,0.0,0.0,0.0,0.0,0.0,0.0,0.0,0.0,0.0,0.0,0.0,0.0,0.0,0.0,0.0,0.0,0.0,0.0,0.0,0.0,0.0,0.0,0.0,0.0,0.0,0.0,0.0,0.0,0.0,0.0,0.0,0.0,0.0,1.5786,1.7135,0.0,0.0,0.0,0.0,0.0,0.0,0.0,0.0,1.8082,0.0,0.0,0.0,0.0,0.0,0.0,0.0,0.0,0.0,0.0,0.0,0.0,0.0,0.0,0.0,0.0,0.0,0.0,0.0,0.0,0.0,0.0,0.0,0.0,0.0,0.0,0.0,0.0,0.0,0.0,0.0,0.0,0.0,0.0,0.0,0.0,0.0,0.0,0.0,0.0,0.0,0.0,0.0,0.0,0.0,0.0,0.0,0.0,0.0,0.0,0.0,0.0,0.0,0.0,0.0,0.8692,0.8873,0.8915,0.8781,0.9056,0.9177,0.9177,0.9523,0.9969,0.0,0.0,0.0,0.0,0.0,0.0,0.0,0.0,0.0,0.0,0.0,0.0,0.0,0.0,0.0,0.0,0.0,0.0,0.0,0.0,0.0,0.0,0.0,0.0,0.0,0.0,0.0,0.0,0.0,0.0,0.0,0.0,0.0,0.0,0.0,0.0,0.0,0.0,0.0,0.0,1.6275,1.7213,1.7991,0.0,0.0,0.0,0.0,0.0,0.0,1.882,1.8844,0.0,0.0,0.0,0.0,0.0,0.0,0.0,0.0,0.0,0.0,0.0,0.0,0.0,0.0,0.0,0.0,0.0,0.0,0.0,0.0,0.0,0.0,0.0,0.0,0.0,0.0,0.0,0.0,0.0,0.0,0.0,0.0,0.0,0.0,0.0,0.0,0.0,0.0,0.0,0.0,0.0,0.0,0.0,0.0,0.0,0.0,0.0,0.0,0.0,0.0,0.0,0.0,0.0,0.0,0.0,0.9065,0.9342,0.9308,0.9041,0.9177,0.9332,0.9443,0.9888,1.0353,0.0,0.0,0.0,0.0,0.0,0.0,0.0,0.0,0.0,0.0,0.0,0.0,0.0,0.0,0.0,0.0,0.0,0.0,0.0,0.0,0.0,0.0,0.0,0.0,0.0,0.0,0.0,0.0,0.0,0.0,0.0,0.0,0.0,0.0,0.0,0.0,0.0,0.0,0.0,0.0,0.0,1.7501,1.8084,1.9108,0.0,0.0,0.0,0.0,1.9527,1.9747,0.0,0.0,0.0,0.0,0.0,0.0,0.0,0.0,0.0,0.0,0.0,0.0,0.0,0.0,0.0,0.0,0.0,0.0,0.0,0.0,0.0,0.0,0.0,0.0,0.0,0.0,0.0,0.0,0.0,0.0,0.0,0.0,0.0,0.0,0.0,0.0,0.0,0.0,0.0,0.0,0.0,0.0,0.0,0.0,0.0,0.0,0.0,0.0,0.0,0.0,0.0,0.0,0.0,0.0,0.0,0.0,0.9315,0.9551,0.9494,0.9203,0.9395,0.9636,0.9978,1.0158,1.0577,0.0,0.0,0.0,0.0,0.0,0.0,0.0,0.0,0.0,0.0,0.0,0.0,0.0,0.0,0.0,0.0,0.0,0.0,0.0,0.0,0.0,0.0,0.0,0.0,0.0,0.0,0.0,0.0,0.0,0.0,0.0,0.0,0.0,0.0,0.0,0.0,0.0,0.0,0.0,0.0,0.0,1.8177,1.8392,1.9799,2.0799,0.0,0.0,2.1163,2.0687,2.1359,0.0,0.0,0.0,0.0,0.0,0.0,0.0,0.0,0.0,0.0,0.0,0.0,0.0,0.0,0.0,0.0,0.0,0.0,0.0,0.0,0.0,0.0,0.0,0.0,0.0,0.0,0.0,0.0,0.0,0.0,0.0,0.0,0.0,0.0,0.0,0.0,0.0,0.0,0.0,0.0,0.0,0.0,0.0,0.0,0.0,0.0,0.0,0.0,0.0,0.0,0.0,0.0,0.0,0.0,0.0,1.0098,0.9792,1.0321,1.0445,1.0063,1.0215,1.0392,1.0556,1.0838,1.1122,0.0,0.0,0.0,0.0,0.0,0.0,0.0,0.0,0.0,0.0,0.0,0.0,0.0,0.0,0.0,0.0,0.0,0.0,0.0,0.0,0.0,0.0,0.0,0.0,0.0,0.0,0.0,0.0,0.0,0.0,0.0,0.0,0.0,0.0,0.0,0.0,0.0,0.0,0.0,0.0,0.0,0.0,1.86,1.9857,0.0,0.0,0.0,2.1708,2.2107,0.0,0.0,0.0,0.0,0.0,0.0,0.0,0.0,0.0,0.0,0.0,0.0,0.0,0.0,0.0,0.0,0.0,0.0,0.0,0.0,0.0,0.0,0.0,0.0,0.0,0.0,0.0,0.0,0.0,0.0,0.0,0.0,0.0,0.0,0.0,0.0,0.0,0.0,0.0,0.0,0.0,0.0,0.0,0.0,0.0,0.0,0.0,0.0,0.0,0.0,0.0,0.0,0.0,0.0,0.0,0.0,0.0,1.017,1.0894,1.1093,1.0785,1.0857,1.0956,1.1058,1.1324,0.0,0.0,0.0,0.0,0.0,0.0,0.0,0.0,0.0,0.0,0.0,0.0,0.0,0.0,0.0,0.0,0.0,0.0,0.0,0.0,0.0,0.0,0.0,0.0,0.0,0.0,0.0,1.2337,0.0,0.0,0.0,0.0,0.0,0.0,0.0,0.0,0.0,0.0,0.0,0.0,0.0,0.0,1.9342,1.9069,2.0158,2.1093,0.0,0.0,2.2374,2.2725,2.2719,2.2636,0.0,0.0,0.0,0.0,0.0,0.0,0.0,0.0,0.0,0.0,0.0,0.0,0.0,0.0,0.0,0.0,0.0,0.0,0.0,0.0,0.0,0.0,0.0,0.0,0.0,0.0,0.0,0.0,0.0,0.0,0.0,0.0,0.0,0.0,0.0,0.0,0.0,0.0,0.0,0.0,0.0,0.0,0.0,0.0,0.0,0.0,0.0,0.0,0.0,0.0,0.0,0.0,0.0,0.0,0.0,1.0306,1.0931,1.1195,1.0929,1.0901,1.1094,1.1425,1.1471,1.1693,0.0,0.0,0.0,0.0,0.0,0.0,0.0,0.0,0.0,0.0,0.0,0.0,0.0,0.0,0.0,0.0,0.0,0.0,0.0,0.0,0.0,0.0,0.0,0.0,0.0,0.0,0.0,0.0,0.0,0.0,0.0,0.0,0.0,0.0,0.0,0.0,0.0,0.0,0.0,0.0,0.0,2.0436,1.9989,2.1197,2.2056,0.0,0.0,2.3542,2.1878,2.3159,2.3777,2.2165,0.0,0.0,0.0,0.0,0.0,0.0,0.0,0.0,0.0,0.0,0.0,0.0,0.0,0.0,0.0,0.0,0.0,0.0,0.0,0.0,0.0,0.0,0.0,0.0,0.0,0.0,0.0,0.0,0.0,0.0,0.0,0.0,0.0,0.0,0.0,0.0,0.0,0.0,0.0,0.0,0.0,0.0,0.0,0.0,0.0,0.0,0.0,0.0,0.0,0.0,0.0,0.0,0.0,1.0921,1.1031,1.1515,1.1716,1.1665,1.1656,1.173,1.1847,1.1847,1.194,0.0,0.0,0.0,0.0,0.0,0.0,0.0,0.0,0.0,0.0,0.0,0.0,0.0,0.0,0.0,0.0,0.0,0.0,0.0,0.0,0.0,0.0,0.0,0.0,0.0,0.0,0.0,0.0,1.4293,1.4727,1.5223,0.0,0.0,0.0,0.0,0.0,0.0,0.0,0.0,0.0,0.0,2.0358,2.0427,2.1447,0.0,0.0,2.2777,2.3452,2.2867,2.3238,2.349,2.3144,2.2795,0.0,0.0,0.0,0.0,0.0,0.0,0.0,0.0,0.0,0.0,0.0,0.0,0.0,0.0,0.0,0.0,0.0,0.0,0.0,0.0,0.0,0.0,0.0,0.0,0.0,0.0,0.0,0.0,0.0,0.0,0.0,0.0,0.0,0.0,0.0,0.0,0.0,0.0,0.0,0.0,0.0,0.0,0.0,0.0,0.0,0.0,0.0,0.0,0.0,0.0,0.0,0.0,1.1232,1.1489,1.1874,1.2076,1.2076,1.2076,1.2076,1.2076,1.2076,1.2069,0.0,0.0,0.0,0.0,0.0,0.0,0.0,0.0,0.0,0.0,0.0,0.0,0.0,0.0,0.0,0.0,0.0,0.0,0.0,0.0,0.0,0.0,0.0,0.0,0.0,0.0,0.0,0.0,1.5155,1.5271,1.5755,0.0,0.0,0.0,0.0,0.0,0.0,0.0,0.0,0.0,0.0,2.0695,2.073,2.1888,2.2653,2.2258,2.2963,2.3545,2.3575,2.3367,2.3234,2.3259,0.0,0.0,0.0,0.0,0.0,0.0,0.0,0.0,0.0,0.0,0.0,0.0,0.0,0.0,0.0,0.0,0.0,0.0,0.0,0.0,0.0,0.0,0.0,0.0,0.0,0.0,0.0,0.0,0.0,0.0,0.0,0.0,0.0,0.0,0.0,0.0,0.0,0.0,0.0,0.0,0.0,0.0,0.0,0.0,0.0,0.0,0.0,0.0,0.0,0.0,0.0,0.0,0.0,1.148,1.1498,1.1883,1.2076,1.2076,1.2076,1.2076,1.2076,1.2076,1.2078,1.2068,0.0,0.0,0.0,0.0,0.0,0.0,0.0,0.0,0.0,0.0,0.0,0.0,0.0,0.0,0.0,0.0,0.0,0.0,0.0,0.0,0.0,0.0,0.0,0.0,0.0,0.0,1.7267,1.6755,1.6123,0.0,0.0,0.0,0.0,0.0,0.0,0.0,0.0,0.0,0.0,2.1135,2.1805,2.085,2.2622,2.3779,2.3358,2.3828,2.406,2.3527,2.3585,2.326,0.0,0.0,0.0,0.0,0.0,0.0,0.0,0.0,0.0,0.0,0.0,0.0,0.0,0.0,0.0,0.0,0.0,0.0,0.0,0.0,0.0,0.0,0.0,0.0,0.0,0.0,0.0,0.0,0.707,0.0,0.0,0.0,0.0,0.0,0.0,0.0,0.0,0.0,0.0,0.0,0.9082,0.977,0.0,0.0,0.0,0.0,0.0,0.0,0.0,0.0,0.0,0.0,0.0,0.0,1.1618,1.1874,1.2052,1.2076,1.2076,1.2076,1.2076,1.2076,1.2076,1.2078,1.2088,0.0,0.0,0.0,0.0,0.0,0.0,0.0,0.0,0.0,0.0,0.0,0.0,0.0,0.0,0.0,0.0,0.0,0.0,0.0,0.0,0.0,0.0,0.0,0.0,0.0,1.592,0.0,0.0,0.0,0.0,0.0,0.0,0.0,0.0,0.0,0.0,0.0,1.9904,2.0005,2.0706,2.1129,2.0918,2.2189,2.2798,0.0,0.0,0.0,0.0,0.0,0.0,0.0,0.0,0.0,0.0,0.0,0.0,0.0,0.0,2.5445,2.2975,2.2365,2.2406,2.2878,0.0,0.0,0.0,0.0,0.0,0.0,0.0,0.0,0.0,0.0,0.0,0.0,0.0,0.0,0.0,0.0,0.7083,0.0,0.0,0.0,0.0,0.0,0.0,0.0,0.0,0.9051,0.9104,0.8962,0.9789,1.0038,0.0,0.9953,1.0175,0.0,0.0,0.0,0.0,0.0,0.0,0.0,0.0,1.1722,1.1968,1.1977,1.1968,1.2026,1.2076,1.2076,1.2076,1.2076,1.2094,1.2158,1.2422,1.2528,0.0,0.0,0.0,0.0,0.0,0.0,0.0,0.0,0.0,0.0,0.0,0.0,0.0,0.0,0.0,0.0,0.0,0.0,0.0,0.0,0.0,0.0,0.0,1.6467,0.0,0.0,0.0,0.0,0.0,0.0,0.0,0.0,0.0,2.0333,2.001,1.9735,1.9999,2.04,2.0654,2.0557,0.0,0.0,0.0,0.0,0.0,0.0,0.0,2.3506,2.3786,2.4457,2.5022,2.526,2.7209,2.8414,2.7394,0.0,0.0,2.4471,2.3927,2.3955,2.4411,2.4512,2.4831,2.5795,2.5358,2.5006,0.0,0.0,0.0,0.0,0.0,0.0,0.0,0.0,0.5712,0.5788,0.0,0.6834,0.0,0.0,0.0,0.0,0.0,0.0,0.0,0.0,0.8635,0.8893,0.9072,0.984,1.0344,1.0493,1.0692,1.069,1.0482,1.0074,0.0,0.0,0.0,0.0,0.0,0.0,1.1669,1.1728,1.1728,1.1778,1.1927,1.2026,1.2076,1.2076,1.2076,1.2175,1.2323,1.2618,1.277,1.2807,1.3487,0.0,0.0,0.0,0.0,0.0,0.0,0.0,0.0,0.0,0.0,0.0,0.0,0.0,0.0,0.0,0.0,0.0,0.0,0.0,0.0,1.8347,0.0,0.0,0.0,0.0,0.0,0.0,0.0,0.0,0.0,0.0,2.0249,1.994,1.9642,1.9683,0.0,0.0,0.0,0.0,2.2906,2.2461,2.3764,2.4784,2.4989,2.5496,2.5677,2.5029,0.0,0.0,2.618,2.666,2.7064,2.6557,2.6768,2.6889,2.7595,2.6942,2.6505,2.6556,2.659,2.6725,2.681,2.6911,2.686,0.3053,0.0,0.0,0.0,0.0,0.542,0.551,0.5308,0.5412,0.5331,0.5181,0.5697,0.0,0.0,0.0,0.0,0.0,0.0,0.889,0.8714,0.8918,0.9058,0.9151,0.9575,0.984,0.9891,0.993,1.0059,1.0169,0.9999,1.028,1.0866,0.0,0.0,0.0,0.0,1.1519,1.1578,1.1728,1.1877,1.1927,1.2026,1.2076,1.2076,1.2076,1.2126,1.2175,1.2314,1.2589,1.2932,1.3219,0.0,0.0,0.0,0.0,0.0,0.0,0.0,0.0,0.0,0.0,0.0,0.0,0.0,0.0,0.0,0.0,0.0,0.0,0.0,1.7276,1.8042,1.8195,0.0,0.0,0.0,0.0,0.0,0.0,0.0,0.0,0.0,2.0104,1.9904,1.97,0.0,0.0,2.0804,2.1084,2.2094,2.2757,2.2627,0.0,0.0,0.0,2.4565,2.5061,2.5399,2.7186,2.8721,2.9138,2.9649,2.9928,2.977,2.9846,2.993,2.9964,2.8245,2.6995,2.7316,2.7468,2.7892,2.8856,2.9144,2.911,0.2879,0.3341,0.4094,0.4497,0.469,0.4994,0.5084,0.5084,0.5026,0.504,0.5071,0.5232,0.5681,0.6355,0.6813,0.0,0.0,0.0,0.8755,0.8739,0.9082,0.9263,0.9213,0.9663,0.989,0.9779,0.99,1.0016,1.012,1.0342,1.0593,1.0919,0.0,0.0,1.1377,1.1368,1.1427,1.1368,1.1628,1.1778,1.1819,1.2026,1.2076,1.2076,1.2076,1.2076,1.2076,1.2184,1.2412,1.2842,1.3238,1.3497,0.0,0.0,0.0,0.0,0.0,0.0,0.0,0.0,0.0,0.0,0.0,1.6581,0.0,0.0,0.0,0.0,1.6843,1.7388,1.7896,1.8247,0.0,0.0,0.0,0.0,0.0,0.0,0.0,1.9455,1.9577,1.9816,2.0143,2.0152,2.0005,1.9744,2.0445,2.1341,2.2295,0.0,2.2682,2.2682,2.3655,2.4388,2.4403,2.5256,2.6101,2.6769,2.8211,2.9522,3.0117,3.0593,3.0895,3.0992,3.1072,3.1112,3.1095,2.9631,2.8586,2.9059,2.9161,2.9499,3.0378,3.0531,3.0548,0.2843,0.2975,0.3368,0.3776,0.4105,0.4281,0.4462,0.4718,0.4665,0.4866,0.5233,0.5298,0.5683,0.6307,0.7125,0.0,0.0,0.8158,0.8337,0.8527,0.9194,0.9346,0.9192,0.9922,1.023,0.9977,1.0267,1.0383,1.0309,1.0719,1.0902,1.0937,1.1027,1.1107,1.1107,1.1217,1.1209,1.1115,1.1421,1.1648,1.1772,1.2022,1.2113,1.2135,1.2076,1.2076,1.2076,1.2076,1.2283,1.2676,1.3362,1.3697,1.3663,0.0,0.0,0.0,0.0,0.0,0.0,0.0,0.0,0.0,0.0,0.0,0.0,0.0,0.0,0.0,1.7824,0.0,1.9043,1.8781,0.0,0.0,0.0,1.9015,1.8743,1.931,1.9728,1.9728,0.0,0.0,0.0,0.0,2.0596,1.9984,2.087,2.2088,2.3394,2.3134,2.2757,2.2906,2.4403,2.56,2.563,2.6844,2.799,2.8435,2.8967,2.9364,2.9793,3.0199,3.0485,3.0708,3.0855,3.0992,3.0992,3.0937,3.119,3.1072,3.1106,3.114,3.114,3.1207,3.1241,0.2656,0.2996,0.3088,0.346,0.3893,0.4414,0.464,0.4706,0.4678,0.4697,0.47,0.4739,0.5267,0.6277,0.7101,0.7607,0.7997,0.8542,0.8782,0.8794,0.9296,0.9448,0.9394,0.9578,0.9667,0.9612,0.9673,0.9762,0.9939,1.0147,1.0233,1.0272,1.0607,1.0925,1.1154,1.1202,1.1209,1.1209,1.186,1.2201,1.2243,1.2483,1.2379,1.2085,1.2076,1.2076,1.2076,1.2076,1.2175,1.2382,1.288,1.3242,1.3341,1.3869,0.0,0.0,0.0,0.0,0.0,0.0,0.0,0.0,0.0,1.7155,1.6268,0.0,1.7731,0.0,1.7824,1.8462,1.9043,1.9119,0.0,0.0,1.9177,1.9235,1.9031,1.9549,1.9967,2.0073,2.0381,2.0761,2.1053,2.1576,2.1816,2.1591,2.2031,2.2697,2.3471,2.3488,2.3565,2.4103,2.4956,2.5779,2.6351,2.7443,2.8396,2.8779,2.9273,2.9766,3.0172,3.0443,3.0651,3.0814,3.0871,3.0895,3.0895,3.0935,3.0992,3.1032,3.1112,3.119,3.119,3.1613,3.185,0.2488,0.2858,0.3061,0.3274,0.3647,0.4251,0.4662,0.4811,0.4757,0.4694,0.4626,0.4788,0.5256,0.5885,0.658,0.7211,0.7762,0.8331,0.8679,0.9025,0.9609,0.9746,0.9533,0.9778,0.9712,0.9484,0.9478,0.9548,0.967,1.0013,1.0115,1.0115,1.0451,1.0728,1.0892,1.103,1.1115,1.1236,1.1832,1.2341,1.2583,1.2778,1.2693,1.236,1.2525,1.2443,1.2144,1.2241,1.2351,1.2382,1.2842,1.3145,1.3386,1.3884,1.4224,0.0,0.0,0.0,0.0,0.0,0.0,0.0,0.0,0.0,0.0,0.0,1.805,0.0,0.0,0.0,1.9914,1.9982,1.9982,1.9943,1.9982,1.9982,1.9943,2.0262,2.048,2.0615,2.0951,2.1328,2.1603,2.2081,2.2463,2.2598,2.2901,2.3178,2.3419,2.3551,2.3849,2.4537,2.5149,2.6006,2.7033,2.7746,2.8348,2.8668,2.909,2.9483,2.9766,3.007,3.0368,3.0576,3.0692,3.0773,3.0855,3.0912,3.0912,3.0975,3.1072,3.1112,3.1207,3.1512,3.1647,0.2478,0.2771,0.3043,0.3215,0.335,0.4006,0.4487,0.4873,0.4833,0.4771,0.4828,0.5164,0.5412,0.5574,0.6002,0.6592,0.7411,0.7883,0.8507,0.9161,1.0018,1.0178,0.9769,1.0188,1.0089,0.9592,0.9586,0.9568,0.9532,1.004,1.0315,1.0283,1.0476,1.0533,1.0578,1.0777,1.0987,1.136,1.1793,1.2332,1.2855,1.3021,1.2996,1.2782,1.3103,1.2956,1.2328,1.2614,1.2744,1.266,1.2959,1.3308,1.3597,1.4002,1.4279,0.0,1.478,0.0,0.0,0.0,0.0,0.0,0.0,0.0,0.0,1.8067,1.8582,1.9304,2.0349,2.0988,2.0988,2.0905,2.0864,2.0988,2.0905,2.0864,2.0988,2.1061,2.1148,2.1301,2.1457,2.1735,2.2133,2.2435,2.2771,2.3128,2.3348,2.3435,2.3421,2.3508,2.3819,2.4433,2.5061,2.5856,2.7146,2.7697,2.7887,2.8194,2.8466,2.8779,2.8946,2.9367,2.9762,3.0093,3.0344,3.0593,3.0831,3.0871,3.0912,3.0975,3.1015,3.1072,3.1151,3.1224,3.119,0.2766,0.2776,0.2763,0.3098,0.3604,0.3672,0.3949,0.4343,0.4638,0.477,0.4836,0.4886,0.5379,0.6083,0.6169,0.6615,0.7348,0.8268,0.8726,0.8646,0.983,1.0484,1.0551,1.0672,1.0485,1.0137,1.0113,1.0073,0.9802,1.0054,1.0238,1.0312,1.0585,1.085,0.0,0.0,0.0,0.0,1.257,1.2915,1.3107,1.3546,1.358,1.3195,1.325,0.0,1.3075,1.314,1.3194,1.3324,1.3204,0.0,0.0,0.0,0.0,0.0,0.0,0.0,0.0,0.0,0.0,0.0,1.8305,1.8625,1.8263,1.9447,2.0333,2.064,2.0857,2.0988,2.0988,2.0988,2.0947,2.1003,2.0988,2.0988,2.1003,2.1382,2.1715,2.1815,2.2236,2.2598,2.2701,2.2892,2.3025,2.3142,2.3349,2.3509,2.3494,2.3581,2.3655,2.3819,2.4477,2.5121,2.5916,2.6612,2.7137,2.7376,2.7628,2.7905,2.8284,2.8698,2.9026,2.9286,2.9947,3.051,3.0675,3.0733,3.069,3.0975,3.0975,3.1072,3.1151,3.119,3.119,0.1806,0.0,0.2061,0.2579,0.0,0.348,0.3704,0.4018,0.4395,0.459,0.4767,0.4846,0.5186,0.5631,0.5709,0.6136,0.6823,0.759,0.8156,0.8618,0.9463,1.0082,1.0421,1.0568,1.0509,1.0339,1.0333,1.0191,1.0134,1.0202,1.0268,1.0327,1.0604,1.0742,1.0867,1.0606,1.0777,1.1365,1.1787,1.2318,1.2821,1.3279,1.3447,1.3486,0.0,0.0,0.0,0.0,0.0,0.0,0.0,0.0,0.0,0.0,0.0,1.5088,1.5485,1.6019,1.6638,1.73,1.7706,1.7823,1.8691,1.9178,1.91,2.0359,2.1212,2.1397,2.1714,2.1903,2.1917,2.1888,2.1888,2.1917,2.1932,2.1888,2.1946,2.2163,2.2366,2.2468,2.2789,2.3037,2.2992,2.3171,2.3305,2.329,2.3422,2.3509,2.3538,2.3566,2.3699,2.4059,2.4687,2.5226,2.5648,2.5995,2.6378,2.6657,2.7088,2.7458,2.7809,2.8302,2.8793,2.9189,2.9453,2.9648,2.9947,2.9795,2.9742,3.0218,3.0415,3.0606,3.1016,3.092,3.0666,0.0618,0.1254,0.132,0.2029,0.3123,0.3461,0.3692,0.3957,0.0,0.0,0.0,0.4967,0.5048,0.5126,0.5277,0.5677,0.6162,0.6794,0.7663,0.8704,0.9169,0.9764,1.0341,1.0558,1.0525,1.0478,1.052,1.049,1.0405,1.0441,1.0466,1.0472,1.0682,1.0721,1.0729,1.0615,1.0535,1.0507,1.0891,1.1538,1.2512,1.2887,1.3228,1.3504,1.4019,1.3961,1.3367,1.3761,1.3902,1.37,1.3862,1.3968,1.3959,1.4192,1.4522,1.4862,1.5421,1.5981,1.6416,1.7152,1.7665,1.786,1.8894,1.9647,2.0034,2.0983,2.1605,2.1828,2.2435,2.2843,2.2843,2.2781,2.2781,2.2857,2.2841,2.2812,2.2843,2.2888,2.2859,2.2933,2.3098,2.3231,2.3127,2.326,2.3422,2.3466,2.3451,2.3494,2.3566,2.3595,2.3774,2.4253,2.4687,2.5212,2.5348,2.556,2.5682,2.5925,2.6398,2.6934,2.7319,2.7783,2.8386,2.8894,2.8764,2.8851,2.923,2.9108,2.8971,2.9794,3.0001,3.023,3.0875,3.0577,3.0154,0.0358,0.0807,0.1251,0.1788,0.2592,0.3398,0.3931,0.43,0.4509,0.4851,0.5162,0.5162,0.5242,0.5408,0.5722,0.5866,0.6138,0.7122,0.802,0.0,0.958,1.0476,1.1356,1.1432,1.1309,1.0983,1.1244,1.1123,1.0737,1.0894,1.1077,1.1224,1.1298,1.1247,1.1165,1.0962,1.0757,1.0548,1.1001,1.1732,1.2765,1.3078,1.3312,1.3374,1.3795,1.3846,1.3485,1.3954,1.4287,1.4332,1.4288,1.4251,1.4241,1.4179,1.438,1.4851,1.5008,1.541,1.6272,1.6951,1.7803,1.8851,1.9467,2.0041,2.0815,2.1411,2.1824,2.1965,2.236,2.2646,2.2661,2.2615,2.2629,2.2646,2.2749,2.2795,2.2841,2.2872,2.2888,2.2888,2.3023,2.3112,2.3127,2.3171,2.3246,2.3319,2.3363,2.3407,2.3566,2.3595,2.3625,2.3714,2.3804,2.3879,2.4118,2.4522,2.4912,2.4972,2.5271,2.574,2.6411,2.6614,2.6945,2.7455,2.7888,2.8404,2.9074,2.939,2.9553,3.0256,3.0496,3.0654,3.0902,3.046,3.0234,-0.0628,-0.0359,0.009,0.0896,0.197,0.3282,0.4102,0.4453,0.4676,0.4862,0.5117,0.5216,0.5267,0.535,0.5752,0.5944,0.6009,0.6826,0.7593,0.847,0.8968,0.9712,1.0818,1.1021,1.1067,1.1142,1.1456,1.1462,1.1395,1.1359,1.1413,1.1682,1.1713,1.1651,1.1462,1.1314,1.1099,1.0605,1.0701,1.1108,1.1794,1.2531,1.2967,1.3147,1.3769,1.4048,1.3761,1.4139,1.4378,1.4497,1.4615,1.4754,1.4792,1.4615,1.47,1.5129,1.5311,1.5711,1.6611,1.7592,1.8431,1.9146,1.9368,1.9668,2.0194,2.0944,2.1444,2.1527,2.1766,2.2077,2.2231,2.2324,2.2477,2.2689,2.2781,2.2872,2.2886,2.2857,2.2888,2.2888,2.3068,2.3201,2.3201,2.329,2.3363,2.3436,2.348,2.3508,2.361,2.3595,2.3595,2.3595,2.3595,2.3595,2.361,2.3878,2.419,2.4323,2.4669,2.5148,2.5826,2.6153,2.6717,2.7089,2.74,2.7695,2.8241,2.8037,2.8493,2.9641,2.993,3.0111,3.0637,3.0729,3.0678,-0.1436,-0.1346,-0.0897,0.0269,0.1973,0.332,0.4174,0.4555,0.4628,0.4835,0.5104,0.5154,0.5254,0.5308,0.5633,0.5878,0.5972,0.6401,0.7226,0.8193,0.8265,0.8899,1.0108,1.0437,1.0734,1.119,1.149,1.1658,1.1828,1.1696,1.1666,1.1891,1.2014,1.1973,1.169,1.1611,1.1364,1.0994,1.0706,1.0688,1.1066,1.1978,1.2547,1.2813,1.3608,1.4039,1.3909,1.4212,1.4454,1.4616,1.4984,1.5124,1.5205,1.5003,1.5068,1.54,1.5552,1.6102,1.7119,1.8237,1.9076,1.9426,1.9424,1.9511,1.975,2.045,2.1007,2.1193,2.1403,2.1648,2.1932,2.2172,2.2353,2.2534,2.2675,2.2812,2.2797,2.2857,2.2902,2.2933,2.3112,2.3231,2.3319,2.3451,2.3523,2.3523,2.3566,2.3551,2.3595,2.3595,2.3595,2.3595,2.3595,2.3595,2.3595,2.3668,2.3784,2.3997,2.4364,2.4887,2.5453,2.618,2.6746,2.6855,2.6862,2.7116,2.7438,2.7345,2.7752,2.9123,2.9534,2.9782,3.0737,3.1038,3.0999,-0.1436,-0.1346,-0.0897,0.0896,0.3318,0.3767,0.4208,0.4645,0.4659,0.4828,0.5049,0.5132,0.5281,0.536,0.5607,0.5853,0.6016,0.6197,0.693,0.7954,0.8058,0.8804,1.0093,1.0221,1.0553,1.1134,1.1407,1.1588,1.167,1.1899,1.1936,1.1846,1.2004,1.2069,1.197,1.1716,1.1695,1.1777,1.1496,1.1281,1.1283,1.1769,1.2073,1.2112,1.3066,1.3593,1.3693,1.4275,1.4719,1.5047,1.5345,1.5428,1.5273,1.5274,1.5371,1.542,1.5439,1.611,1.7604,1.8695,1.9483,2.0096,1.9961,1.994,2.0158,2.0374,2.0749,2.1237,2.1575,2.1741,2.1843,2.2146,2.2232,2.198,2.2311,2.2523,2.2701,2.2735,2.2841,2.2902,2.3067,2.3171,2.3231,2.3304,2.3407,2.3538,2.3451,2.3436,2.3566,2.3595,2.3595,2.3595,2.3595,2.3625,2.3655,2.3696,2.3842,2.397,2.4158,2.4637,2.5207,2.5277,2.5144,2.658,2.6518,2.6756,2.7585,2.814,2.8485,2.9335,2.9831,3.0117,3.0733,3.0992,3.0971,-0.1436,-0.1346,-0.0359,0.1434,0.3587,0.3765,0.4036,0.4478,0.4478,0.4654,0.5006,0.5053,0.515,0.5304,0.5644,0.5987,0.6163,0.65,0.7035,0.7862,0.7858,0.8396,0.9137,0.9326,0.9834,1.0616,1.0905,1.1387,1.2003,1.2326,1.2276,1.2055,1.2157,1.2098,1.2049,1.1903,1.1821,1.1728,1.168,1.1621,1.1476,1.2373,1.2828,1.2733,1.3802,1.4405,1.4315,1.4684,1.5069,1.526,1.5694,1.5942,1.5904,1.6069,1.6064,1.584,1.6098,1.6524,1.729,1.8202,1.9015,1.9784,1.9727,1.9954,2.0587,2.0767,2.1113,2.1711,2.1716,2.1727,2.1942,2.2221,2.2325,2.2407,2.2857,2.3203,2.3217,2.3183,2.3234,2.3238,2.3014,2.2859,2.2934,2.3083,2.326,2.3494,2.3494,2.3451,2.3566,2.3595,2.3595,2.3595,2.3595,2.3789,2.4044,2.3819,2.3964,2.4307,2.4502,2.48,2.5139,2.5831,2.6213,2.6559,2.6632,2.6878,2.7562,2.784,2.8223,2.9303,3.0231,3.0526,3.0749,3.0895,3.1015,-0.1436,-0.1166,0.0179,0.1883,0.3678,0.3676,0.3855,0.4297,0.4297,0.4565,0.4921,0.501,0.5144,0.5254,0.5681,0.6031,0.6306,0.6571,0.7001,0.7591,0.7587,0.7862,0.8434,0.8628,0.9289,1.0174,1.0474,1.1154,1.2198,1.2711,1.2643,1.2413,1.2283,1.2267,1.2152,1.2009,1.1905,1.1722,1.1912,1.1877,1.1857,1.2861,1.3338,1.3171,1.4303,1.4992,1.4913,1.5217,1.548,1.5611,1.6049,1.6305,1.6392,1.6519,1.6519,1.637,1.6737,1.7032,1.7337,1.805,1.88,1.9476,1.9678,2.0052,2.0708,2.1137,2.1551,2.2081,2.2071,2.2091,2.2125,2.2334,2.2544,2.2711,2.3148,2.3406,2.3377,2.3336,2.3158,2.3084,2.283,2.2709,2.2754,2.2904,2.3172,2.3436,2.3451,2.3494,2.3566,2.3595,2.3595,2.3595,2.3595,2.3879,2.4388,2.4029,2.4073,2.4702,2.5002,2.4881,2.5211,2.6213,2.6914,2.6749,2.7072,2.7442,2.786,2.7953,2.8046,2.9141,3.0011,3.0535,3.0692,3.0855,3.0935,-0.1436,-0.1076,0.0628,0.2242,0.3587,0.3587,0.3855,0.4297,0.4297,0.4478,0.4748,0.4921,0.5186,0.5447,0.5622,0.5983,0.6331,0.6425,0.6691,0.7115,0.7207,0.7562,0.8177,0.8273,0.8965,1.0077,1.0188,1.0901,1.2037,1.2717,1.2909,1.2719,1.2643,1.245,1.2261,1.2136,1.2009,1.1964,1.2198,1.2265,1.2318,1.2851,1.314,1.3089,1.4106,1.4923,1.5358,1.5671,1.5932,1.6218,1.64,1.6487,1.6459,1.6475,1.6529,1.6675,1.707,1.7546,1.8019,1.853,1.9107,1.9673,2.0064,2.0442,2.0563,2.1367,2.1913,2.2114,2.2605,2.2761,2.2417,2.2617,2.2665,2.2337,2.2589,2.2789,2.2725,2.2844,2.2505,2.2289,2.2423,2.2509,2.2649,2.2844,2.2994,2.3216,2.3319,2.3363,2.3566,2.3595,2.3595,2.3595,2.364,2.3849,2.4418,2.4208,2.4417,2.5152,2.5454,2.5138,2.5591,2.6107,2.6565,2.6948,2.7208,2.7592,2.8117,2.8432,2.8607,2.921,2.9696,3.0126,3.0452,3.0733,3.0871,-0.0897,-0.0,0.0628,0.1973,0.3497,0.3587,0.3853,0.4297,0.4297,0.4567,0.4832,0.4921,0.5191,0.5555,0.5644,0.5908,0.634,0.6428,0.6697,0.7051,0.7139,0.7228,0.7492,0.7492,0.8021,0.8899,0.941,1.0544,1.2112,1.2619,1.2917,1.3052,1.2972,1.2698,1.2523,1.2551,1.2394,1.2068,1.2404,1.2498,1.2399,1.29,1.3143,1.3219,1.4252,1.4944,1.5138,1.5783,1.6207,1.6276,1.6825,1.71,1.7073,1.7089,1.7074,1.7158,1.7295,1.7514,1.7684,1.8098,1.8654,1.9233,1.9413,1.9801,2.0385,2.121,2.1849,2.2068,2.2675,2.2952,2.2912,2.2955,2.2938,2.2819,2.3134,2.3345,2.3384,2.3285,2.3056,2.259,2.2248,2.2044,2.2263,2.2434,2.2723,2.3098,2.3083,2.3216,2.3436,2.3523,2.3538,2.361,2.3625,2.3999,2.5151,2.4702,2.4642,2.5661,2.6111,2.6051,2.6341,2.6781,2.7221,2.7218,2.7433,2.7712,2.8192,2.8248,2.8545,2.887,2.9364,2.9794,3.0149,3.0468,3.0708,-0.0628,0.0359,0.0628,0.1792,0.3406,0.3585,0.3853,0.43,0.4389,0.4656,0.5099,0.5102,0.5371,0.5644,0.5822,0.5994,0.634,0.6428,0.6609,0.7051,0.7139,0.7139,0.7139,0.7139,0.7577,0.8544,0.9589,1.089,1.2277,1.2705,1.3052,1.3464,1.3284,1.3065,1.2879,1.2935,1.2752,1.2457,1.2623,1.2714,1.2533,1.2721,1.29,1.3046,1.3825,1.4617,1.4982,1.5621,1.6132,1.6412,1.6978,1.7392,1.756,1.761,1.7588,1.7588,1.7588,1.7588,1.7617,1.7861,1.8202,1.8654,1.8911,1.9299,1.9879,2.0899,2.1553,2.1939,2.2567,2.3125,2.3125,2.3125,2.3125,2.3125,2.3412,2.3469,2.3321,2.3315,2.3039,2.2458,2.1816,2.1622,2.1841,2.217,2.254,2.2934,2.2949,2.3038,2.3363,2.3451,2.357,2.3732,2.3896,2.4537,2.5493,2.5523,2.5615,2.6516,2.6561,2.6602,2.6737,2.72,2.7465,2.7497,2.7674,2.7923,2.804,2.8062,2.8248,2.8527,2.8944,2.9367,2.9772,3.0215,3.041,-0.0807,0.009,0.0538,0.1793,0.3317,0.3496,0.3855,0.43,0.4569,0.4926,0.528,0.5371,0.5463,0.5733,0.5908,0.6169,0.634,0.6428,0.6697,0.7051,0.7139,0.7139,0.7139,0.7139,0.7837,0.9144,1.0733,1.1774,1.2363,1.2796,1.3222,1.36,1.3655,1.3497,1.33,1.3239,1.3167,1.2956,1.2848,1.2876,1.2788,1.256,1.2419,1.2479,1.2987,1.3912,1.5054,1.5204,1.5692,1.6473,1.683,1.7176,1.7647,1.7891,1.7978,1.7959,1.7978,1.7988,1.7978,1.7988,1.8008,1.8202,1.8586,1.89,1.9309,2.0526,2.1491,2.1753,2.2445,2.3078,2.3065,2.3125,2.3125,2.3125,2.3185,2.2926,2.2539,2.2613,2.2652,2.1996,2.1528,2.1282,2.163,2.2189,2.2623,2.2692,2.2799,2.2994,2.3231,2.3275,2.3555,2.4043,2.4296,2.4789,2.5667,2.6519,2.6912,2.726,2.6916,2.6782,2.6797,2.7145,2.7154,2.7243,2.7524,2.7743,2.7348,2.7365,2.7519,2.7796,2.8383,2.8831,2.9255,2.9637,3.0025,-0.009,0.0538,0.0987,0.2062,0.3406,0.3585,0.3855,0.4297,0.4569,0.4837,0.5102,0.5282,0.5552,0.5733,0.5997,0.6169,0.6428,0.6609,0.6789,0.7051,0.7139,0.7139,0.7139,0.7139,0.7837,0.9061,0.9676,1.0717,1.2015,1.2619,1.3045,1.3457,1.382,1.3758,1.3503,1.3658,1.3566,1.318,1.3234,1.3273,1.3066,1.2766,1.2612,1.2661,1.3012,1.363,1.4418,1.4919,1.5559,1.6272,1.683,1.7382,1.7784,1.793,1.8008,1.8008,1.8008,1.8008,1.8008,1.8008,1.8008,1.8076,1.8202,1.8472,1.8931,1.9901,2.0869,2.1388,2.2285,2.2909,2.3078,2.3125,2.3125,2.3125,2.3125,2.3025,2.2774,2.2571,2.2401,2.2214,2.2205,2.2098,2.1951,2.2373,2.2739,2.2598,2.2692,2.2902,2.3068,2.3215,2.3451,2.404,2.4428,2.5008,2.602,2.6693,2.7031,2.738,2.723,2.6811,2.6826,2.7055,2.7018,2.6985,2.7281,2.7194,2.6811,2.6764,2.6871,2.7007,2.7326,2.7908,2.851,2.9058,2.9524,0.0269,0.0718,0.1166,0.2152,0.3406,0.3585,0.3944,0.4389,0.4748,0.5013,0.528,0.5463,0.5555,0.5733,0.6083,0.6254,0.6428,0.67,0.6969,0.7051,0.7139,0.7139,0.7139,0.7404,0.8105,0.9061,0.9497,1.0453,1.1929,1.2277,1.2796,1.3392,1.3737,1.3833,1.3834,1.3975,1.3874,1.3594,1.3601,1.3473,1.332,1.2959,1.2822,1.2858,1.3061,1.3499,1.4057,1.4768,1.5409,1.6132,1.689,1.752,1.794,1.8008,1.8008,1.8008,1.8008,1.8008,1.8008,1.8008,1.8008,1.8008,1.8008,1.8269,1.8798,1.9584,2.0484,2.1325,2.2223,2.28,2.3017,2.3125,2.3125,2.3125,2.3125,2.3125,2.3037,2.246,2.2171,2.2166,2.2192,2.2062,2.1954,2.207,2.2504,2.2301,2.2491,2.2689,2.2946,2.3225,2.3725,2.4315,2.4905,2.5648,2.6485,2.6881,2.7121,2.7365,2.75,2.7021,2.6703,2.7171,2.736,2.6834,2.6886,2.6382,2.598,2.6149,2.6286,2.6329,2.651,2.7404,2.8239,2.8782,2.9167,0.0269,0.0718,0.1256,0.2152,0.3226,0.3496,0.4034,0.4661,0.4924,0.5191,0.5555,0.5644,0.5644,0.5819,0.6169,0.634,0.6517,0.6874,0.7054,0.7139,0.7139,0.7139,0.7139,0.7669,0.8368,0.9148,0.9767,1.0722,1.1843,1.2015,1.2443,1.3228,1.3398,1.3652,1.3964,1.4088,1.4068,1.3981,1.3794,1.3687,1.3641,1.314,1.2812,1.2869,1.3198,1.3601,1.4057,1.476,1.548,1.6272,1.7047,1.7598,1.794,1.8008,1.8008,1.8008,1.8008,1.8008,1.8008,1.8008,1.8008,1.8008,1.8008,1.8269,1.8875,1.9594,2.0495,2.1451,2.2173,2.2739,2.3017,2.3125,2.3125,2.3125,2.3125,2.3125,2.299,2.2272,2.2121,2.2241,2.1827,2.1432,2.1549,2.1669,2.1771,2.1773,2.2152,2.2537,2.2861,2.3346,2.4047,2.4728,2.5336,2.5967,2.6686,2.7054,2.728,2.741,2.753,2.7156,2.6692,2.7085,2.721,2.6728,2.6367,2.5737,2.5318,2.5456,2.561,2.5716,2.6282,2.7239,2.7872,2.8342,2.8506,0.0538,0.0807,0.1795,0.2691,0.3406,0.3585,0.4036,0.4661,0.4924,0.5198,0.5466,0.5644,0.5749,0.5735,0.6174,0.6428,0.6526,0.6874,0.7139,0.7139,0.7139,0.7139,0.7139,0.7316,0.8017,0.9061,0.9497,1.0197,1.1424,1.1849,1.2277,1.2875,1.3222,1.3652,1.4004,1.4088,1.4088,1.4088,1.4021,1.3961,1.3901,1.3594,1.33,1.3151,1.3777,1.4096,1.424,1.5267,1.6123,1.67,1.7028,1.752,1.794,1.8008,1.8008,1.8008,1.8008,1.8008,1.8008,1.8008,1.8008,1.8008,1.8008,1.8405,1.9274,1.9605,2.0506,2.16,2.2247,2.2555,2.2957,2.3125,2.3125,2.3125,2.3125,2.3125,2.3075,2.2912,2.2774,2.2836,2.2955,2.2575,2.2133,2.2194,2.2355,2.1876,2.2127,2.2723,2.3116,2.3429,2.4123,2.4956,2.5623,2.6197,2.671,2.7157,2.7408,2.753,2.7455,2.7245,2.6861,2.6744,2.6615,2.6228,2.6199,2.578,2.501,2.4656,2.4841,2.5164,2.5885,2.6776,2.7225,2.7654,2.7759,0.0897,0.1076,0.2064,0.2962,0.3587,0.3587,0.4034,0.4755,0.497,0.5257,0.5631,0.5769,0.588,0.588,0.6277,0.652,0.6511,0.69,0.7139,0.7139,0.7139,0.7139,0.7139,0.7139,0.7841,0.9061,0.9148,1.0024,1.117,1.1602,1.202,1.2619,1.296,1.3483,1.4088,1.4088,1.4088,1.4088,1.4088,1.4088,1.4062,1.3801,1.3743,1.3819,1.4403,1.4764,1.513,1.6082,1.6731,1.7024,1.7245,1.752,1.794,1.8008,1.8008,1.8008,1.8008,1.8008,1.8008,1.8008,1.8008,1.8008,1.8008,1.8539,1.9274,1.9615,2.0324,2.1862,2.2123,2.2494,2.2957,2.3125,2.3125,2.3125,2.3125,2.3125,2.3125,2.3113,2.3125,2.3135,2.3052,2.2994,2.2196,2.2456,2.2165,2.1934,2.2249,2.2893,2.345,2.3774,2.4312,2.5247,2.5923,2.6418,2.6791,2.7144,2.7386,2.7524,2.7515,2.729,2.718,2.6856,2.6622,2.6443,2.6198,2.5718,2.4948,2.4436,2.4555,2.5002,2.5636,2.6238,2.6808,2.741,2.7413,0.1166,0.1436,0.2243,0.2962,0.3587,0.3676,0.4131,0.4959,0.5122,0.5445,0.5844,0.6034,0.6048,0.6172,0.642,0.6648,0.6624,0.6966,0.7078,0.7156,0.7163,0.7173,0.7139,0.7139,0.7925,0.8973,0.9148,1.0028,1.0997,1.1354,1.186,1.2534,1.2796,1.3228,1.3913,1.4088,1.4088,1.4088,1.4088,1.4088,1.4055,1.3861,1.3933,1.4415,1.4937,1.5583,1.6235,1.6773,1.6965,1.726,1.742,1.7666,1.794,1.8008,1.8008,1.8008,1.8008,1.8008,1.8008,1.8008,1.8008,1.8008,1.8008,1.8482,1.9351,1.9615,2.0313,2.1987,2.2197,2.2494,2.2957,2.3125,2.3125,2.3125,2.3125,2.3125,2.3125,2.3125,2.3125,2.3113,2.2686,2.246,2.2185,2.1827,2.1458,2.1733,2.2291,2.3154,2.3836,2.4402,2.4997,2.5792,2.6294,2.6651,2.6923,2.7167,2.7335,2.7473,2.7575,2.752,2.7705,2.744,2.7145,2.6888,2.6657,2.5949,2.4918,2.4621,2.4642,2.5076,2.5852,2.6282,2.6698,2.7361,2.7661,0.1346,0.1525,0.2601,0.3229,0.3587,0.3767,0.4342,0.5134,0.5163,0.5508,0.5943,0.6078,0.6094,0.6189,0.6532,0.6743,0.6664,0.7063,0.7265,0.716,0.7278,0.7238,0.717,0.7149,0.7933,0.8886,0.9148,0.9941,1.1003,1.1527,1.1952,1.2619,1.2966,1.3398,1.4004,1.4088,1.4088,1.4088,1.4088,1.4088,1.4088,1.4015,1.4186,1.4691,1.542,1.6209,1.6813,1.6931,1.7171,1.7463,1.7599,1.7646,1.7803,1.793,1.8008,1.8008,1.8008,1.8008,1.8008,1.8008,1.8008,1.8008,1.8076,1.8472,1.9417,1.9605,2.0377,2.1612,2.2123,2.2482,2.2957,2.3065,2.3125,2.3125,2.3125,2.3125,2.3125,2.3125,2.3125,2.3027,2.2952,2.2799,2.2372,2.2107,2.1815,2.1742,2.2404,2.3386,2.4283,2.5078,2.5662,2.63,2.6381,2.6651,2.693,2.7144,2.7284,2.7437,2.7524,2.7675,2.7875,2.7883,2.7542,2.7316,2.7164,2.6212,2.5087,2.4987,2.5056,2.5586,2.6081,2.6576,2.7084,2.7562,2.7948,0.1346,0.1884,0.2778,0.3317,0.3681,0.3987,0.4576,0.5187,0.5467,0.5728,0.6077,0.6222,0.6346,0.644,0.6675,0.6792,0.701,0.7316,0.7441,0.7387,0.7441,0.7573,0.7725,0.7771,0.8282,0.917,0.9584,1.0381,1.1084,1.1613,1.2037,1.2705,1.2966,1.3483,1.4004,1.4088,1.4088,1.4088,1.4088,1.4088,1.4088,1.4082,1.4622,1.5405,1.6317,1.713,1.7397,1.761,1.7694,1.7888,1.7911,1.7858,1.7823,1.793,1.8008,1.8008,1.8008,1.8008,1.8008,1.8008,1.8008,1.8008,1.8076,1.8607,1.9264,1.9594,2.0366,2.1411,2.1987,2.242,2.2957,2.3078,2.3065,2.3125,2.3125,2.3125,2.3125,2.3125,2.3125,2.3125,2.3113,2.2987,2.2799,2.2419,2.2061,2.1886,2.2815,2.3858,2.5397,2.611,2.6191,2.6504,2.6402,2.6541,2.6916,2.7144,2.7299,2.7437,2.7539,2.769,2.794,2.7898,2.7811,2.759,2.7303,2.6366,2.5441,2.5435,2.5412,2.5613,2.6078,2.6853,2.738,2.7627,2.7999,0.1346,0.2334,0.2959,0.3411,0.3704,0.431,0.4824,0.5256,0.5691,0.6058,0.6298,0.6385,0.6473,0.6702,0.6692,0.6943,0.7382,0.7465,0.7553,0.7556,0.7604,0.7909,0.8264,0.8611,0.9013,0.9517,0.9965,1.0651,1.1257,1.1607,1.2123,1.2711,1.3052,1.3483,1.3997,1.4088,1.4088,1.4088,1.4088,1.4088,1.4088,1.4173,1.4727,1.5928,1.7203,1.7888,1.7987,1.8217,1.837,1.8257,1.8398,1.8392,1.8232,1.8037,1.8008,1.8008,1.8008,1.8008,1.8008,1.8008,1.8008,1.8008,1.8202,1.8539,1.9065,1.9715,2.0431,2.1198,2.1913,2.2482,2.2909,2.3017,2.3065,2.3125,2.3125,2.3125,2.3125,2.3125,2.3125,2.3125,2.3138,2.3182,2.3022,2.2738,2.2344,2.2257,2.3218,2.4333,2.5883,2.677,2.6721,2.6678,2.6591,2.6547,2.6841,2.7093,2.7299,2.7335,2.7488,2.769,2.7955,2.7959,2.7856,2.7684,2.7257,2.6518,2.6008,2.5877,2.5812,2.5734,2.6075,2.6851,2.7271,2.7582,2.8047,0.1705,0.2513,0.3229,0.3622,0.377,0.4434,0.4993,0.5422,0.5759,0.6124,0.6391,0.6336,0.6468,0.6787,0.67,0.7136,0.7704,0.7712,0.7638,0.7655,0.7719,0.8076,0.8808,0.9324,0.9957,1.0414,1.0608,1.0855,1.1543,1.1871,1.2295,1.2881,1.3222,1.3568,1.3997,1.4088,1.4088,1.4088,1.4088,1.4088,1.4088,1.4334,1.4908,1.6221,1.761,1.831,1.8532,1.8587,1.8755,1.9033,1.8972,1.8971,1.8864,1.8437,1.8144,1.8105,1.8086,1.8086,1.8086,1.8018,1.8008,1.8008,1.8212,1.8529,1.9131,1.9715,2.0484,2.1262,2.2099,2.2739,2.3017,2.3078,2.3065,2.3125,2.3125,2.3125,2.3125,2.3125,2.3138,2.3138,2.3258,2.3305,2.3157,2.309,2.2904,2.2924,2.3662,2.469,2.5929,2.6601,2.6765,2.6765,2.675,2.675,2.6832,2.7041,2.7233,2.7284,2.7437,2.769,2.784,2.7955,2.792,2.7869,2.7811,2.7457,2.6995,2.6419,2.645,2.6545,2.6729,2.6912,2.7488,2.7997,2.809,0.2063,0.278,0.3318,0.3721,0.4068,0.4769,0.5249,0.5579,0.5932,0.6283,0.6307,0.6382,0.658,0.691,0.7081,0.7438,0.7805,0.7868,0.7828,0.7851,0.7889,0.8523,0.9329,0.9888,1.0637,1.1268,1.1337,1.1345,1.186,1.1922,1.2392,1.2966,1.3313,1.3652,1.3997,1.4088,1.4088,1.4088,1.4088,1.4082,1.425,1.4664,1.5726,1.6788,1.77,1.8442,1.8807,1.9104,1.9269,1.9495,1.9468,1.9509,1.9434,1.9102,1.8672,1.8643,1.8457,1.833,1.8271,1.8164,1.8076,1.8144,1.8347,1.8741,1.933,1.9987,2.0752,2.1651,2.2161,2.28,2.2969,2.3078,2.3065,2.3125,2.3125,2.3125,2.3125,2.3125,2.3138,2.3198,2.333,2.3365,2.3408,2.3366,2.336,2.3698,2.4244,2.5108,2.6076,2.6469,2.6794,2.6794,2.6794,2.6794,2.6794,2.6989,2.7144,2.7181,2.7386,2.764,2.784,2.794,2.8152,2.824,2.8181,2.7965,2.7442,2.6762,2.7056,2.7273,2.7241,2.7364,2.7998,2.8396,2.8411,0.2332,0.2957,0.3408,0.372,0.4164,0.5,0.5387,0.5591,0.6088,0.6431,0.6434,0.6506,0.6702,0.7132,0.7441,0.7736,0.8038,0.8024,0.8014,0.8011,0.8018,0.8739,0.9728,1.0245,1.0782,1.1984,1.1999,1.2104,1.207,1.2146,1.2478,1.3058,1.3313,1.3652,1.3997,1.4088,1.4088,1.4166,1.4173,1.4166,1.4496,1.5318,1.6378,1.7277,1.7942,1.8523,1.8913,1.9362,1.9668,1.9818,1.9937,2.0039,1.999,1.9727,1.9551,1.9463,1.9053,1.8828,1.8672,1.8458,1.834,1.8478,1.8532,1.8962,1.9605,2.0366,2.1262,2.2235,2.2616,2.2787,2.2969,2.3017,2.3065,2.3125,2.3125,2.3125,2.3125,2.3138,2.3198,2.3271,2.339,2.3484,2.3564,2.3794,2.3785,2.4129,2.4681,2.5162,2.6046,2.6533,2.6794,2.6794,2.6794,2.6794,2.6846,2.6899,2.7055,2.7107,2.7335,2.764,2.784,2.7989,2.8186,2.8348,2.8196,2.7919,2.7473,2.7211,2.7396,2.7535,2.7504,2.7736,2.8213,2.8396,2.8411,0.2603,0.2963,0.3408,0.3631,0.3894,0.4911,0.5487,0.5598,0.6093,0.6437,0.6429,0.664,0.6851,0.722,0.7739,0.7939,0.8038,0.8038,0.8038,0.8038,0.8038,0.8817,1.0173,1.0373,1.1298,1.2416,1.2466,1.2361,1.2337,1.2348,1.2717,1.3228,1.3398,1.3659,1.4082,1.4088,1.4159,1.4321,1.4321,1.4489,1.4741,1.5235,1.6049,1.687,1.7619,1.8442,1.8993,1.9548,1.9863,1.9942,2.0294,2.0478,2.0478,2.0536,2.042,2.0185,1.9746,1.9209,1.915,1.8951,1.8765,1.8834,1.8889,1.907,1.9846,2.0805,2.1765,2.2567,2.28,2.2909,2.3017,2.3078,2.3125,2.3125,2.3125,2.3125,2.3125,2.3138,2.321,2.339,2.345,2.3641,2.3806,2.4047,2.4284,2.4711,2.5077,2.555,2.5988,2.6447,2.6794,2.6794,2.6794,2.6794,2.6794,2.6899,2.6966,2.6966,2.7365,2.7705,2.7825,2.7974,2.8235,2.8301,2.8181,2.8134,2.795,2.7843,2.7797,2.7781,2.7812,2.8013,2.8273,2.8381,2.8427,0.2693,0.3141,0.3497,0.3746,0.4135,0.5029,0.5422,0.5657,0.6116,0.6437,0.6431,0.6691,0.6994,0.7437,0.7839,0.8038,0.8038,0.8038,0.8038,0.8038,0.8137,0.8928,1.0113,1.0507,1.1292,1.2571,1.2897,1.2865,1.2759,1.2679,1.2881,1.3313,1.3483,1.3737,1.4088,1.4088,1.4243,1.4398,1.4559,1.4817,1.5235,1.565,1.6312,1.7367,1.7951,1.8514,1.9073,1.9469,1.9784,1.9951,2.0255,2.0498,2.0566,2.0557,2.0557,2.0527,2.0254,1.9912,1.9639,1.9446,1.9412,1.9475,1.9599,1.998,2.0607,2.1411,2.2111,2.2616,2.2739,2.2909,2.3078,2.3065,2.3125,2.3125,2.3125,2.3125,2.3138,2.3138,2.321,2.339,2.3595,2.3811,2.4086,2.4308,2.4456,2.4744,2.5143,2.5592,2.599,2.6447,2.6674,2.6794,2.6794,2.6794,2.6794,2.6846,2.689,2.701,2.7542,2.7765,2.779,2.7974,2.8483,2.8583,2.8477,2.8462,2.8475,2.8321,2.8121,2.8151,2.8213,2.8398,2.8568,2.8521,2.8757,0.2871,0.3226,0.3496,0.3755,0.416,0.5034,0.5427,0.5589,0.6124,0.6437,0.6537,0.6734,0.7238,0.7646,0.7942,0.8038,0.8038,0.8038,0.8038,0.8038,0.8336,0.9126,1.0113,1.0605,1.1585,1.3141,1.3059,1.3078,1.3056,1.2997,1.3145,1.3404,1.3476,1.3822,1.4004,1.4166,1.4321,1.4657,1.4741,1.5075,1.5567,1.5733,1.6648,1.7546,1.8193,1.8585,1.9222,1.9469,1.9715,1.9942,2.0177,2.042,2.0566,2.0576,2.0576,2.0644,2.0526,2.0438,2.02,2.0024,1.9942,2.0186,2.0614,2.104,2.1445,2.2115,2.2456,2.2714,2.2787,2.2909,2.3017,2.3125,2.3125,2.3125,2.3125,2.3125,2.3138,2.3248,2.3296,2.345,2.3739,2.4059,2.4321,2.4511,2.4686,2.4847,2.5165,2.5674,2.6187,2.6705,2.678,2.6982,2.6866,2.6866,2.6866,2.6866,2.6895,2.7267,2.775,2.8207,2.8459,2.8824,2.9376,2.9239,2.8991,2.9224,2.9549,2.9005,2.8444,2.8444,2.8475,2.8724,2.8881,2.8832,2.9211,0.2962,0.3226,0.3496,0.3636,0.3907,0.4915,0.5396,0.5529,0.6197,0.6426,0.652,0.6939,0.7437,0.7839,0.7942,0.8038,0.8038,0.8038,0.8038,0.8233,0.8825,0.9517,1.0306,1.1194,1.197,1.3011,1.3222,1.3164,1.3168,1.3416,1.3424,1.343,1.3502,1.3743,1.399,1.4328,1.4573,1.4915,1.5006,1.5242,1.5575,1.5816,1.6304,1.7448,1.7861,1.8264,1.9222,1.9469,1.9715,1.9854,2.0098,2.0411,2.0566,2.0566,2.0576,2.0654,2.0741,2.076,2.0668,2.0581,2.0595,2.0928,2.1555,2.2117,2.2297,2.2971,2.3168,2.2936,2.3121,2.3131,2.319,2.315,2.3263,2.3125,2.3138,2.3138,2.3248,2.3409,2.3517,2.3607,2.3909,2.4268,2.4478,2.4641,2.5169,2.54,2.5877,2.6339,2.6807,2.7238,2.7184,2.7229,2.7026,2.6982,2.6997,2.7142,2.7549,2.8008,2.8509,2.9027,2.9456,2.9889,3.0149,3.0211,3.0055,3.0335,3.0413,2.9772,2.9177,2.8817,2.8832,2.9348,2.9803,3.0055,3.0357,0.3048,0.3315,0.3587,0.3839,0.4051,0.5029,0.5425,0.5654,0.615,0.6527,0.6825,0.7298,0.764,0.7939,0.8038,0.8038,0.8038,0.8038,0.8038,0.8233,0.8825,0.9616,1.0502,1.1487,1.2365,1.3221,1.3504,1.3632,1.3668,1.375,1.3754,1.3679,1.3592,1.3756,1.4075,1.4405,1.4741,1.4999,1.5257,1.5416,1.565,1.6154,1.664,1.7529,1.8201,1.8594,1.9222,1.939,1.9627,1.9872,2.0029,2.0274,2.0586,2.0586,2.0596,2.0654,2.0819,2.0906,2.0974,2.108,2.136,2.2064,2.27,2.3177,2.31,2.3525,2.3725,2.3671,2.3714,2.3704,2.369,2.3665,2.3615,2.3288,2.3163,2.3201,2.3435,2.3659,2.3905,2.4086,2.4253,2.457,2.4701,2.4802,2.5394,2.5995,2.654,2.702,2.7426,2.7796,2.7746,2.7781,2.7636,2.7665,2.7708,2.7984,2.8359,2.8807,2.9307,2.9831,3.0296,3.0521,3.077,3.0876,3.0967,3.1033,3.0876,3.0404,3.0042,2.9738,2.9863,3.0223,3.0666,3.1142,3.1483,0.3136,0.3406,0.3765,0.4027,0.4238,0.5,0.5379,0.5611,0.6052,0.6526,0.7136,0.7442,0.7707,0.7925,0.8038,0.8038,0.8038,0.8038,0.8134,0.863,0.9221,1.001,1.09,1.178,1.2759,1.3426,1.3622,1.3755,1.3876,1.4106,1.3941,1.3843,1.3885,1.4038,1.4237,1.458,1.4915,1.5173,1.5423,1.5582,1.5899,1.6484,1.7057,1.7781,1.8371,1.8843,1.9143,1.9301,1.9539,1.9831,2.0036,2.0292,2.0517,2.0664,2.0674,2.0693,2.0809,2.0984,2.1128,2.1614,2.2254,2.2961,2.3624,2.3943,2.401,2.4056,2.4171,2.4214,2.4292,2.4335,2.4154,2.4067,2.3879,2.3577,2.354,2.3577,2.3838,2.4101,2.4397,2.4606,2.4914,2.5266,2.5839,2.5968,2.6076,2.6715,2.7267,2.7694,2.7945,2.8225,2.8309,2.8349,2.8405,2.8492,2.8623,2.8853,2.9141,2.9484,3.0007,3.0613,3.1052,3.127,3.1593,3.1954,3.1934,3.1683,3.162,3.1671,3.1271,3.0744,3.0982,3.117,3.1809,3.2222,3.2404,0.3406,0.3587,0.3857,0.3993,0.4248,0.4899,0.5244,0.5458,0.5923,0.653,0.709,0.7333,0.7615,0.7898,0.8018,0.8038,0.8038,0.8038,0.8333,0.9023,0.9674,1.0685,1.157,1.2441,1.3097,1.3369,1.3631,1.3778,1.39,1.4038,1.3988,1.3969,1.4043,1.4275,1.4412,1.4824,1.5173,1.5423,1.5582,1.5824,1.6162,1.682,1.7465,1.804,1.8523,1.9002,1.9231,1.9381,1.9576,2.0004,2.0315,2.0464,2.0644,2.0918,2.0869,2.0683,2.0974,2.1128,2.1282,2.2111,2.2872,2.3638,2.4209,2.4613,2.4558,2.4619,2.4737,2.4676,2.4612,2.4685,2.4516,2.4406,2.4217,2.4017,2.3991,2.4066,2.4343,2.4747,2.5088,2.5296,2.5778,2.6357,2.6987,2.7404,2.7166,2.7503,2.8074,2.8358,2.8493,2.8621,2.8757,2.9131,2.9232,2.9218,2.9391,2.9652,2.9913,3.0275,3.069,3.1298,3.189,3.2273,3.2662,3.2951,3.2846,3.2462,3.2798,3.3166,3.241,3.1757,3.1903,3.2206,3.283,3.3135,3.3092,0.3587,0.3765,0.4032,0.4318,0.4533,0.4959,0.5229,0.5412,0.6178,0.6629,0.691,0.7419,0.7734,0.7902,0.7997,0.8038,0.8038,0.8038,0.8432,0.9201,0.9909,1.071,1.1599,1.2624,1.329,1.3527,1.3673,1.377,1.39,1.4087,1.4096,1.3995,1.4249,1.4508,1.4678,1.4915,1.5173,1.5423,1.5582,1.5906,1.6484,1.7139,1.7789,1.8442,1.8843,1.9152,1.9469,1.9469,1.9799,2.0267,2.0509,2.0632,2.083,2.1035,2.084,2.0839,2.1138,2.1502,2.1883,2.2628,2.315,2.3897,2.4599,2.5016,2.5059,2.5117,2.5135,2.5301,2.529,2.5289,2.5294,2.5222,2.5008,2.4632,2.4544,2.4722,2.4989,2.5512,2.5897,2.6007,2.636,2.6623,2.7144,2.7507,2.7409,2.7468,2.7884,2.8633,2.897,2.9061,2.9202,2.9811,3.0103,3.0016,3.0075,3.0207,3.0527,3.0832,3.1321,3.1946,3.2501,3.2958,3.3049,3.3077,3.3193,3.3293,3.3293,3.3277,3.3082,3.2846,3.2699,3.2683,3.3019,3.323,3.323,0.3765,0.3857,0.4123,0.4478,0.4759,0.4996,0.525,0.5676,0.6328,0.6667,0.6971,0.7445,0.7773,0.7845,0.796,0.8038,0.8038,0.8333,0.8758,0.9531,1.0263,1.1139,1.2081,1.278,1.3171,1.3483,1.3566,1.364,1.3915,1.4207,1.4321,1.4342,1.4555,1.4706,1.4908,1.5082,1.5333,1.5506,1.5748,1.6154,1.6812,1.7465,1.8031,1.8612,1.9011,1.939,1.9557,1.9683,1.9916,2.0394,2.0671,2.0672,2.0918,2.1066,2.0927,2.1043,2.1282,2.1731,2.2252,2.3075,2.3519,2.397,2.4754,2.5111,2.5241,2.5252,2.5487,2.5697,2.591,2.5921,2.587,2.5837,2.5485,2.5096,2.5161,2.5344,2.5588,2.6101,2.6687,2.6801,2.696,2.7158,2.7174,2.7309,2.7471,2.7557,2.7666,2.8497,2.9265,2.9348,2.9533,3.0144,3.0524,3.0379,3.0454,3.0646,3.0984,3.1407,3.1879,3.2342,3.2687,3.3043,3.3096,3.315,3.3256,3.3293,3.3293,3.3245,3.313,3.3114,3.3061,3.3145,3.3293,3.3293,3.3293,0.3946,0.3946,0.4212,0.4478,0.475,0.502,0.5471,0.6091,0.6358,0.6607,0.7011,0.7423,0.7655,0.7804,0.7946,0.7997,0.8086,0.8674,0.9263,0.9983,1.0756,1.1733,1.2457,1.2946,1.3333,1.3356,1.3429,1.3644,1.3826,1.3907,1.4187,1.4642,1.4718,1.486,1.5082,1.5333,1.5499,1.5665,1.5997,1.6484,1.7139,1.7627,1.8193,1.8763,1.9161,1.9469,1.9636,1.9743,2.0017,2.0378,2.069,2.0879,2.1066,2.1323,2.1252,2.1413,2.1589,2.1959,2.2478,2.3298,2.3824,2.4127,2.4574,2.4909,2.517,2.5312,2.5535,2.5758,2.598,2.6188,2.6308,2.605,2.5737,2.5703,2.5769,2.594,2.6123,2.6631,2.7248,2.7604,2.7809,2.788,2.7791,2.7805,2.7642,2.7707,2.7872,2.8419,2.912,2.9428,2.968,3.0319,3.0568,3.0628,3.0702,3.0881,3.1161,3.1495,3.2007,3.2453,3.2812,3.3043,3.315,3.3203,3.324,3.3293,3.3293,3.3293,3.3277,3.324,3.324,3.3256,3.3309,3.3256,3.324,0.3946,0.3946,0.4393,0.4746,0.5013,0.5547,0.5902,0.6083,0.6343,0.6554,0.6866,0.7279,0.7529,0.7662,0.7709,0.779,0.8093,0.8534,0.9214,0.9965,1.0891,1.1775,1.251,1.3008,1.3397,1.3561,1.3693,1.3555,1.3762,1.3739,1.4269,1.4954,1.4874,1.5104,1.5325,1.5582,1.5658,1.5824,1.6154,1.6812,1.7375,1.787,1.8434,1.8993,1.932,1.9557,1.9715,1.9951,2.0282,2.0837,2.083,2.1076,2.1806,2.157,2.1265,2.1619,2.1873,2.2176,2.2628,2.315,2.3677,2.42,2.4574,2.4909,2.517,2.5477,2.5654,2.5938,2.6091,2.6395,2.6496,2.6314,2.6088,2.6118,2.6253,2.6413,2.6652,2.7076,2.7656,2.8012,2.8179,2.8214,2.8102,2.8003,2.7841,2.7933,2.8167,2.8647,2.9054,2.9461,2.9856,3.0437,3.0642,3.0642,3.0762,3.0955,3.1219,3.161,3.2064,3.2453,3.2742,3.2973,3.315,3.3203,3.3256,3.3256,3.3293,3.3293,3.3293,3.3293,3.3309,3.3309,3.3256,3.3256,3.324,0.4123,0.4306,0.4659,0.4924,0.528,0.5816,0.6169,0.6257,0.6435,0.67,0.6897,0.7218,0.7421,0.7509,0.7584,0.7655,0.7808,0.8789,0.9469,0.9948,1.0993,1.2019,1.2772,1.3141,1.3453,1.3621,1.3673,1.362,1.378,1.4045,1.445,1.5057,1.4965,1.5347,1.5741,1.5906,1.5982,1.6147,1.6476,1.7139,1.7627,1.8112,1.8674,1.9143,1.9478,1.9715,1.9951,2.0186,2.0585,2.0947,2.0898,2.1183,2.185,2.1602,2.1763,2.206,2.2185,2.237,2.2703,2.3372,2.3813,2.4189,2.4694,2.504,2.5373,2.5671,2.5993,2.6233,2.6408,2.6582,2.6634,2.6684,2.6584,2.6496,2.6701,2.6837,2.7188,2.7456,2.7842,2.8143,2.8271,2.8346,2.8275,2.8112,2.8026,2.8056,2.8319,2.8876,2.9312,2.9734,3.0042,3.051,3.0628,3.0642,3.0836,3.1014,3.1292,3.161,3.2064,3.2453,3.2672,3.2958,3.3187,3.3203,3.3203,3.3256,3.3309,3.3309,3.3293,3.3309,3.3309,3.3256,3.3256,3.324,3.324,0.4459,0.4643,0.491,0.5176,0.5549,0.5994,0.6257,0.6428,0.67,0.6877,0.7081,0.7285,0.7353,0.7411,0.7468,0.7622,0.8102,0.8982,0.9574,0.9956,1.1544,1.2514,1.2774,1.3188,1.3446,1.3542,1.3595,1.3736,1.3848,1.4159,1.4587,1.509,1.5333,1.5658,1.6079,1.6229,1.6304,1.664,1.6968,1.7465,1.7959,1.8451,1.8851,1.9231,1.9469,1.9715,1.9951,2.0186,2.0508,2.0751,2.1063,2.1258,2.1788,2.1937,2.2257,2.2447,2.2529,2.2606,2.2927,2.3519,2.397,2.4406,2.4826,2.5182,2.5432,2.5778,2.6088,2.6267,2.6416,2.6627,2.6703,2.6716,2.6671,2.6782,2.6985,2.7188,2.7403,2.7736,2.8118,2.8352,2.8481,2.8478,2.8478,2.8329,2.8375,2.8274,2.8588,2.9161,2.9558,2.9949,3.0245,3.0568,3.0628,3.0702,3.0895,3.1073,3.1292,3.1625,3.2064,3.2398,3.2617,3.2904,3.3293,3.3256,3.3256,3.3256,3.3256,3.3309,3.3309,3.3309,3.3256,3.3203,3.3203,3.324,3.3293,0.4224,0.4546,0.4981,0.5463,0.5899,0.6257,0.6435,0.6704,0.6966,0.7054,0.7061,0.719,0.7265,0.7353,0.7385,0.7605,0.8303,0.9054,0.966,1.0375,1.1732,1.249,1.2618,1.3242,1.3516,1.3748,1.3827,1.3906,1.4075,1.4405,1.4824,1.509,1.5492,1.5899,1.6327,1.6394,1.6558,1.6886,1.7465,1.7708,1.804,1.8442,1.8843,1.9311,1.9548,1.9794,2.002,2.0333,2.0576,2.0926,2.141,2.2097,2.2991,2.2726,2.2776,2.3086,2.2821,2.2767,2.3075,2.3677,2.4116,2.4406,2.4826,2.5099,2.5443,2.5834,2.6061,2.6226,2.6474,2.6639,2.681,2.6891,2.6918,2.7053,2.7255,2.7456,2.7656,2.7987,2.8379,2.8457,2.8587,2.8587,2.8587,2.8624,2.8698,2.8848,2.9226,2.958,2.986,3.0225,3.0377,3.0628,3.0702,3.0836,3.1014,3.1132,3.1351,3.1625,3.2079,3.2287,3.2523,3.2904,3.3293,3.3293,3.3309,3.3309,3.3256,3.3309,3.3309,3.3309,3.3309,3.3256,3.3256,3.3293,3.3293,0.4352,0.4623,0.5266,0.567,0.6087,0.6407,0.67,0.6792,0.7051,0.7139,0.7139,0.7146,0.719,0.7358,0.7439,0.7698,0.8504,0.9301,0.9888,1.0656,1.1569,1.232,1.2756,1.3254,1.361,1.3873,1.4097,1.4243,1.4328,1.4741,1.5159,1.5416,1.5733,1.6147,1.6484,1.6558,1.6722,1.7057,1.7716,1.7959,1.8112,1.8594,1.8993,1.9381,1.9627,1.9863,2.002,2.0333,2.0731,2.1071,2.1649,2.2553,2.3035,2.2928,2.2945,2.3067,2.3026,2.2777,2.3183,2.3734,2.4258,2.4464,2.4921,2.5289,2.5467,2.5849,2.6564,2.6781,2.7229,2.7494,2.7569,2.7583,2.7293,2.7291,2.7496,2.7723,2.7987,2.8249,2.8444,2.8522,2.8587,2.8587,2.8587,2.8587,2.8675,2.8994,2.9415,2.984,3.0135,3.06,3.071,3.0848,3.1024,3.1043,3.1117,3.1249,3.1351,3.1697,3.2175,3.2514,3.2858,3.3096,3.3293,3.3293,3.3293,3.3309,3.3309,3.3293,3.3293,3.3309,3.3309,3.3309,3.3293,3.3293,3.3293,0.4575,0.4868,0.5537,0.5934,0.6055,0.6527,0.676,0.6854,0.7044,0.7139,0.7139,0.7139,0.7139,0.7316,0.7845,0.8113,0.864,0.9602,1.0314,1.1009,1.2042,1.2388,1.2913,1.3455,1.3761,1.4005,1.425,1.4398,1.4482,1.5061,1.5484,1.5816,1.6147,1.6476,1.6648,1.673,1.6812,1.7221,1.7716,1.8031,1.8434,1.8834,1.9143,1.946,1.9696,1.9863,2.002,2.0333,2.0819,2.1541,2.2149,2.2982,2.3356,2.3243,2.3399,2.3479,2.3297,2.3188,2.3457,2.4145,2.4328,2.458,2.5099,2.5504,2.5672,2.6177,2.6895,2.7408,2.7801,2.8015,2.802,2.8023,2.7692,2.7546,2.7788,2.8,2.8262,2.8471,2.8549,2.8627,2.8627,2.8627,2.875,2.8736,2.8944,2.9251,2.961,3.0029,3.0468,3.1094,3.1471,3.155,3.1687,3.1633,3.1501,3.1604,3.1752,3.2212,3.2697,3.294,3.3215,3.3502,3.3577,3.3293,3.3293,3.3293,3.3293,3.3293,3.3293,3.3293,3.3293,3.3293,3.3293,3.3293,3.3346,0.4678,0.5389,0.5496,0.5812,0.6257,0.656,0.6708,0.6903,0.7007,0.7139,0.7139,0.7139,0.7139,0.7139,0.7848,0.846,0.9152,1.0028,1.0646,1.1316,1.2146,1.2382,1.2813,1.355,1.3959,1.4166,1.4398,1.4482,1.481,1.5318,1.565,1.5816,1.6394,1.6648,1.6648,1.673,1.6976,1.7392,1.7789,1.8193,1.8825,1.9143,1.9213,1.946,1.9696,1.9863,2.0029,2.0508,2.1251,2.2012,2.2862,2.3679,2.3838,2.3649,2.3718,2.3916,2.3743,2.3721,2.4029,2.4774,2.5009,2.4791,2.5415,2.6117,2.636,2.6712,2.725,2.7592,2.7921,2.7919,2.8011,2.8092,2.7919,2.808,2.8237,2.8408,2.863,2.8722,2.8736,2.875,2.8763,2.898,2.9333,2.9454,2.9775,3.0145,3.0587,3.1019,3.1573,3.1927,3.2159,3.2225,3.2291,3.2313,3.2183,3.2273,3.2482,3.2916,3.3244,3.3356,3.3575,3.3936,3.3918,3.3467,3.3309,3.3293,3.3293,3.3293,3.3293,3.3293,3.3293,3.3293,3.3293,3.334,3.3425]},{"header":{"parameterUnit":"m.s-1","parameterCategory":1,"la1":31.0,"la2":29.5877,"lo1":-88.7671,"lo2":-86.6584,"dy":0.0162,"dx":0.0185,"nx":115,"ny":88,"refTime":"2024-02-17T06:00:00:Z","depth":0,"parameterNumber":3,"parameterNumberName":"V-component_of_WINDS"},"data":[0.0,0.0,0.0,0.0,0.0,0.0,0.0,0.0,0.0,0.0,0.0,0.0,0.0,0.0,0.0,0.0,0.0,0.0,0.0,0.0,0.0,0.0,0.0,0.0,0.0,0.0,0.0,0.0,0.0,0.0,0.0,0.0,0.0,0.0,0.0,0.0,0.0,0.0,0.0,0.0,0.0,0.0,0.0,0.0,0.0,0.0,0.0,0.0,0.0,0.0,0.0,0.0,0.0,0.0,0.0,0.0,0.0,0.0,0.0,0.0,0.0,0.0,0.0,0.0,0.0,0.0,0.0,0.0,0.0,0.0,0.0,0.0,0.0,0.0,0.0,0.0,0.0,0.0,0.0,0.0,0.0,0.0,0.0,0.0,0.0,0.0,0.0,0.0,0.0,0.0,0.0,0.0,0.0,0.0,0.0,0.0,0.0,0.0,0.0,0.0,0.0,0.0,0.0,0.0,0.0,0.0,0.0,0.0,0.0,0.0,0.0,0.0,0.0,0.0,0.0,0.0,0.0,0.0,0.0,0.0,0.0,0.0,0.0,0.0,0.0,0.0,0.0,0.0,0.0,0.0,0.0,0.0,0.0,0.0,0.0,0.0,0.0,0.0,0.0,0.0,0.0,0.0,0.0,0.0,0.0,0.0,0.0,0.0,0.0,0.0,0.0,0.0,0.0,0.0,0.0,0.0,0.0,0.0,0.0,0.0,0.0,0.0,0.0,0.0,0.0,0.0,0.0,0.0,0.0,0.0,0.0,0.0,0.0,0.0,0.0,0.0,0.0,0.0,0.0,0.0,0.0,0.0,0.0,0.0,0.0,0.0,0.0,0.0,0.0,0.0,0.0,0.0,0.0,0.0,0.0,0.0,0.0,0.0,0.0,0.0,0.0,0.0,0.0,0.0,0.0,0.0,0.0,0.0,0.0,0.0,0.0,0.0,0.0,0.0,0.0,0.0,0.0,0.0,0.0,0.0,0.0,0.0,0.0,0.0,0.0,0.0,0.0,0.0,0.0,0.0,0.0,0.0,0.0,0.0,0.0,0.0,0.0,0.0,0.0,0.0,0.0,0.0,0.0,0.0,0.0,0.0,0.0,0.0,0.0,0.0,0.0,0.0,0.0,0.0,0.0,0.0,0.0,0.0,0.0,0.0,0.0,0.0,0.0,0.0,0.0,0.0,0.0,0.0,0.0,0.0,0.0,0.0,0.0,0.0,0.0,0.0,0.0,0.0,0.0,0.0,0.0,0.0,0.0,0.0,0.0,0.0,0.0,0.0,0.0,0.0,0.0,0.0,0.0,0.0,0.0,0.0,0.0,0.0,0.0,0.0,0.0,0.0,0.0,0.0,0.0,0.0,0.0,0.0,0.0,0.0,0.0,0.0,0.0,0.0,0.0,0.0,0.0,0.0,0.0,0.0,0.0,0.0,0.0,0.0,0.0,0.0,0.0,0.0,0.0,0.0,0.0,0.0,0.0,0.0,0.0,0.0,0.0,0.0,0.0,0.0,0.0,0.0,0.0,0.0,0.0,0.0,0.0,0.0,0.0,0.0,0.0,0.0,0.0,0.0,0.0,0.0,0.0,0.0,0.0,0.0,0.0,0.0,0.0,0.0,0.0,0.0,0.0,0.0,0.0,0.0,0.0,0.0,0.0,0.0,0.0,0.0,0.0,0.0,0.0,0.0,0.0,0.0,0.0,0.0,0.0,0.0,0.0,0.0,0.0,0.0,0.0,0.0,0.0,0.0,0.0,0.0,0.0,0.0,0.0,0.0,0.0,0.0,0.0,0.0,0.0,0.0,0.0,0.0,0.0,0.0,0.0,0.0,0.0,0.0,0.0,0.0,0.0,0.0,0.0,0.0,0.0,0.0,0.0,0.0,0.0,0.0,0.0,0.0,0.0,0.0,0.0,0.0,0.0,0.0,0.0,0.0,0.0,0.0,0.0,0.0,0.0,0.0,0.0,0.0,0.0,0.0,0.0,0.0,0.0,0.0,0.0,0.0,0.0,0.0,0.0,0.0,0.0,0.0,0.0,0.0,0.0,0.0,0.0,0.0,0.0,0.0,0.0,0.0,0.0,0.0,0.0,0.0,0.0,0.0,0.0,0.0,0.0,0.0,0.0,0.0,0.0,0.0,0.0,0.0,0.0,0.0,0.0,0.0,0.0,0.0,0.0,0.0,0.0,0.0,0.0,0.0,0.0,0.0,0.0,0.0,0.0,0.0,0.0,0.0,0.0,0.0,0.0,0.0,0.0,0.0,0.0,0.0,0.0,0.0,0.0,0.0,0.0,0.0,0.0,0.0,0.0,0.0,0.0,0.0,0.0,0.0,0.0,0.0,0.0,0.0,0.0,0.0,0.0,0.0,0.0,0.0,0.0,0.0,0.0,0.0,0.0,0.0,0.0,0.0,0.0,0.0,0.0,0.0,0.0,0.0,0.0,0.0,0.0,0.0,0.0,0.0,0.0,0.0,0.0,0.0,0.0,0.0,0.0,0.0,0.0,0.0,0.0,0.0,0.0,0.0,0.0,0.0,0.0,0.0,0.0,0.0,0.0,0.0,0.0,0.0,0.0,0.0,0.0,0.0,0.0,0.0,0.0,0.0,0.0,0.0,0.0,0.0,0.0,0.0,0.0,0.0,0.0,0.0,0.0,0.0,0.0,0.0,0.0,0.0,0.0,0.0,0.0,0.0,0.0,0.0,0.0,0.0,0.0,0.0,0.0,0.0,0.0,0.0,0.0,0.0,0.0,0.0,0.0,0.0,0.0,0.0,0.0,0.0,0.0,0.0,0.0,0.0,0.0,0.0,0.0,0.0,0.0,0.0,0.0,0.0,0.0,0.0,0.0,0.0,0.0,0.0,0.0,0.0,0.0,0.0,0.0,0.0,0.0,0.0,0.0,0.0,0.0,0.0,0.0,0.0,0.0,0.0,0.0,0.0,0.0,0.0,0.0,0.0,0.0,0.0,0.0,0.0,0.0,0.0,0.0,0.0,0.0,0.0,0.0,0.0,0.0,0.0,0.0,0.0,0.0,0.0,0.0,0.0,0.0,0.0,0.0,0.0,0.0,0.0,0.0,0.0,0.0,0.0,0.0,0.0,0.0,0.0,0.0,0.0,0.0,0.0,0.0,0.0,0.0,0.0,0.0,0.0,0.0,0.0,0.0,0.0,0.0,0.0,0.0,0.0,0.0,0.0,0.0,0.0,0.0,0.0,0.0,0.0,0.0,0.0,0.0,0.0,0.0,0.0,0.0,0.0,0.0,0.0,0.0,0.0,0.0,0.0,0.0,0.0,0.0,0.0,0.0,0.0,0.0,0.0,0.0,0.0,0.0,0.0,0.0,0.0,0.0,0.0,0.0,0.0,0.0,0.0,0.0,0.0,0.0,0.0,0.0,0.0,0.0,0.0,0.0,0.0,0.0,0.0,0.0,0.0,0.0,0.0,0.0,0.0,0.0,0.0,0.0,0.0,0.0,0.0,0.0,0.0,0.0,0.0,0.0,0.0,0.0,0.0,0.0,0.0,0.0,0.0,0.0,0.0,0.0,0.0,0.0,0.0,0.0,0.0,0.0,0.0,0.0,0.0,0.0,0.0,0.0,0.0,0.0,0.0,0.0,0.0,0.0,0.0,0.0,0.0,0.0,0.0,0.0,0.0,0.0,0.0,0.0,0.0,0.0,0.0,0.0,0.0,0.0,0.0,0.0,0.0,0.0,0.0,0.0,0.0,0.0,0.0,0.0,0.0,0.0,0.0,0.0,0.0,0.0,0.0,0.0,0.0,0.0,0.0,0.0,0.0,0.0,0.0,0.0,0.0,0.0,0.0,0.0,0.0,0.0,0.0,0.0,0.0,0.0,0.0,0.0,0.0,0.0,0.0,0.0,0.0,0.0,0.0,0.0,0.0,0.0,0.0,0.0,0.0,0.0,0.0,0.0,0.0,0.0,0.0,0.0,0.0,0.0,0.0,0.0,0.0,0.0,0.0,0.0,0.0,0.0,0.0,0.0,0.0,0.0,0.0,0.0,0.0,0.0,0.0,0.0,0.0,0.0,0.0,0.0,0.0,0.0,0.0,0.0,0.0,0.0,0.0,0.0,0.0,0.0,0.0,0.0,0.0,0.0,0.0,0.0,0.0,0.0,0.0,0.0,0.0,0.0,0.0,0.0,0.0,0.0,0.0,0.0,0.0,0.0,0.0,0.0,0.0,0.0,0.0,0.0,0.0,0.0,0.0,0.0,0.0,0.0,0.0,0.0,0.0,0.0,0.0,0.0,0.0,-1.5127,0.0,0.0,0.0,0.0,0.0,0.0,0.0,0.0,0.0,0.0,0.0,0.0,0.0,0.0,0.0,0.0,0.0,0.0,0.0,0.0,0.0,0.0,0.0,0.0,0.0,0.0,0.0,0.0,0.0,0.0,0.0,0.0,0.0,0.0,0.0,0.0,0.0,0.0,0.0,0.0,0.0,0.0,0.0,0.0,0.0,0.0,0.0,0.0,0.0,0.0,0.0,0.0,0.0,0.0,0.0,0.0,0.0,0.0,0.0,0.0,0.0,0.0,0.0,0.0,0.0,0.0,0.0,0.0,0.0,0.0,0.0,0.0,0.0,0.0,0.0,0.0,0.0,0.0,0.0,0.0,0.0,0.0,0.0,0.0,0.0,0.0,0.0,0.0,0.0,0.0,0.0,0.0,0.0,0.0,0.0,0.0,0.0,0.0,0.0,0.0,0.0,0.0,0.0,0.0,0.0,0.0,0.0,0.0,0.0,0.0,-1.5195,-1.5133,-1.5101,-1.5068,-1.5083,0.0,0.0,0.0,0.0,0.0,0.0,0.0,0.0,0.0,0.0,0.0,0.0,0.0,0.0,0.0,0.0,0.0,0.0,0.0,0.0,0.0,0.0,0.0,0.0,0.0,0.0,0.0,0.0,0.0,0.0,0.0,0.0,0.0,0.0,0.0,0.0,0.0,0.0,0.0,0.0,0.0,0.0,0.0,0.0,0.0,0.0,0.0,0.0,0.0,0.0,0.0,0.0,0.0,0.0,0.0,0.0,0.0,0.0,0.0,0.0,0.0,0.0,0.0,0.0,0.0,0.0,0.0,0.0,0.0,0.0,0.0,0.0,0.0,0.0,0.0,0.0,0.0,0.0,0.0,0.0,0.0,0.0,0.0,0.0,0.0,0.0,0.0,0.0,0.0,0.0,0.0,0.0,0.0,0.0,0.0,0.0,0.0,0.0,0.0,0.0,0.0,0.0,0.0,0.0,0.0,0.0,0.0,0.0,0.0,0.0,0.0,0.0,-1.5278,-1.5345,-1.5543,0.0,0.0,0.0,0.0,0.0,0.0,0.0,0.0,0.0,0.0,0.0,0.0,0.0,0.0,0.0,0.0,0.0,0.0,0.0,0.0,0.0,0.0,0.0,0.0,0.0,0.0,0.0,0.0,0.0,0.0,0.0,0.0,0.0,0.0,0.0,0.0,0.0,0.0,0.0,0.0,0.0,0.0,0.0,0.0,0.0,0.0,0.0,0.0,0.0,0.0,0.0,0.0,0.0,0.0,0.0,0.0,0.0,0.0,0.0,0.0,0.0,0.0,0.0,0.0,0.0,0.0,0.0,0.0,0.0,0.0,0.0,0.0,0.0,0.0,0.0,0.0,0.0,0.0,0.0,0.0,0.0,0.0,0.0,0.0,0.0,0.0,0.0,0.0,0.0,0.0,0.0,0.0,0.0,0.0,0.0,0.0,0.0,0.0,0.0,0.0,0.0,0.0,0.0,0.0,0.0,0.0,0.0,0.0,0.0,0.0,-1.5353,-1.6077,-1.6025,0.0,-1.7026,0.0,0.0,0.0,0.0,0.0,0.0,0.0,0.0,0.0,0.0,0.0,0.0,0.0,0.0,0.0,0.0,0.0,0.0,0.0,0.0,0.0,0.0,0.0,0.0,0.0,0.0,0.0,0.0,0.0,0.0,0.0,0.0,0.0,0.0,0.0,0.0,0.0,0.0,0.0,0.0,0.0,0.0,0.0,0.0,0.0,0.0,0.0,0.0,0.0,0.0,0.0,0.0,0.0,0.0,0.0,0.0,0.0,0.0,0.0,0.0,0.0,0.0,0.0,0.0,0.0,0.0,0.0,0.0,0.0,0.0,0.0,0.0,0.0,0.0,0.0,0.0,0.0,0.0,0.0,0.0,0.0,0.0,0.0,0.0,0.0,0.0,0.0,0.0,0.0,0.0,0.0,0.0,0.0,0.0,0.0,0.0,0.0,0.0,0.0,0.0,0.0,0.0,0.0,0.0,0.0,0.0,0.0,0.0,0.0,0.0,-1.5325,-1.6111,-1.6082,-1.6383,0.0,0.0,0.0,0.0,0.0,0.0,0.0,0.0,0.0,0.0,0.0,0.0,0.0,0.0,0.0,0.0,0.0,0.0,0.0,0.0,0.0,0.0,0.0,0.0,0.0,0.0,0.0,0.0,0.0,0.0,0.0,0.0,0.0,0.0,0.0,0.0,0.0,0.0,0.0,0.0,0.0,0.0,0.0,0.0,0.0,0.0,0.0,0.0,0.0,0.0,0.0,0.0,0.0,0.0,0.0,0.0,0.0,0.0,0.0,0.0,0.0,0.0,0.0,0.0,0.0,0.0,0.0,0.0,0.0,0.0,0.0,0.0,0.0,0.0,0.0,0.0,0.0,0.0,0.0,0.0,0.0,0.0,0.0,0.0,0.0,0.0,0.0,0.0,0.0,0.0,0.0,0.0,0.0,0.0,0.0,0.0,0.0,0.0,0.0,0.0,0.0,0.0,0.0,0.0,0.0,0.0,0.0,0.0,0.0,0.0,-1.5383,-1.5593,-1.6345,-1.6306,-1.636,-1.6626,0.0,0.0,0.0,0.0,0.0,0.0,0.0,0.0,0.0,0.0,0.0,0.0,0.0,0.0,0.0,0.0,0.0,0.0,0.0,0.0,0.0,0.0,0.0,0.0,0.0,0.0,0.0,0.0,0.0,0.0,0.0,0.0,0.0,0.0,0.0,0.0,0.0,0.0,0.0,0.0,0.0,0.0,0.0,0.0,0.0,0.0,0.0,0.0,0.0,0.0,0.0,0.0,0.0,0.0,0.0,0.0,0.0,0.0,0.0,0.0,0.0,0.0,0.0,0.0,0.0,0.0,0.0,0.0,0.0,0.0,0.0,0.0,0.0,0.0,0.0,0.0,0.0,0.0,0.0,0.0,0.0,0.0,0.0,0.0,0.0,0.0,0.0,0.0,0.0,0.0,0.0,0.0,0.0,0.0,0.0,0.0,0.0,0.0,0.0,0.0,0.0,0.0,0.0,0.0,0.0,0.0,0.0,0.0,-1.715,-1.645,-1.638,-1.7109,-1.6972,-1.6502,0.0,0.0,0.0,0.0,0.0,0.0,0.0,0.0,0.0,0.0,0.0,0.0,0.0,0.0,0.0,0.0,0.0,0.0,0.0,0.0,0.0,0.0,0.0,0.0,0.0,0.0,0.0,0.0,0.0,0.0,0.0,0.0,0.0,0.0,0.0,0.0,0.0,0.0,0.0,0.0,0.0,0.0,0.0,0.0,0.0,0.0,0.0,0.0,0.0,0.0,0.0,0.0,0.0,0.0,0.0,0.0,0.0,0.0,0.0,0.0,0.0,0.0,0.0,0.0,0.0,0.0,0.0,0.0,0.0,0.0,0.0,0.0,0.0,0.0,0.0,0.0,0.0,0.0,0.0,0.0,0.0,0.0,0.0,0.0,0.0,0.0,0.0,0.0,0.0,0.0,0.0,0.0,0.0,0.0,0.0,0.0,0.0,0.0,0.0,0.0,0.0,0.0,0.0,0.0,0.0,0.0,0.0,0.0,0.0,-1.5704,-1.5847,-1.6283,-1.7009,-1.6366,-1.6051,0.0,0.0,0.0,0.0,0.0,0.0,0.0,0.0,0.0,0.0,0.0,0.0,0.0,0.0,0.0,0.0,0.0,0.0,0.0,0.0,0.0,0.0,0.0,0.0,0.0,0.0,0.0,0.0,0.0,0.0,0.0,0.0,0.0,0.0,0.0,0.0,0.0,0.0,0.0,0.0,0.0,0.0,0.0,0.0,0.0,0.0,0.0,0.0,0.0,0.0,0.0,0.0,0.0,0.0,0.0,0.0,0.0,0.0,0.0,0.0,0.0,0.0,0.0,0.0,0.0,0.0,0.0,0.0,0.0,0.0,0.0,0.0,0.0,0.0,0.0,0.0,0.0,0.0,0.0,0.0,0.0,0.0,0.0,0.0,0.0,0.0,0.0,0.0,0.0,0.0,0.0,0.0,0.0,0.0,0.0,0.0,0.0,0.0,0.0,0.0,0.0,0.0,0.0,0.0,0.0,0.0,0.0,0.0,0.0,-1.5165,0.0,-1.6313,-1.6515,-1.6078,-1.576,0.0,0.0,0.0,0.0,0.0,0.0,0.0,0.0,0.0,0.0,0.0,0.0,0.0,0.0,0.0,0.0,0.0,0.0,0.0,0.0,0.0,0.0,0.0,0.0,0.0,0.0,0.0,0.0,0.0,0.0,0.0,0.0,0.0,0.0,0.0,0.0,0.0,0.0,0.0,0.0,0.0,0.0,0.0,0.0,0.0,0.0,0.0,0.0,0.0,0.0,0.0,0.0,0.0,0.0,0.0,0.0,0.0,0.0,0.0,0.0,0.0,0.0,0.0,0.0,0.0,0.0,0.0,0.0,0.0,0.0,0.0,0.0,0.0,0.0,0.0,0.0,0.0,0.0,0.0,0.0,0.0,0.0,0.0,0.0,0.0,0.0,0.0,0.0,0.0,0.0,0.0,0.0,0.0,0.0,0.0,0.0,0.0,0.0,0.0,0.0,0.0,0.0,0.0,0.0,0.0,0.0,0.0,0.0,-1.5078,-1.5837,-1.6553,-1.6507,-1.5681,-1.6124,-1.5653,0.0,0.0,0.0,0.0,0.0,0.0,0.0,0.0,0.0,0.0,0.0,0.0,0.0,0.0,0.0,0.0,0.0,0.0,0.0,0.0,0.0,0.0,0.0,0.0,0.0,0.0,0.0,0.0,0.0,0.0,0.0,0.0,0.0,0.0,0.0,0.0,0.0,0.0,0.0,0.0,0.0,0.0,0.0,0.0,0.0,0.0,0.0,0.0,0.0,0.0,0.0,0.0,0.0,0.0,0.0,0.0,0.0,0.0,0.0,0.0,0.0,0.0,0.0,0.0,0.0,0.0,0.0,0.0,0.0,0.0,0.0,0.0,0.0,0.0,0.0,0.0,0.0,0.0,0.0,0.0,0.0,0.0,0.0,0.0,0.0,0.0,0.0,0.0,0.0,0.0,0.0,0.0,0.0,0.0,0.0,0.0,0.0,0.0,0.0,0.0,0.0,0.0,0.0,0.0,0.0,0.0,0.0,0.0,0.0,-1.497,-1.5643,-1.6127,-1.6229,-1.53,-1.5023,0.0,0.0,0.0,0.0,0.0,0.0,0.0,0.0,0.0,0.0,0.0,0.0,0.0,0.0,0.0,0.0,0.0,0.0,0.0,0.0,0.0,0.0,0.0,0.0,0.0,0.0,0.0,0.0,0.0,0.0,0.0,0.0,0.0,0.0,0.0,0.0,0.0,0.0,0.0,0.0,0.0,0.0,0.0,0.0,0.0,0.0,0.0,0.0,0.0,0.0,0.0,0.0,0.0,0.0,0.0,0.0,0.0,0.0,0.0,0.0,0.0,0.0,0.0,0.0,0.0,0.0,0.0,0.0,0.0,0.0,0.0,0.0,0.0,0.0,0.0,0.0,0.0,0.0,0.0,0.0,0.0,0.0,0.0,0.0,0.0,0.0,0.0,0.0,0.0,0.0,0.0,0.0,0.0,0.0,0.0,0.0,0.0,0.0,0.0,0.0,0.0,0.0,0.0,0.0,0.0,0.0,0.0,0.0,0.0,-1.546,-1.6138,-1.6556,-1.6616,-1.5803,-1.5613,-1.6184,0.0,0.0,0.0,0.0,0.0,0.0,0.0,0.0,0.0,0.0,0.0,0.0,0.0,0.0,0.0,0.0,0.0,0.0,0.0,0.0,0.0,0.0,0.0,0.0,0.0,0.0,0.0,0.0,0.0,0.0,0.0,0.0,0.0,0.0,0.0,0.0,0.0,0.0,0.0,0.0,0.0,0.0,0.0,0.0,0.0,0.0,0.0,0.0,0.0,0.0,0.0,0.0,0.0,0.0,0.0,0.0,0.0,0.0,0.0,0.0,0.0,0.0,0.0,0.0,0.0,0.0,0.0,0.0,0.0,0.0,0.0,0.0,0.0,0.0,0.0,0.0,0.0,0.0,0.0,0.0,0.0,0.0,0.0,0.0,0.0,0.0,0.0,0.0,0.0,0.0,0.0,0.0,0.0,0.0,0.0,0.0,0.0,0.0,0.0,0.0,0.0,0.0,0.0,0.0,0.0,0.0,0.0,0.0,-1.7018,-1.7752,-1.7694,-1.6805,-1.7229,-1.7099,0.0,0.0,0.0,0.0,0.0,0.0,0.0,0.0,0.0,0.0,0.0,0.0,0.0,0.0,0.0,0.0,0.0,0.0,0.0,0.0,0.0,0.0,0.0,0.0,0.0,0.0,0.0,0.0,0.0,0.0,0.0,0.0,0.0,0.0,0.0,0.0,0.0,0.0,0.0,0.0,0.0,0.0,0.0,0.0,0.0,0.0,0.0,0.0,0.0,0.0,0.0,0.0,0.0,0.0,0.0,0.0,0.0,0.0,0.0,0.0,0.0,0.0,0.0,0.0,0.0,0.0,0.0,0.0,0.0,0.0,0.0,0.0,0.0,0.0,0.0,0.0,0.0,0.0,0.0,0.0,0.0,0.0,0.0,0.0,0.0,0.0,0.0,0.0,0.0,0.0,0.0,0.0,0.0,0.0,0.0,0.0,0.0,0.0,0.0,0.0,0.0,0.0,0.0,0.0,0.0,0.0,0.0,0.0,0.0,-1.8447,-1.8717,-1.8364,-1.7324,-1.6915,-1.6798,0.0,0.0,0.0,0.0,0.0,0.0,0.0,0.0,0.0,0.0,0.0,0.0,0.0,0.0,0.0,0.0,0.0,0.0,0.0,0.0,0.0,0.0,0.0,0.0,0.0,0.0,0.0,0.0,0.0,0.0,0.0,0.0,0.0,0.0,0.0,0.0,0.0,0.0,0.0,0.0,0.0,0.0,0.0,0.0,0.0,0.0,0.0,0.0,0.0,0.0,0.0,0.0,0.0,0.0,0.0,0.0,0.0,0.0,0.0,0.0,0.0,0.0,0.0,0.0,0.0,0.0,0.0,0.0,0.0,0.0,0.0,0.0,0.0,0.0,0.0,0.0,0.0,0.0,0.0,0.0,0.0,0.0,0.0,0.0,0.0,0.0,0.0,0.0,0.0,0.0,0.0,0.0,0.0,0.0,0.0,0.0,0.0,0.0,0.0,0.0,0.0,0.0,0.0,0.0,0.0,0.0,0.0,0.0,-1.848,-1.8999,-1.9001,-1.8681,-1.7968,-1.756,-1.7453,0.0,0.0,0.0,0.0,0.0,0.0,0.0,0.0,0.0,0.0,0.0,0.0,0.0,0.0,0.0,0.0,0.0,0.0,0.0,0.0,0.0,0.0,0.0,0.0,0.0,0.0,0.0,0.0,0.0,0.0,0.0,0.0,0.0,0.0,0.0,0.0,0.0,0.0,0.0,0.0,0.0,0.0,0.0,0.0,0.0,0.0,0.0,0.0,0.0,0.0,0.0,0.0,0.0,0.0,0.0,0.0,0.0,0.0,0.0,0.0,0.0,0.0,0.0,0.0,0.0,0.0,0.0,0.0,0.0,0.0,0.0,0.0,0.0,0.0,0.0,0.0,0.0,0.0,0.0,0.0,0.0,0.0,0.0,0.0,0.0,0.0,0.0,0.0,0.0,0.0,0.0,0.0,0.0,0.0,0.0,0.0,0.0,0.0,0.0,0.0,0.0,0.0,0.0,0.0,0.0,0.0,0.0,0.0,-1.8807,-1.8984,-1.8914,-1.877,-1.8603,-1.8585,-1.8526,0.0,0.0,0.0,0.0,0.0,0.0,0.0,0.0,0.0,0.0,0.0,0.0,0.0,0.0,0.0,0.0,0.0,0.0,0.0,0.0,0.0,0.0,0.0,0.0,0.0,0.0,0.0,0.0,0.0,0.0,0.0,0.0,0.0,0.0,0.0,0.0,0.0,0.0,0.0,0.0,0.0,0.0,0.0,0.0,0.0,0.0,0.0,0.0,0.0,0.0,0.0,0.0,0.0,0.0,0.0,0.0,0.0,0.0,0.0,0.0,0.0,0.0,0.0,0.0,0.0,0.0,0.0,0.0,0.0,0.0,0.0,0.0,0.0,0.0,0.0,0.0,0.0,0.0,0.0,0.0,0.0,0.0,0.0,0.0,0.0,0.0,0.0,0.0,0.0,0.0,0.0,0.0,0.0,0.0,0.0,0.0,0.0,0.0,0.0,0.0,0.0,0.0,0.0,0.0,0.0,0.0,0.0,0.0,-1.8878,-1.8931,-1.8752,-1.8622,-1.86,-1.8584,-1.8487,0.0,0.0,0.0,0.0,0.0,0.0,0.0,0.0,0.0,0.0,0.0,0.0,0.0,0.0,0.0,0.0,0.0,0.0,0.0,0.0,0.0,0.0,0.0,0.0,0.0,0.0,0.0,0.0,0.0,0.0,0.0,0.0,0.0,0.0,0.0,0.0,0.0,0.0,0.0,0.0,0.0,0.0,0.0,0.0,0.0,0.0,0.0,0.0,-1.2436,0.0,0.0,0.0,0.0,0.0,0.0,0.0,0.0,0.0,0.0,0.0,0.0,0.0,0.0,0.0,0.0,0.0,0.0,0.0,0.0,0.0,0.0,0.0,0.0,0.0,0.0,0.0,0.0,0.0,0.0,0.0,0.0,0.0,0.0,0.0,0.0,0.0,0.0,0.0,0.0,0.0,0.0,0.0,0.0,0.0,0.0,0.0,0.0,0.0,0.0,0.0,0.0,0.0,0.0,0.0,0.0,0.0,0.0,0.0,-1.8807,-1.8753,-1.8678,-1.8584,-1.8559,-1.8524,-1.8388,0.0,0.0,0.0,0.0,0.0,0.0,0.0,0.0,0.0,0.0,0.0,0.0,0.0,0.0,0.0,0.0,0.0,0.0,0.0,0.0,0.0,0.0,0.0,0.0,0.0,0.0,0.0,0.0,0.0,0.0,0.0,0.0,0.0,0.0,0.0,0.0,0.0,0.0,0.0,0.0,0.0,0.0,0.0,0.0,0.0,0.0,0.0,0.0,0.0,0.0,0.0,0.0,0.0,0.0,0.0,0.0,0.0,0.0,0.0,0.0,0.0,0.0,0.0,0.0,0.0,0.0,0.0,0.0,0.0,0.0,0.0,0.0,0.0,0.0,0.0,0.0,0.0,0.0,0.0,0.0,0.0,0.0,0.0,0.0,0.0,0.0,0.0,0.0,0.0,0.0,0.0,0.0,0.0,0.0,0.0,0.0,0.0,0.0,0.0,0.0,0.0,0.0,0.0,0.0,0.0,0.0,0.0,-1.8359,-1.8678,-1.8604,-1.8603,-1.8563,-1.8485,-1.8426,-1.8266,-1.8053,0.0,0.0,0.0,0.0,0.0,0.0,0.0,0.0,0.0,0.0,0.0,0.0,0.0,0.0,0.0,0.0,0.0,0.0,0.0,0.0,0.0,0.0,0.0,0.0,0.0,0.0,0.0,0.0,0.0,0.0,0.0,0.0,0.0,0.0,0.0,0.0,0.0,0.0,-1.1878,-1.2989,0.0,0.0,0.0,0.0,0.0,0.0,0.0,0.0,-1.1621,0.0,0.0,0.0,0.0,0.0,0.0,0.0,0.0,0.0,0.0,0.0,0.0,0.0,0.0,0.0,0.0,0.0,0.0,0.0,0.0,0.0,0.0,0.0,0.0,0.0,0.0,0.0,0.0,0.0,0.0,0.0,0.0,0.0,0.0,0.0,0.0,0.0,0.0,0.0,0.0,0.0,0.0,0.0,0.0,0.0,0.0,0.0,0.0,0.0,0.0,0.0,0.0,0.0,0.0,0.0,0.0,-1.8574,-1.8662,-1.8697,-1.8678,-1.8506,-1.8445,-1.8485,-1.8388,-1.8166,-1.7878,0.0,0.0,0.0,0.0,0.0,0.0,0.0,0.0,0.0,0.0,0.0,0.0,0.0,0.0,0.0,0.0,0.0,0.0,0.0,0.0,0.0,0.0,0.0,0.0,0.0,0.0,0.0,0.0,0.0,0.0,0.0,0.0,0.0,0.0,0.0,0.0,0.0,0.0,0.0,-1.3364,-1.4125,0.0,0.0,0.0,0.0,0.0,0.0,0.0,0.0,-1.2311,0.0,0.0,0.0,0.0,0.0,0.0,0.0,0.0,0.0,0.0,0.0,0.0,0.0,0.0,0.0,0.0,0.0,0.0,0.0,0.0,0.0,0.0,0.0,0.0,0.0,0.0,0.0,0.0,0.0,0.0,0.0,0.0,0.0,0.0,0.0,0.0,0.0,0.0,0.0,0.0,0.0,0.0,0.0,0.0,0.0,0.0,0.0,0.0,0.0,0.0,0.0,0.0,0.0,0.0,0.0,-1.8639,-1.9029,-1.9009,-1.8619,-1.8465,-1.8406,-1.8406,-1.869,-1.8456,0.0,0.0,0.0,0.0,0.0,0.0,0.0,0.0,0.0,0.0,0.0,0.0,0.0,0.0,0.0,0.0,0.0,0.0,0.0,0.0,0.0,0.0,0.0,0.0,0.0,0.0,0.0,0.0,0.0,0.0,0.0,0.0,0.0,0.0,0.0,0.0,0.0,0.0,0.0,0.0,-1.3357,-1.3938,-1.4247,0.0,0.0,0.0,0.0,0.0,0.0,-1.2754,-1.2472,0.0,0.0,0.0,0.0,0.0,0.0,0.0,0.0,0.0,0.0,0.0,0.0,0.0,0.0,0.0,0.0,0.0,0.0,0.0,0.0,0.0,0.0,0.0,0.0,0.0,0.0,0.0,0.0,0.0,0.0,0.0,0.0,0.0,0.0,0.0,0.0,0.0,0.0,0.0,0.0,0.0,0.0,0.0,0.0,0.0,0.0,0.0,0.0,0.0,0.0,0.0,0.0,0.0,0.0,0.0,-1.8483,-1.926,-1.9298,-1.8538,-1.8406,-1.8415,-1.8534,-1.9096,-1.887,0.0,0.0,0.0,0.0,0.0,0.0,0.0,0.0,0.0,0.0,0.0,0.0,0.0,0.0,0.0,0.0,0.0,0.0,0.0,0.0,0.0,0.0,0.0,0.0,0.0,0.0,0.0,0.0,0.0,0.0,0.0,0.0,0.0,0.0,0.0,0.0,0.0,0.0,0.0,0.0,0.0,-1.3859,-1.4192,-1.4464,0.0,0.0,0.0,0.0,-1.3484,-1.3195,0.0,0.0,0.0,0.0,0.0,0.0,0.0,0.0,0.0,0.0,0.0,0.0,0.0,0.0,0.0,0.0,0.0,0.0,0.0,0.0,0.0,0.0,0.0,0.0,0.0,0.0,0.0,0.0,0.0,0.0,0.0,0.0,0.0,0.0,0.0,0.0,0.0,0.0,0.0,0.0,0.0,0.0,0.0,0.0,0.0,0.0,0.0,0.0,0.0,0.0,0.0,0.0,0.0,0.0,0.0,0.0,-1.838,-1.9157,-1.9251,-1.8458,-1.8339,-1.861,-1.9269,-1.9307,-1.9081,0.0,0.0,0.0,0.0,0.0,0.0,0.0,0.0,0.0,0.0,0.0,0.0,0.0,0.0,0.0,0.0,0.0,0.0,0.0,0.0,0.0,0.0,0.0,0.0,0.0,0.0,0.0,0.0,0.0,0.0,0.0,0.0,0.0,0.0,0.0,0.0,0.0,0.0,0.0,0.0,0.0,-1.4137,-1.3986,-1.4385,-1.4767,0.0,0.0,-1.4275,-1.4756,-1.4887,0.0,0.0,0.0,0.0,0.0,0.0,0.0,0.0,0.0,0.0,0.0,0.0,0.0,0.0,0.0,0.0,0.0,0.0,0.0,0.0,0.0,0.0,0.0,0.0,0.0,0.0,0.0,0.0,0.0,0.0,0.0,0.0,0.0,0.0,0.0,0.0,0.0,0.0,0.0,0.0,0.0,0.0,0.0,0.0,0.0,0.0,0.0,0.0,0.0,0.0,0.0,0.0,0.0,0.0,0.0,-1.9712,-1.9013,-2.0147,-2.039,-1.9643,-1.952,-1.9648,-1.9958,-2.0384,-1.9962,0.0,0.0,0.0,0.0,0.0,0.0,0.0,0.0,0.0,0.0,0.0,0.0,0.0,0.0,0.0,0.0,0.0,0.0,0.0,0.0,0.0,0.0,0.0,0.0,0.0,0.0,0.0,0.0,0.0,0.0,0.0,0.0,0.0,0.0,0.0,0.0,0.0,0.0,0.0,0.0,0.0,0.0,-1.4862,-1.4963,0.0,0.0,0.0,-1.5342,-1.5623,0.0,0.0,0.0,0.0,0.0,0.0,0.0,0.0,0.0,0.0,0.0,0.0,0.0,0.0,0.0,0.0,0.0,0.0,0.0,0.0,0.0,0.0,0.0,0.0,0.0,0.0,0.0,0.0,0.0,0.0,0.0,0.0,0.0,0.0,0.0,0.0,0.0,0.0,0.0,0.0,0.0,0.0,0.0,0.0,0.0,0.0,0.0,0.0,0.0,0.0,0.0,0.0,0.0,0.0,0.0,0.0,0.0,-1.9433,-2.0928,-2.1309,-2.05,-2.0418,-2.0498,-2.0687,-2.1298,0.0,0.0,0.0,0.0,0.0,0.0,0.0,0.0,0.0,0.0,0.0,0.0,0.0,0.0,0.0,0.0,0.0,0.0,0.0,0.0,0.0,0.0,0.0,0.0,0.0,0.0,0.0,-1.1109,0.0,0.0,0.0,0.0,0.0,0.0,0.0,0.0,0.0,0.0,0.0,0.0,0.0,0.0,-1.4575,-1.5649,-1.582,-1.6112,0.0,0.0,-1.6256,-1.6135,-1.5908,-1.534,0.0,0.0,0.0,0.0,0.0,0.0,0.0,0.0,0.0,0.0,0.0,0.0,0.0,0.0,0.0,0.0,0.0,0.0,0.0,0.0,0.0,0.0,0.0,0.0,0.0,0.0,0.0,0.0,0.0,0.0,0.0,0.0,0.0,0.0,0.0,0.0,0.0,0.0,0.0,0.0,0.0,0.0,0.0,0.0,0.0,0.0,0.0,0.0,0.0,0.0,0.0,0.0,0.0,0.0,0.0,-1.9383,-2.0887,-2.1278,-2.0446,-2.0394,-2.0756,-2.1487,-2.1574,-2.0986,0.0,0.0,0.0,0.0,0.0,0.0,0.0,0.0,0.0,0.0,0.0,0.0,0.0,0.0,0.0,0.0,0.0,0.0,0.0,0.0,0.0,0.0,0.0,0.0,0.0,0.0,0.0,0.0,0.0,0.0,0.0,0.0,0.0,0.0,0.0,0.0,0.0,0.0,0.0,0.0,0.0,-1.533,-1.5971,-1.6711,-1.7388,0.0,0.0,-1.6638,-1.6337,-1.6367,-1.5812,-1.3917,0.0,0.0,0.0,0.0,0.0,0.0,0.0,0.0,0.0,0.0,0.0,0.0,0.0,0.0,0.0,0.0,0.0,0.0,0.0,0.0,0.0,0.0,0.0,0.0,0.0,0.0,0.0,0.0,0.0,0.0,0.0,0.0,0.0,0.0,0.0,0.0,0.0,0.0,0.0,0.0,0.0,0.0,0.0,0.0,0.0,0.0,0.0,0.0,0.0,0.0,0.0,0.0,0.0,-2.0539,-2.0746,-2.1771,-2.2151,-2.1824,-2.1807,-2.1945,-2.2281,-2.2281,-2.1764,0.0,0.0,0.0,0.0,0.0,0.0,0.0,0.0,0.0,0.0,0.0,0.0,0.0,0.0,0.0,0.0,0.0,0.0,0.0,0.0,0.0,0.0,0.0,0.0,0.0,0.0,0.0,0.0,-1.2701,-1.2859,-1.3002,0.0,0.0,0.0,0.0,0.0,0.0,0.0,0.0,0.0,0.0,-1.5977,-1.6764,-1.7213,0.0,0.0,-1.7956,-1.7592,-1.7232,-1.6729,-1.5994,-1.4744,-1.3901,0.0,0.0,0.0,0.0,0.0,0.0,0.0,0.0,0.0,0.0,0.0,0.0,0.0,0.0,0.0,0.0,0.0,0.0,0.0,0.0,0.0,0.0,0.0,0.0,0.0,0.0,0.0,0.0,0.0,0.0,0.0,0.0,0.0,0.0,0.0,0.0,0.0,0.0,0.0,0.0,0.0,0.0,0.0,0.0,0.0,0.0,0.0,0.0,0.0,0.0,0.0,0.0,-2.1014,-2.1608,-2.2332,-2.2712,-2.2712,-2.2712,-2.2712,-2.2712,-2.2712,-2.2228,0.0,0.0,0.0,0.0,0.0,0.0,0.0,0.0,0.0,0.0,0.0,0.0,0.0,0.0,0.0,0.0,0.0,0.0,0.0,0.0,0.0,0.0,0.0,0.0,0.0,0.0,0.0,0.0,-1.3408,-1.3275,-1.322,0.0,0.0,0.0,0.0,0.0,0.0,0.0,0.0,0.0,0.0,-1.6683,-1.7318,-1.7724,-1.8019,-1.8105,-1.7941,-1.7662,-1.7128,-1.6514,-1.5745,-1.4818,0.0,0.0,0.0,0.0,0.0,0.0,0.0,0.0,0.0,0.0,0.0,0.0,0.0,0.0,0.0,0.0,0.0,0.0,0.0,0.0,0.0,0.0,0.0,0.0,0.0,0.0,0.0,0.0,0.0,0.0,0.0,0.0,0.0,0.0,0.0,0.0,0.0,0.0,0.0,0.0,0.0,0.0,0.0,0.0,0.0,0.0,0.0,0.0,0.0,0.0,0.0,0.0,0.0,-2.1591,-2.1625,-2.235,-2.2712,-2.2712,-2.2712,-2.2712,-2.2712,-2.2712,-2.2245,-2.1223,0.0,0.0,0.0,0.0,0.0,0.0,0.0,0.0,0.0,0.0,0.0,0.0,0.0,0.0,0.0,0.0,0.0,0.0,0.0,0.0,0.0,0.0,0.0,0.0,0.0,0.0,-1.4878,-1.4694,-1.414,0.0,0.0,0.0,0.0,0.0,0.0,0.0,0.0,0.0,0.0,-1.7039,-1.7422,-1.7418,-1.84,-1.883,-1.8005,-1.7312,-1.6613,-1.5869,-1.5536,-1.5033,0.0,0.0,0.0,0.0,0.0,0.0,0.0,0.0,0.0,0.0,0.0,0.0,0.0,0.0,0.0,0.0,0.0,0.0,0.0,0.0,0.0,0.0,0.0,0.0,0.0,0.0,0.0,0.0,-2.0246,0.0,0.0,0.0,0.0,0.0,0.0,0.0,0.0,0.0,0.0,0.0,-2.1267,-2.1562,0.0,0.0,0.0,0.0,0.0,0.0,0.0,0.0,0.0,0.0,0.0,0.0,-2.1849,-2.2332,-2.2548,-2.2712,-2.2712,-2.2712,-2.2712,-2.2712,-2.2712,-2.2245,-2.1257,0.0,0.0,0.0,0.0,0.0,0.0,0.0,0.0,0.0,0.0,0.0,0.0,0.0,0.0,0.0,0.0,0.0,0.0,0.0,0.0,0.0,0.0,0.0,0.0,0.0,-1.3839,0.0,0.0,0.0,0.0,0.0,0.0,0.0,0.0,0.0,0.0,0.0,-1.6262,-1.62,-1.6917,-1.7418,-1.7397,-1.8373,-1.871,0.0,0.0,0.0,0.0,0.0,0.0,0.0,0.0,0.0,0.0,0.0,0.0,0.0,0.0,-1.4988,-1.3601,-1.3174,-1.3067,-1.3342,0.0,0.0,0.0,0.0,0.0,0.0,0.0,0.0,0.0,0.0,0.0,0.0,0.0,0.0,0.0,0.0,-2.2812,0.0,0.0,0.0,0.0,0.0,0.0,0.0,0.0,-2.2401,-2.2674,-2.2752,-2.3343,-2.3365,0.0,-2.2486,-2.1697,0.0,0.0,0.0,0.0,0.0,0.0,0.0,0.0,-2.228,-2.2747,-2.2764,-2.2747,-2.2738,-2.2712,-2.2712,-2.2712,-2.2712,-2.2392,-2.171,-2.1515,-2.0954,0.0,0.0,0.0,0.0,0.0,0.0,0.0,0.0,0.0,0.0,0.0,0.0,0.0,0.0,0.0,0.0,0.0,0.0,0.0,0.0,0.0,0.0,0.0,-1.4251,0.0,0.0,0.0,0.0,0.0,0.0,0.0,0.0,0.0,-1.5531,-1.6132,-1.6559,-1.6486,-1.7042,-1.7408,-1.7402,0.0,0.0,0.0,0.0,0.0,0.0,0.0,-1.6689,-1.6733,-1.6342,-1.5941,-1.5708,-1.6188,-1.6488,-1.6297,0.0,0.0,-1.4487,-1.4024,-1.39,-1.4165,-1.4223,-1.4336,-1.4893,-1.4788,-1.4656,0.0,0.0,0.0,0.0,0.0,0.0,0.0,0.0,-2.474,-2.4582,0.0,-2.5284,0.0,0.0,0.0,0.0,0.0,0.0,0.0,0.0,-2.4727,-2.5465,-2.5443,-2.5972,-2.6259,-2.6136,-2.5188,-2.4295,-2.3405,-2.1852,0.0,0.0,0.0,0.0,0.0,0.0,-2.2902,-2.2893,-2.2893,-2.2868,-2.279,-2.2738,-2.2712,-2.2712,-2.2712,-2.2659,-2.2579,-2.2303,-2.1787,-2.09,-2.028,0.0,0.0,0.0,0.0,0.0,0.0,0.0,0.0,0.0,0.0,0.0,0.0,0.0,0.0,0.0,0.0,0.0,0.0,0.0,0.0,-1.5327,0.0,0.0,0.0,0.0,0.0,0.0,0.0,0.0,0.0,0.0,-1.5608,-1.6219,-1.685,-1.7338,0.0,0.0,0.0,0.0,-1.8139,-1.7313,-1.7826,-1.8255,-1.7907,-1.8439,-1.8655,-1.8185,0.0,0.0,-1.692,-1.7148,-1.7242,-1.6434,-1.6163,-1.6077,-1.6417,-1.5949,-1.5535,-1.5565,-1.5429,-1.543,-1.5478,-1.5537,-1.5508,-2.6799,0.0,0.0,0.0,0.0,-2.6941,-2.6783,-2.6684,-2.6902,-2.65,-2.5753,-2.6803,0.0,0.0,0.0,0.0,0.0,0.0,-2.5279,-2.5671,-2.5538,-2.5758,-2.6388,-2.6486,-2.6493,-2.6454,-2.6209,-2.5867,-2.5488,-2.444,-2.3088,-2.1557,0.0,0.0,0.0,0.0,-2.2977,-2.297,-2.2893,-2.2816,-2.279,-2.2738,-2.2712,-2.2712,-2.2712,-2.2685,-2.2659,-2.2561,-2.2252,-2.1737,-2.085,0.0,0.0,0.0,0.0,0.0,0.0,0.0,0.0,0.0,0.0,0.0,0.0,0.0,0.0,0.0,0.0,0.0,0.0,0.0,-1.5284,-1.5684,-1.5747,0.0,0.0,0.0,0.0,0.0,0.0,0.0,0.0,0.0,-1.592,-1.6262,-1.6751,0.0,0.0,-1.7534,-1.7928,-1.8457,-1.8759,-1.8487,0.0,0.0,0.0,-1.8935,-1.8799,-1.8966,-1.8685,-1.8385,-1.8385,-1.808,-1.7805,-1.7536,-1.7406,-1.7455,-1.7475,-1.639,-1.5664,-1.5851,-1.5939,-1.6103,-1.666,-1.6826,-1.6807,-2.9901,-2.9322,-2.8674,-2.8396,-2.8404,-2.869,-2.8832,-2.8832,-2.8506,-2.8225,-2.8041,-2.823,-2.7924,-2.7257,-2.7327,0.0,0.0,0.0,-2.6357,-2.6897,-2.6948,-2.7093,-2.7337,-2.7864,-2.7929,-2.7616,-2.72,-2.6969,-2.6889,-2.5923,-2.4805,-2.3549,0.0,0.0,-2.307,-2.3052,-2.3045,-2.3052,-2.2944,-2.2868,-2.2825,-2.2738,-2.2712,-2.2712,-2.2712,-2.2712,-2.2712,-2.2676,-2.2508,-2.2243,-2.1392,-2.0391,0.0,0.0,0.0,0.0,0.0,0.0,0.0,0.0,0.0,0.0,0.0,-1.4477,0.0,0.0,0.0,0.0,-1.4771,-1.5452,-1.6114,-1.6073,0.0,0.0,0.0,0.0,0.0,0.0,0.0,-1.5545,-1.6138,-1.6554,-1.6679,-1.676,-1.7086,-1.7622,-1.7772,-1.7987,-1.846,0.0,-1.9032,-1.9032,-1.9849,-2.0464,-2.0476,-2.0361,-2.0301,-2.0264,-1.9845,-1.9447,-1.9465,-1.8931,-1.8472,-1.8347,-1.8212,-1.8144,-1.8134,-1.7194,-1.6504,-1.6777,-1.6836,-1.7031,-1.7539,-1.7627,-1.7637,-3.3336,-3.3168,-3.0754,-2.9683,-2.9678,-3.0462,-3.0772,-3.0655,-2.9872,-2.988,-3.0452,-2.9667,-2.9238,-2.905,-2.8055,0.0,0.0,-2.7324,-2.727,-2.7252,-2.8721,-2.8979,-2.829,-2.9654,-2.9921,-2.9181,-2.8209,-2.7771,-2.7757,-2.6698,-2.6159,-2.6081,-2.4337,-2.3417,-2.3417,-2.3386,-2.3369,-2.3435,-2.3288,-2.3109,-2.298,-2.2851,-2.2781,-2.2703,-2.2712,-2.2712,-2.2712,-2.2712,-2.2623,-2.2405,-2.1911,-2.1193,-2.0162,0.0,0.0,0.0,0.0,0.0,0.0,0.0,0.0,0.0,0.0,0.0,0.0,0.0,0.0,0.0,-1.6049,0.0,-1.7146,-1.6471,0.0,0.0,0.0,-1.5467,-1.5797,-1.6275,-1.6627,-1.6627,0.0,0.0,0.0,0.0,-1.7747,-1.8232,-1.8384,-1.8616,-1.9029,-1.907,-1.9095,-1.9221,-2.0476,-2.1481,-2.1506,-2.203,-2.2165,-2.1623,-2.1336,-2.0752,-2.0096,-1.9518,-1.9142,-1.8818,-1.8539,-1.8347,-1.8347,-1.8133,-1.8008,-1.7939,-1.7959,-1.7978,-1.7978,-1.8018,-1.8037,-3.3743,-3.4244,-3.3608,-3.2924,-3.2286,-3.2435,-3.2502,-3.2454,-3.226,-3.1902,-3.1448,-3.1244,-3.106,-3.0852,-3.0453,-3.0229,-3.0108,-2.9308,-2.8951,-2.8988,-2.9262,-2.9295,-2.9128,-2.9479,-2.9532,-2.9365,-2.9119,-2.8966,-2.8864,-2.7879,-2.7368,-2.7291,-2.609,-2.5428,-2.535,-2.5308,-2.5325,-2.5325,-2.5006,-2.4471,-2.3771,-2.3601,-2.3281,-2.2729,-2.2712,-2.2712,-2.2712,-2.2712,-2.2659,-2.2569,-2.2198,-2.1504,-2.0446,-1.9807,0.0,0.0,0.0,0.0,0.0,0.0,0.0,0.0,0.0,-1.5998,-1.4712,0.0,-1.6035,0.0,-1.6049,-1.6624,-1.7146,-1.6915,0.0,0.0,-1.6671,-1.6574,-1.6837,-1.7372,-1.7666,-1.7604,-1.8111,-1.8449,-1.8382,-1.8674,-1.8964,-1.9102,-1.8984,-1.9045,-1.952,-1.9622,-1.9773,-2.0225,-2.0941,-2.1631,-2.2013,-2.2223,-2.2185,-2.1588,-2.088,-2.0172,-1.9594,-1.9208,-1.8875,-1.8607,-1.8549,-1.8472,-1.8472,-1.8405,-1.8347,-1.8279,-1.8144,-1.8008,-1.8008,-1.8252,-1.8389,-3.5577,-3.6313,-3.5885,-3.5631,-3.5438,-3.4623,-3.4254,-3.4234,-3.3847,-3.3402,-3.2919,-3.252,-3.227,-3.2141,-3.1986,-3.187,-3.172,-3.1091,-3.0772,-3.0713,-3.0945,-3.0677,-3.0006,-3.0318,-3.0113,-2.9407,-2.9388,-2.9386,-2.9326,-2.8673,-2.8368,-2.8368,-2.7766,-2.7409,-2.7302,-2.6465,-2.6027,-2.5996,-2.5666,-2.5164,-2.4562,-2.4417,-2.3998,-2.3246,-2.3557,-2.3402,-2.272,-2.3022,-2.2986,-2.2569,-2.2243,-2.1769,-2.1114,-2.0295,-1.9578,0.0,0.0,0.0,0.0,0.0,0.0,0.0,0.0,0.0,0.0,0.0,-1.6468,0.0,0.0,0.0,-1.7931,-1.7913,-1.7913,-1.7957,-1.7913,-1.7913,-1.7957,-1.8244,-1.844,-1.8319,-1.8617,-1.8869,-1.9029,-1.9195,-1.9441,-1.9731,-1.956,-1.9535,-1.9825,-1.985,-2.0012,-2.0589,-2.1197,-2.1725,-2.2384,-2.2469,-2.2247,-2.18,-2.1135,-2.0549,-2.0172,-1.9715,-1.9253,-1.8921,-1.8808,-1.8674,-1.8539,-1.8482,-1.8482,-1.8337,-1.8212,-1.8144,-1.8018,-1.8193,-1.8271,-3.7809,-3.8416,-3.7611,-3.7695,-3.8291,-3.6578,-3.5892,-3.5803,-3.4941,-3.4496,-3.435,-3.355,-3.3234,-3.3306,-3.3192,-3.314,-3.3086,-3.2836,-3.26,-3.2483,-3.3026,-3.2527,-3.1222,-3.1827,-3.1284,-2.9741,-2.9723,-2.9667,-2.9556,-2.9366,-2.9333,-2.9447,-2.9379,-2.9338,-2.926,-2.7536,-2.6525,-2.6283,-2.6027,-2.5711,-2.5366,-2.5281,-2.4832,-2.404,-2.4643,-2.4367,-2.3064,-2.3598,-2.3595,-2.2839,-2.2446,-2.2149,-2.1973,-2.0758,-2.0019,0.0,-1.8665,0.0,0.0,0.0,0.0,0.0,0.0,0.0,0.0,-1.6996,-1.7102,-1.7382,-1.8323,-1.8898,-1.8898,-1.8989,-1.9035,-1.8898,-1.8989,-1.9035,-1.8898,-1.8963,-1.9041,-1.8929,-1.89,-1.9145,-1.9668,-1.9502,-1.9621,-2.0105,-2.0029,-1.9927,-2.0003,-1.9901,-1.9987,-2.0501,-2.1029,-2.16,-2.2278,-2.2529,-2.2482,-2.2127,-2.1646,-2.1295,-2.0934,-2.0373,-1.9792,-1.9357,-1.9145,-1.8931,-1.8617,-1.8549,-1.8482,-1.8337,-1.8269,-1.8212,-1.8076,-1.8027,-1.8008,-3.8357,-3.8494,-3.8318,-3.8293,-3.8307,-3.728,-3.68,-3.6697,-3.5834,-3.5048,-3.4408,-3.4223,-3.4446,-3.4943,-3.4988,-3.5264,-3.5717,-3.4773,-3.4358,-3.4358,-3.4282,-3.4027,-3.372,-3.3846,-3.3003,-3.1433,-3.1359,-3.1002,-3.0392,-3.0268,-3.0598,-3.1273,-3.1182,-3.107,0.0,0.0,0.0,0.0,-2.7583,-2.7077,-2.6289,-2.6021,-2.554,-2.4816,-2.4919,0.0,-2.4591,-2.4712,-2.4683,-2.4413,-2.3699,0.0,0.0,0.0,0.0,0.0,0.0,0.0,0.0,0.0,0.0,0.0,-1.989,-1.9456,-1.7947,-1.8294,-1.8631,-1.8584,-1.878,-1.8898,-1.8898,-1.8898,-1.8943,-1.8911,-1.8898,-1.8898,-1.8911,-1.9422,-1.9724,-1.9643,-2.0109,-2.0437,-2.044,-2.0343,-2.0281,-2.0385,-2.0207,-1.999,-1.9978,-1.9875,-1.9849,-1.9987,-2.0539,-2.1079,-2.165,-2.2035,-2.2073,-2.1776,-2.1392,-2.1028,-2.0549,-2.0001,-1.9487,-1.9201,-1.9078,-1.9065,-1.8798,-1.8741,-1.8623,-1.8337,-1.8337,-1.8212,-1.8076,-1.8008,-1.8008,-3.9392,0.0,-3.9321,-3.9349,0.0,-3.7868,-3.7611,-3.8227,-3.6455,-3.5466,-3.5029,-3.5037,-3.5226,-3.5553,-3.554,-3.5707,-3.594,-3.5327,-3.498,-3.4889,-3.471,-3.4311,-3.3821,-3.3776,-3.3078,-3.1819,-3.1801,-3.16,-3.1188,-3.1166,-3.137,-3.1782,-3.1691,-3.1644,-3.156,-3.0803,-2.9811,-2.8669,-2.8456,-2.7996,-2.7338,-2.7075,-2.6533,-2.5633,0.0,0.0,0.0,0.0,0.0,0.0,0.0,0.0,0.0,0.0,0.0,-2.2264,-2.151,-2.1066,-2.1105,-2.1175,-2.1195,-2.1147,-2.1407,-2.0838,-1.91,-1.9404,-1.9608,-1.9436,-1.9638,-1.9808,-1.9821,-1.9882,-1.9882,-1.9821,-1.9834,-1.9882,-1.9847,-2.0132,-2.0315,-2.0231,-2.0429,-2.0562,-2.0612,-2.041,-2.0258,-2.0246,-2.0093,-1.999,-1.9926,-1.9862,-1.9886,-2.0188,-2.0715,-2.1167,-2.1331,-2.1524,-2.1551,-2.1299,-2.1259,-2.1164,-2.0766,-2.0657,-2.0443,-1.9874,-1.9587,-1.9254,-1.8713,-1.8438,-1.8226,-1.8157,-1.8095,-1.8118,-1.7997,-1.7852,-1.7705,-4.0464,-4.1035,-4.033,-4.0398,-4.0818,-3.8595,-3.8338,-3.9293,0.0,0.0,0.0,-3.5908,-3.5916,-3.5905,-3.5844,-3.5842,-3.5861,-3.5786,-3.567,-3.5572,-3.5455,-3.491,-3.4091,-3.4004,-3.338,-3.2247,-3.2377,-3.2284,-3.2024,-3.2135,-3.221,-3.2228,-3.2159,-3.2043,-3.1834,-3.1048,-3.0167,-2.9265,-2.8936,-2.8558,-2.8102,-2.7954,-2.7425,-2.6504,-2.7074,-2.6818,-2.5542,-2.6018,-2.601,-2.5365,-2.5009,-2.4815,-2.4798,-2.3737,-2.3353,-2.39,-2.2863,-2.2404,-2.2909,-2.2658,-2.2509,-2.2554,-2.2517,-2.1916,-2.0566,-2.053,-2.0503,-2.0266,-2.0558,-2.0749,-2.0749,-2.0875,-2.0875,-2.0762,-2.0838,-2.0812,-2.0749,-2.0699,-2.0673,-2.0649,-2.0435,-2.0283,-2.0461,-2.0309,-2.0093,-2.0042,-2.0029,-1.9978,-1.9862,-1.9798,-1.9949,-2.0351,-2.0715,-2.1062,-2.1081,-2.107,-2.0983,-2.0807,-2.1092,-2.1233,-2.1153,-2.1222,-2.1005,-2.0232,-1.9769,-1.9187,-1.8532,-1.8101,-1.784,-1.7991,-1.8026,-1.7985,-1.8006,-1.7742,-1.7497,-4.0975,-4.1105,-4.0957,-4.0957,-4.0914,-3.9836,-3.9041,-3.8491,-3.8093,-3.748,-3.6729,-3.6729,-3.6717,-3.6733,-3.6646,-3.7038,-3.7687,-3.7513,-3.7731,0.0,-3.8071,-3.7773,-3.7436,-3.7393,-3.6143,-3.4054,-3.4606,-3.4234,-3.3045,-3.3528,-3.3839,-3.379,-3.3765,-3.3371,-3.2656,-3.1837,-3.102,-3.0203,-2.9229,-2.85,-2.801,-2.7886,-2.7754,-2.7572,-2.7517,-2.747,-2.7344,-2.7239,-2.7155,-2.6954,-2.6179,-2.5709,-2.5692,-2.4808,-2.4171,-2.3999,-2.3786,-2.3504,-2.3131,-2.3438,-2.3733,-2.3912,-2.3616,-2.3054,-2.2224,-2.1788,-2.154,-2.1397,-2.1126,-2.0934,-2.0947,-2.0997,-2.101,-2.0934,-2.0938,-2.0888,-2.0838,-2.0775,-2.0699,-2.0699,-2.0549,-2.0448,-2.0461,-2.041,-2.0296,-2.0182,-2.0131,-2.008,-1.9862,-1.9798,-1.9823,-1.9899,-1.9974,-2.0037,-2.0147,-2.0395,-2.0536,-2.0586,-2.0373,-2.0475,-2.0634,-2.0146,-1.9667,-1.9493,-1.9077,-1.8623,-1.8522,-1.8276,-1.8199,-1.836,-1.8415,-1.8419,-1.8385,-1.7942,-1.7632,-4.1108,-4.1112,-4.1113,-4.1084,-4.1007,-4.057,-3.9868,-3.9083,-3.9509,-3.8896,-3.7602,-3.7116,-3.6891,-3.6899,-3.6839,-3.7006,-3.7411,-3.7747,-3.774,-3.7432,-3.7356,-3.6887,-3.6232,-3.662,-3.6198,-3.507,-3.5789,-3.5808,-3.507,-3.4959,-3.5126,-3.5428,-3.5006,-3.4079,-3.2822,-3.2398,-3.1562,-3.0369,-2.9402,-2.8749,-2.8474,-2.8649,-2.8454,-2.7876,-2.8075,-2.8023,-2.76,-2.7452,-2.7327,-2.7264,-2.6779,-2.648,-2.6413,-2.5571,-2.5206,-2.543,-2.4863,-2.4543,-2.4511,-2.4325,-2.4238,-2.4177,-2.4024,-2.3754,-2.3231,-2.2558,-2.2109,-2.2002,-2.1766,-2.1506,-2.1375,-2.1277,-2.1144,-2.0974,-2.0875,-2.0775,-2.0788,-2.0762,-2.0699,-2.0699,-2.0498,-2.0347,-2.0347,-2.0246,-2.0131,-2.0016,-1.9965,-1.9901,-1.9811,-1.9798,-1.9798,-1.9798,-1.9798,-1.9798,-1.9811,-1.9947,-2.003,-1.9961,-2.0155,-2.0184,-2.0177,-1.9977,-2.0041,-1.9502,-1.9097,-1.8945,-1.887,-1.847,-1.8415,-1.8612,-1.8702,-1.8633,-1.8409,-1.8101,-1.7801,-4.1108,-4.1111,-4.1103,-4.1073,-4.1066,-4.1038,-4.0567,-3.9976,-4.0616,-4.01,-3.8767,-3.7873,-3.7386,-3.7181,-3.7134,-3.7115,-3.718,-3.7742,-3.7613,-3.6954,-3.6898,-3.6368,-3.5544,-3.61,-3.6237,-3.6037,-3.6721,-3.6975,-3.6675,-3.6266,-3.6173,-3.6326,-3.5647,-3.4526,-3.3011,-3.279,-3.209,-3.0833,-3.0023,-2.9365,-2.8828,-2.9096,-2.8855,-2.8116,-2.837,-2.8312,-2.7897,-2.7743,-2.7618,-2.7489,-2.7312,-2.7145,-2.6876,-2.6249,-2.6099,-2.6539,-2.5882,-2.552,-2.5863,-2.5449,-2.4973,-2.4752,-2.4529,-2.431,-2.4066,-2.3422,-2.2925,-2.2726,-2.2555,-2.232,-2.2124,-2.1883,-2.1586,-2.1198,-2.0961,-2.0812,-2.0799,-2.0762,-2.0712,-2.0649,-2.0448,-2.0283,-2.0182,-2.0029,-1.9914,-1.9914,-1.9862,-1.985,-1.9798,-1.9798,-1.9798,-1.9798,-1.9798,-1.9798,-1.9798,-1.9772,-1.9693,-1.9433,-1.9818,-1.9885,-1.9797,-2.0454,-2.0616,-1.9691,-1.9516,-1.9431,-1.9213,-1.897,-1.8896,-1.9094,-1.9179,-1.8973,-1.8469,-1.8192,-1.7988,-4.1108,-4.1111,-4.1103,-4.1064,-4.1018,-4.0999,-4.0897,-4.0771,-4.0888,-4.0789,-4.0389,-3.965,-3.8802,-3.8141,-3.8085,-3.8029,-3.7983,-3.8053,-3.8324,-3.8663,-3.8741,-3.8518,-3.7999,-3.8146,-3.7732,-3.6994,-3.7605,-3.7611,-3.7012,-3.7452,-3.701,-3.5662,-3.5362,-3.4803,-3.3802,-3.3084,-3.2573,-3.2357,-3.1586,-3.0375,-2.8828,-2.859,-2.8442,-2.8362,-2.8021,-2.8182,-2.887,-2.8631,-2.8427,-2.8299,-2.8116,-2.7691,-2.6995,-2.6724,-2.6623,-2.6708,-2.6607,-2.6549,-2.6596,-2.6823,-2.6693,-2.6308,-2.5549,-2.5068,-2.4893,-2.4716,-2.4402,-2.4005,-2.3649,-2.3416,-2.3321,-2.3033,-2.2623,-2.2076,-2.1545,-2.1095,-2.1076,-2.0924,-2.0838,-2.0712,-2.0588,-2.041,-2.0283,-2.0169,-2.008,-1.9926,-2.0029,-2.0016,-1.9862,-1.9798,-1.9798,-1.9798,-1.9798,-1.9823,-1.9849,-1.9708,-1.9654,-1.9497,-1.9389,-1.9509,-1.9605,-1.9483,-1.9207,-2.0029,-1.9622,-1.9529,-1.995,-1.998,-1.9761,-1.9693,-1.9652,-1.9465,-1.8741,-1.8347,-1.8152,-4.1108,-4.1111,-4.1112,-4.1069,-4.0996,-4.098,-4.0974,-4.0888,-4.0888,-4.0849,-4.0768,-4.0427,-3.9785,-3.8977,-3.8929,-3.8897,-3.8909,-3.9369,-3.9396,-3.908,-3.9061,-3.8669,-3.8059,-3.8476,-3.8369,-3.7957,-3.8667,-3.8752,-3.8361,-3.8505,-3.7782,-3.6292,-3.6073,-3.5639,-3.4747,-3.3847,-3.3151,-3.2665,-3.2309,-3.1499,-3.049,-3.0432,-3.0222,-2.9817,-2.9768,-2.9699,-2.9677,-2.9452,-2.9258,-2.9158,-2.8905,-2.8612,-2.8253,-2.8115,-2.7824,-2.7435,-2.7194,-2.7097,-2.701,-2.7371,-2.741,-2.6859,-2.6538,-2.6122,-2.5651,-2.5531,-2.5499,-2.5533,-2.5091,-2.4666,-2.4476,-2.4249,-2.394,-2.3406,-2.2857,-2.2505,-2.2519,-2.1904,-2.1478,-2.1387,-2.0996,-2.0673,-2.056,-2.0422,-2.022,-1.9978,-1.9978,-2.0029,-1.9862,-1.9798,-1.9798,-1.9798,-1.9798,-1.9962,-2.0175,-1.9987,-1.9843,-1.9949,-2.0019,-1.9993,-1.9818,-2.0455,-2.0665,-2.0379,-2.0251,-2.0346,-2.077,-2.0789,-2.06,-2.0328,-1.9539,-1.9075,-1.8751,-1.8472,-1.8269,-4.1108,-4.1116,-4.1113,-4.107,-4.1007,-4.0988,-4.0971,-4.0888,-4.0888,-4.0859,-4.0818,-4.0807,-4.0436,-3.9909,-3.9792,-3.976,-3.9816,-4.0347,-4.0215,-3.9512,-3.9493,-3.908,-3.8441,-3.8918,-3.9067,-3.8987,-3.9433,-3.9551,-3.9283,-3.912,-3.834,-3.7099,-3.671,-3.6139,-3.5291,-3.4389,-3.3618,-3.3103,-3.2952,-3.2632,-3.214,-3.2236,-3.1809,-3.0841,-3.0849,-3.0738,-3.0407,-3.019,-3.0056,-2.9989,-2.9712,-2.9416,-2.9121,-2.9049,-2.8757,-2.8212,-2.8132,-2.8068,-2.7881,-2.8333,-2.8404,-2.7945,-2.7588,-2.7099,-2.6625,-2.6336,-2.6378,-2.6549,-2.6303,-2.5979,-2.5564,-2.5355,-2.5038,-2.4568,-2.4075,-2.3715,-2.3275,-2.2536,-2.2072,-2.181,-2.1196,-2.0809,-2.0759,-2.0623,-2.0321,-2.0016,-2.0029,-1.9978,-1.9862,-1.9798,-1.9798,-1.9798,-1.9798,-2.0037,-2.0555,-2.0162,-2.011,-2.0453,-2.061,-2.0419,-2.0324,-2.1227,-2.1697,-2.0899,-2.1246,-2.144,-2.1474,-2.1449,-2.1134,-2.0595,-1.977,-1.8988,-1.8808,-1.8539,-1.8405,-4.1108,-4.1099,-4.1108,-4.1072,-4.0996,-4.0996,-4.0971,-4.0888,-4.0888,-4.0888,-4.0877,-4.0818,-4.0765,-4.0692,-4.0648,-4.0636,-4.0544,-4.0568,-4.0526,-4.0354,-4.0358,-4.0312,-4.0192,-4.0212,-4.0024,-3.9678,-3.975,-3.9642,-3.9373,-3.9138,-3.8581,-3.7739,-3.698,-3.6159,-3.5356,-3.451,-3.3913,-3.3784,-3.3742,-3.3697,-3.3615,-3.3478,-3.2524,-3.1024,-3.0424,-3.0598,-3.0972,-3.0924,-3.0768,-3.0663,-3.0521,-3.0052,-2.924,-2.9119,-2.9066,-2.9028,-2.9567,-2.9787,-2.9549,-2.9945,-3.0137,-2.9723,-2.8654,-2.7879,-2.779,-2.7226,-2.694,-2.6826,-2.718,-2.7126,-2.6598,-2.6248,-2.5844,-2.5248,-2.476,-2.412,-2.3125,-2.3145,-2.2407,-2.1903,-2.1372,-2.1082,-2.0845,-2.066,-2.0523,-2.0271,-2.0182,-2.0131,-1.9862,-1.9798,-1.9798,-1.9798,-1.9836,-2.0012,-2.0489,-2.0313,-2.0398,-2.0919,-2.1076,-2.0722,-2.0909,-2.1141,-2.132,-2.1435,-2.1642,-2.1849,-2.2066,-2.1916,-2.146,-2.0835,-2.003,-1.9378,-1.9121,-1.8741,-1.8549,-4.1103,-4.1113,-4.1108,-4.1066,-4.1003,-4.0996,-4.0952,-4.0888,-4.0888,-4.0878,-4.0828,-4.0818,-4.0804,-4.0815,-4.0803,-4.0746,-4.0602,-4.0588,-4.0564,-4.0504,-4.0489,-4.0473,-4.0425,-4.0425,-4.0323,-4.0139,-3.9962,-3.9698,-3.9309,-3.9129,-3.8887,-3.845,-3.7673,-3.6879,-3.6113,-3.5689,-3.4999,-3.4079,-3.4311,-3.4339,-3.3835,-3.3605,-3.3154,-3.2513,-3.201,-3.1865,-3.2097,-3.1829,-3.1637,-3.1602,-3.1313,-3.1008,-3.0643,-3.0051,-2.9722,-2.9719,-2.9956,-3.0032,-3.0022,-3.0572,-3.074,-3.0335,-2.9894,-2.9356,-2.8978,-2.8404,-2.7965,-2.7867,-2.7629,-2.7475,-2.7305,-2.7116,-2.6976,-2.6718,-2.6264,-2.5814,-2.5408,-2.4861,-2.419,-2.3393,-2.2443,-2.1568,-2.1313,-2.1104,-2.0822,-2.0435,-2.0422,-2.0271,-2.0016,-1.9914,-1.9926,-1.9811,-1.9823,-2.0137,-2.1104,-2.0727,-2.0677,-2.1437,-2.1813,-2.1763,-2.1811,-2.2076,-2.234,-2.1942,-2.2017,-2.2043,-2.2224,-2.1675,-2.1315,-2.1072,-2.0275,-1.9814,-1.9486,-1.9131,-1.8818,-4.1108,-4.1112,-4.1108,-4.1055,-4.0991,-4.0976,-4.0952,-4.0907,-4.0898,-4.0868,-4.0796,-4.0815,-4.08,-4.0803,-4.0778,-4.0713,-4.0602,-4.0588,-4.0579,-4.0504,-4.0489,-4.0489,-4.0489,-4.0489,-4.0389,-4.0196,-3.9939,-3.9604,-3.9237,-3.9101,-3.9007,-3.8826,-3.804,-3.7413,-3.6878,-3.6527,-3.5763,-3.4935,-3.4917,-3.4697,-3.4202,-3.3799,-3.3605,-3.3549,-3.3172,-3.283,-3.2687,-3.2386,-3.2179,-3.2037,-3.1763,-3.1538,-3.1355,-3.0811,-3.0463,-3.0463,-3.0463,-3.0463,-3.0514,-3.0937,-3.1055,-3.074,-3.0559,-3.0293,-2.9892,-2.9164,-2.8732,-2.8463,-2.7993,-2.756,-2.756,-2.756,-2.756,-2.756,-2.7291,-2.688,-2.636,-2.5894,-2.5142,-2.4083,-2.289,-2.2099,-2.1746,-2.141,-2.1019,-2.056,-2.0573,-2.0472,-2.0131,-2.0029,-2.013,-2.018,-2.0229,-2.0772,-2.1486,-2.1511,-2.1493,-2.2151,-2.2189,-2.2322,-2.2435,-2.2824,-2.2842,-2.2466,-2.231,-2.2311,-2.2006,-2.1436,-2.119,-2.1109,-2.0837,-2.0373,-1.9987,-1.9528,-1.9187,-4.1105,-4.1113,-4.111,-4.1074,-4.0999,-4.0984,-4.0971,-4.0907,-4.0898,-4.0856,-4.0792,-4.08,-4.0808,-4.079,-4.0746,-4.0668,-4.0602,-4.0588,-4.0564,-4.0504,-4.0489,-4.0489,-4.0489,-4.0489,-4.0319,-4.0003,-3.9708,-3.9432,-3.921,-3.9092,-3.895,-3.8674,-3.8033,-3.7592,-3.7558,-3.6875,-3.6423,-3.6084,-3.5542,-3.5137,-3.4899,-3.4275,-3.389,-3.3826,-3.3613,-3.3178,-3.2654,-3.2606,-3.2352,-3.1984,-3.1819,-3.1634,-3.1351,-3.1145,-3.114,-3.1106,-3.114,-3.1157,-3.114,-3.1157,-3.119,-3.1055,-3.0781,-3.0543,-3.0309,-2.9451,-2.8779,-2.8606,-2.8091,-2.7625,-2.761,-2.756,-2.756,-2.756,-2.7509,-2.6961,-2.5928,-2.5786,-2.5491,-2.411,-2.3187,-2.2427,-2.201,-2.1615,-2.1189,-2.0885,-2.0709,-2.0523,-2.0283,-2.0233,-2.0476,-2.0808,-2.0843,-2.1078,-2.1825,-2.245,-2.2682,-2.2874,-2.2585,-2.2472,-2.2485,-2.2677,-2.2483,-2.2159,-2.2091,-2.2068,-2.1559,-2.1093,-2.1021,-2.0946,-2.0811,-2.066,-2.0295,-1.9803,-1.9498,-4.1113,-4.111,-4.1101,-4.1061,-4.0991,-4.0976,-4.0971,-4.0888,-4.0898,-4.0867,-4.0815,-4.0812,-4.0796,-4.079,-4.0733,-4.0668,-4.0588,-4.0579,-4.0569,-4.0504,-4.0489,-4.0489,-4.0489,-4.0489,-4.0319,-4.0042,-3.9918,-3.9651,-3.9298,-3.9129,-3.8989,-3.8807,-3.8493,-3.8058,-3.761,-3.7783,-3.7526,-3.646,-3.6607,-3.6468,-3.5899,-3.5073,-3.4651,-3.455,-3.3897,-3.3316,-3.2961,-3.2737,-3.2438,-3.2108,-3.1819,-3.1521,-3.1274,-3.1213,-3.119,-3.119,-3.119,-3.119,-3.119,-3.119,-3.119,-3.1151,-3.1055,-3.0895,-3.0593,-2.9924,-2.9257,-2.8904,-2.8268,-2.779,-2.7625,-2.756,-2.756,-2.756,-2.756,-2.744,-2.6783,-2.6545,-2.6228,-2.5667,-2.4554,-2.3698,-2.3031,-2.2373,-2.1578,-2.1073,-2.0885,-2.0712,-2.0498,-2.0449,-2.0566,-2.099,-2.1049,-2.1453,-2.2223,-2.2698,-2.2783,-2.2975,-2.2849,-2.2498,-2.251,-2.2602,-2.2371,-2.195,-2.1895,-2.1534,-2.1041,-2.0816,-2.0806,-2.0629,-2.0498,-2.0369,-2.0336,-2.0065,-1.9727,-4.1112,-4.1107,-4.1116,-4.1057,-4.0991,-4.0976,-4.0963,-4.0898,-4.0877,-4.0826,-4.0792,-4.0808,-4.0815,-4.079,-4.07,-4.0635,-4.0588,-4.0583,-4.0558,-4.0504,-4.0489,-4.0489,-4.0489,-4.0441,-4.0286,-4.0042,-3.9941,-3.9702,-3.9324,-3.9237,-3.9092,-3.8892,-3.8792,-3.8529,-3.801,-3.8395,-3.812,-3.7349,-3.7367,-3.7268,-3.6597,-3.5605,-3.499,-3.4852,-3.4025,-3.3411,-3.3117,-3.2784,-3.2488,-3.2179,-3.1765,-3.1445,-3.123,-3.119,-3.119,-3.119,-3.119,-3.119,-3.119,-3.119,-3.119,-3.119,-3.119,-3.1015,-3.0675,-3.0156,-2.9528,-2.8951,-2.8317,-2.7905,-2.7675,-2.756,-2.756,-2.756,-2.756,-2.756,-2.7455,-2.6767,-2.6422,-2.6069,-2.5194,-2.4288,-2.3645,-2.2754,-2.2019,-2.1442,-2.1158,-2.0974,-2.0751,-2.082,-2.1082,-2.1417,-2.1841,-2.2296,-2.2821,-2.2959,-2.2858,-2.2962,-2.3075,-2.2673,-2.2506,-2.2799,-2.2755,-2.1827,-2.1482,-2.0798,-2.0298,-2.043,-2.0445,-2.0294,-2.025,-2.0557,-2.0611,-2.0154,-1.9766,-4.1112,-4.1107,-4.1114,-4.1057,-4.0986,-4.0984,-4.0954,-4.0907,-4.0837,-4.0804,-4.0815,-4.0803,-4.0803,-4.0759,-4.0668,-4.0602,-4.0574,-4.0534,-4.0523,-4.0489,-4.0489,-4.0489,-4.0489,-4.0392,-4.0233,-4.0022,-3.9916,-3.967,-3.935,-3.9298,-3.9165,-3.8968,-3.891,-3.8822,-3.8628,-3.8707,-3.8652,-3.8414,-3.79,-3.7606,-3.7477,-3.6101,-3.5202,-3.5119,-3.416,-3.3454,-3.3117,-3.2766,-3.2454,-3.2108,-3.1726,-3.1423,-3.123,-3.119,-3.119,-3.119,-3.119,-3.119,-3.119,-3.119,-3.119,-3.119,-3.119,-3.1015,-3.0651,-3.0172,-2.9544,-2.8858,-2.8381,-2.7955,-2.7675,-2.756,-2.756,-2.756,-2.756,-2.756,-2.752,-2.6542,-2.6363,-2.6389,-2.5331,-2.4224,-2.425,-2.3136,-2.2446,-2.1868,-2.1485,-2.1109,-2.1133,-2.1299,-2.1747,-2.207,-2.2415,-2.2673,-2.3096,-2.3208,-2.3094,-2.3,-2.31,-2.2786,-2.2397,-2.2627,-2.263,-2.174,-2.0973,-2.029,-1.978,-1.9889,-2.0009,-2.0001,-2.0258,-2.0807,-2.0813,-2.0403,-1.9867,-4.111,-4.1105,-4.1113,-4.1064,-4.0991,-4.0976,-4.0974,-4.0907,-4.0837,-4.0862,-4.0827,-4.0803,-4.0906,-4.081,-4.0706,-4.0588,-4.0631,-4.0534,-4.0489,-4.0489,-4.0489,-4.0489,-4.0489,-4.0457,-4.0304,-4.0042,-3.9941,-3.9788,-3.9514,-3.9369,-3.9237,-3.9045,-3.895,-3.8822,-3.8738,-3.8707,-3.8707,-3.8707,-3.8524,-3.8358,-3.8193,-3.7349,-3.6541,-3.5889,-3.4752,-3.3821,-3.3145,-3.2555,-3.2161,-3.191,-3.1691,-3.1445,-3.123,-3.119,-3.119,-3.119,-3.119,-3.119,-3.119,-3.119,-3.119,-3.119,-3.119,-3.0935,-3.0401,-3.0189,-2.956,-2.8795,-2.8348,-2.8103,-2.7725,-2.756,-2.756,-2.756,-2.756,-2.756,-2.75,-2.7305,-2.7141,-2.7215,-2.6524,-2.5742,-2.4907,-2.4009,-2.3049,-2.2261,-2.165,-2.1282,-2.1462,-2.1468,-2.1721,-2.2372,-2.2769,-2.2974,-2.3218,-2.3297,-2.3305,-2.31,-2.3037,-2.2862,-2.2439,-2.2243,-2.194,-2.1334,-2.084,-2.0141,-1.954,-1.9263,-1.9408,-1.966,-2.0133,-2.0546,-2.089,-2.0745,-2.0076,-4.1103,-4.1099,-4.11,-4.1065,-4.0996,-4.0996,-4.0954,-4.0936,-4.1225,-4.1327,-4.1376,-4.1712,-4.1835,-4.1835,-4.1382,-4.1166,-4.1109,-4.0688,-4.0489,-4.0489,-4.0489,-4.0489,-4.0489,-4.0489,-4.0339,-4.0042,-4.0022,-3.9832,-3.9607,-3.9483,-3.9317,-3.9129,-3.9017,-3.8881,-3.8707,-3.8707,-3.8707,-3.8707,-3.8707,-3.8707,-3.8634,-3.7918,-3.7253,-3.6474,-3.5426,-3.4365,-3.3392,-3.2792,-3.2312,-3.1849,-3.1596,-3.1445,-3.123,-3.119,-3.119,-3.119,-3.119,-3.119,-3.119,-3.119,-3.119,-3.119,-3.119,-3.0855,-3.0401,-3.0205,-2.971,-2.8621,-2.8444,-2.8152,-2.7725,-2.756,-2.756,-2.756,-2.756,-2.756,-2.756,-2.7545,-2.756,-2.7449,-2.711,-2.6568,-2.576,-2.4722,-2.3769,-2.2912,-2.2249,-2.2011,-2.1963,-2.1785,-2.189,-2.2633,-2.3137,-2.3373,-2.3392,-2.3492,-2.339,-2.3198,-2.3088,-2.2899,-2.2605,-2.2138,-2.1654,-2.1223,-2.0653,-2.0093,-1.9492,-1.9006,-1.9012,-1.9359,-1.9849,-2.0316,-2.0664,-2.0938,-2.0284,-4.1116,-4.1108,-4.1091,-4.1065,-4.0996,-4.0988,-4.1023,-4.1128,-4.1718,-4.2071,-4.2254,-4.2937,-4.3034,-4.3233,-4.2328,-4.1977,-4.1822,-4.1074,-4.0658,-4.0585,-4.0623,-4.0681,-4.0489,-4.0489,-4.0302,-4.0062,-4.0022,-3.9851,-3.9656,-3.9596,-3.9406,-3.9156,-3.9092,-3.8968,-3.875,-3.8707,-3.8707,-3.8707,-3.8707,-3.8707,-3.8615,-3.8083,-3.7516,-3.683,-3.584,-3.4795,-3.3847,-3.3277,-3.2763,-3.1788,-3.1589,-3.1385,-3.123,-3.119,-3.119,-3.119,-3.119,-3.119,-3.119,-3.119,-3.119,-3.119,-3.119,-3.0912,-3.0375,-3.0205,-2.9694,-2.8525,-2.8411,-2.8152,-2.7725,-2.756,-2.756,-2.756,-2.756,-2.756,-2.756,-2.756,-2.756,-2.7545,-2.7036,-2.6767,-2.6206,-2.5331,-2.4148,-2.3822,-2.3083,-2.2555,-2.2521,-2.2459,-2.2705,-2.3223,-2.3571,-2.3787,-2.3715,-2.3616,-2.345,-2.3258,-2.3138,-2.299,-2.2737,-2.232,-2.1689,-2.1197,-2.0921,-2.0273,-1.9468,-1.915,-1.8994,-1.9328,-2.0017,-2.0258,-2.0486,-2.0712,-2.0375,-4.1111,-4.1104,-4.105,-4.1025,-4.0996,-4.0999,-4.1315,-4.1815,-4.2047,-4.2555,-4.297,-4.3247,-4.3363,-4.3349,-4.3062,-4.2575,-4.2073,-4.1651,-4.12,-4.0604,-4.1277,-4.1046,-4.0662,-4.0546,-4.0341,-4.0081,-4.0022,-3.9873,-3.9674,-3.9546,-3.9399,-3.9129,-3.9036,-3.891,-3.8738,-3.8707,-3.8707,-3.8707,-3.8707,-3.8707,-3.8707,-3.8505,-3.7942,-3.7057,-3.589,-3.496,-3.4283,-3.3591,-3.2986,-3.25,-3.1914,-3.1509,-3.1308,-3.1213,-3.119,-3.119,-3.119,-3.119,-3.119,-3.119,-3.119,-3.119,-3.1151,-3.0895,-3.0333,-3.0189,-2.9649,-2.8811,-2.8444,-2.8137,-2.7725,-2.761,-2.756,-2.756,-2.756,-2.756,-2.756,-2.756,-2.756,-2.7565,-2.7475,-2.7171,-2.6662,-2.5657,-2.4875,-2.4575,-2.392,-2.3183,-2.3044,-2.308,-2.331,-2.3681,-2.365,-2.3787,-2.3826,-2.37,-2.3509,-2.333,-2.3198,-2.3017,-2.2775,-2.2579,-2.2006,-2.1631,-2.1319,-2.0571,-1.96,-1.9347,-1.9226,-1.9722,-2.0103,-2.0485,-2.0689,-2.077,-2.0775,-4.1111,-4.109,-4.1019,-4.0999,-4.1046,-4.141,-4.1781,-4.2241,-4.2974,-4.3511,-4.3937,-4.4272,-4.4452,-4.4418,-4.4008,-4.3496,-4.3046,-4.2579,-4.22,-4.1893,-4.22,-4.1879,-4.1176,-4.0929,-4.0709,-4.0118,-3.992,-3.9781,-3.9631,-3.952,-3.9373,-3.9101,-3.9036,-3.8881,-3.8738,-3.8707,-3.8707,-3.8707,-3.8707,-3.8707,-3.8707,-3.8689,-3.8342,-3.7422,-3.6435,-3.5713,-3.5084,-3.4561,-3.399,-3.3291,-3.2479,-3.1725,-3.1342,-3.1213,-3.119,-3.119,-3.119,-3.119,-3.119,-3.119,-3.119,-3.119,-3.1151,-3.0814,-3.0384,-3.0172,-2.9633,-2.8936,-2.8525,-2.8186,-2.7725,-2.7625,-2.761,-2.756,-2.756,-2.756,-2.756,-2.756,-2.756,-2.756,-2.7545,-2.7395,-2.6812,-2.5904,-2.549,-2.5177,-2.4042,-2.3344,-2.3683,-2.3717,-2.3686,-2.3864,-2.3772,-2.3793,-2.3813,-2.37,-2.3522,-2.333,-2.321,-2.303,-2.2726,-2.2592,-2.242,-2.1946,-2.1427,-2.0692,-1.9877,-1.9694,-1.9499,-1.9654,-2.0011,-2.0605,-2.1009,-2.1008,-2.1099,-4.1111,-4.1106,-4.1026,-4.105,-4.1299,-4.1888,-4.2343,-4.2803,-4.3969,-4.4511,-4.4813,-4.5432,-4.5341,-4.5525,-4.4776,-4.4461,-4.4113,-4.3445,-4.2835,-4.2854,-4.3124,-4.2672,-4.2027,-4.1858,-4.1513,-4.0418,-3.9968,-3.975,-3.9583,-3.9502,-3.9346,-3.912,-3.9007,-3.8881,-3.8719,-3.8707,-3.8707,-3.8707,-3.8707,-3.8707,-3.8707,-3.8676,-3.8364,-3.7754,-3.7104,-3.6474,-3.588,-3.537,-3.4915,-3.4157,-3.3191,-3.2343,-3.1738,-3.1241,-3.119,-3.119,-3.119,-3.119,-3.119,-3.119,-3.119,-3.119,-3.1055,-3.0855,-3.051,-3.007,-2.9589,-2.9044,-2.8558,-2.8137,-2.779,-2.7675,-2.761,-2.756,-2.756,-2.756,-2.756,-2.756,-2.756,-2.756,-2.7575,-2.7384,-2.6956,-2.6273,-2.6046,-2.5604,-2.4467,-2.3808,-2.4136,-2.421,-2.406,-2.4021,-2.3942,-2.3903,-2.3956,-2.376,-2.3522,-2.345,-2.3271,-2.303,-2.2739,-2.2641,-2.2457,-2.1922,-2.1296,-2.0718,-2.0229,-1.9856,-1.9717,-1.9657,-1.9918,-2.0511,-2.0926,-2.126,-2.1424,-4.1117,-4.1095,-4.1025,-4.1404,-4.2038,-4.2189,-4.2992,-4.416,-4.4492,-4.4995,-4.5471,-4.5084,-4.5302,-4.5413,-4.4834,-4.443,-4.4256,-4.3739,-4.3316,-4.3412,-4.3778,-4.3574,-4.2814,-4.2945,-4.2702,-4.1768,-4.065,-3.9816,-3.9602,-3.9444,-3.9293,-3.9064,-3.895,-3.8851,-3.8719,-3.8707,-3.8707,-3.8707,-3.8707,-3.8707,-3.8707,-3.8596,-3.8336,-3.7756,-3.7129,-3.6724,-3.6371,-3.5706,-3.5087,-3.4692,-3.3877,-3.3362,-3.2838,-3.1935,-3.1427,-3.136,-3.1326,-3.1326,-3.1326,-3.1207,-3.119,-3.119,-3.1072,-3.0838,-3.0468,-3.007,-2.9528,-2.8997,-2.8414,-2.7955,-2.7675,-2.7625,-2.761,-2.756,-2.756,-2.756,-2.756,-2.756,-2.7575,-2.7575,-2.7473,-2.7408,-2.6994,-2.6562,-2.6232,-2.5798,-2.4935,-2.4475,-2.4714,-2.4482,-2.4099,-2.4099,-2.4086,-2.4086,-2.4054,-2.3819,-2.3569,-2.3509,-2.333,-2.303,-2.2848,-2.2739,-2.2408,-2.1971,-2.1728,-2.1452,-2.0901,-2.0272,-2.0296,-2.0461,-2.051,-2.0464,-2.1093,-2.1776,-2.1848,-4.1081,-4.1039,-4.1018,-4.1494,-4.2246,-4.2684,-4.3532,-4.4633,-4.506,-4.5427,-4.5601,-4.5413,-4.5385,-4.5553,-4.5349,-4.5054,-4.4833,-4.4624,-4.4393,-4.4528,-4.4739,-4.4364,-4.3423,-4.37,-4.3061,-4.2052,-4.0879,-4.0228,-4.0038,-3.9612,-3.9303,-3.9036,-3.8939,-3.8822,-3.8719,-3.8707,-3.8707,-3.8707,-3.8707,-3.8689,-3.8627,-3.8451,-3.7966,-3.7487,-3.7108,-3.6788,-3.6516,-3.6118,-3.5675,-3.5352,-3.4585,-3.4134,-3.366,-3.3085,-3.2341,-3.229,-3.1968,-3.1749,-3.1647,-3.1461,-3.1151,-3.1112,-3.0992,-3.0733,-3.0342,-2.9913,-2.9364,-2.8732,-2.8365,-2.7905,-2.774,-2.7625,-2.761,-2.756,-2.756,-2.756,-2.756,-2.756,-2.7575,-2.7524,-2.7437,-2.7357,-2.7166,-2.6762,-2.6404,-2.5862,-2.5216,-2.5108,-2.5181,-2.4682,-2.4125,-2.4125,-2.4125,-2.4125,-2.4125,-2.3878,-2.37,-2.3628,-2.339,-2.309,-2.2848,-2.2726,-2.2494,-2.2163,-2.2017,-2.1849,-2.1344,-2.0628,-2.0949,-2.1212,-2.0997,-2.0997,-2.1679,-2.2185,-2.2197,-4.1067,-4.1007,-4.1011,-4.1474,-4.2276,-4.305,-4.387,-4.473,-4.5473,-4.5761,-4.578,-4.5573,-4.5525,-4.5677,-4.5687,-4.5618,-4.5586,-4.5509,-4.5451,-4.5432,-4.547,-4.4959,-4.4336,-4.3938,-4.3649,-4.2848,-4.1503,-4.0862,-4.0424,-3.9728,-3.9276,-3.9026,-3.8939,-3.8822,-3.8719,-3.8707,-3.8707,-3.8658,-3.8676,-3.8658,-3.8515,-3.8153,-3.7667,-3.7264,-3.6992,-3.6748,-3.6527,-3.6224,-3.6037,-3.5753,-3.5239,-3.4709,-3.4624,-3.4167,-3.3863,-3.3711,-3.3,-3.2611,-3.2341,-3.181,-3.1449,-3.1369,-3.0996,-3.0643,-3.0189,-2.9633,-2.8997,-2.8332,-2.8054,-2.789,-2.774,-2.7675,-2.761,-2.756,-2.756,-2.756,-2.756,-2.7575,-2.7524,-2.7488,-2.7386,-2.7255,-2.7108,-2.6776,-2.6416,-2.6103,-2.5446,-2.5053,-2.5043,-2.4527,-2.4125,-2.4125,-2.4125,-2.4125,-2.4067,-2.4008,-2.3832,-2.3772,-2.345,-2.309,-2.2848,-2.2665,-2.242,-2.2247,-2.2029,-2.1813,-2.1368,-2.1164,-2.1308,-2.132,-2.1296,-2.1475,-2.1944,-2.2185,-2.2197,-4.1089,-4.1085,-4.1011,-4.1502,-4.238,-4.31,-4.3897,-4.4788,-4.5512,-4.58,-4.5742,-4.51,-4.5167,-4.5584,-4.5637,-4.5603,-4.5586,-4.5586,-4.5586,-4.5586,-4.5586,-4.5362,-4.4957,-4.4931,-4.4486,-4.3659,-4.2425,-4.1397,-4.067,-3.9768,-3.9138,-3.8968,-3.891,-3.884,-3.8689,-3.8707,-3.864,-3.8559,-3.8559,-3.8496,-3.8401,-3.8186,-3.7809,-3.745,-3.7147,-3.6788,-3.6485,-3.6191,-3.6019,-3.5975,-3.5688,-3.547,-3.547,-3.5391,-3.5368,-3.4962,-3.4201,-3.3271,-3.3169,-3.2495,-3.2015,-3.1816,-3.1282,-3.0667,-2.9984,-2.9303,-2.8622,-2.8118,-2.7905,-2.779,-2.7675,-2.7625,-2.756,-2.756,-2.756,-2.756,-2.756,-2.7575,-2.7539,-2.7386,-2.7335,-2.7196,-2.7026,-2.6707,-2.6385,-2.604,-2.5742,-2.5328,-2.4878,-2.4447,-2.4125,-2.4125,-2.4125,-2.4125,-2.4125,-2.4008,-2.3962,-2.3962,-2.3475,-2.3042,-2.2836,-2.2653,-2.2359,-2.2211,-2.2017,-2.1981,-2.1837,-2.1656,-2.162,-2.1608,-2.1632,-2.1788,-2.2089,-2.2173,-2.2209,-4.1084,-4.1052,-4.1003,-4.1766,-4.2946,-4.3303,-4.416,-4.5253,-4.5686,-4.58,-4.5761,-4.5448,-4.5441,-4.5668,-4.562,-4.5586,-4.5586,-4.5586,-4.5586,-4.5586,-4.5568,-4.54,-4.5151,-4.5061,-4.487,-4.4204,-4.3194,-4.2081,-4.1092,-3.9909,-3.9064,-3.8939,-3.8881,-3.8792,-3.8707,-3.8707,-3.8609,-3.851,-3.8428,-3.835,-3.8186,-3.8018,-3.7739,-3.7243,-3.7009,-3.6731,-3.6444,-3.6233,-3.6062,-3.5993,-3.58,-3.5684,-3.5622,-3.5605,-3.5605,-3.5554,-3.5081,-3.4489,-3.4015,-3.3178,-3.279,-3.2412,-3.1672,-3.062,-2.9704,-2.8936,-2.8429,-2.8054,-2.7955,-2.779,-2.7625,-2.761,-2.756,-2.756,-2.756,-2.756,-2.7575,-2.7575,-2.7539,-2.7386,-2.7262,-2.7151,-2.6986,-2.6761,-2.6572,-2.6304,-2.5923,-2.548,-2.4989,-2.4447,-2.4229,-2.4125,-2.4125,-2.4125,-2.4125,-2.4067,-2.4106,-2.4001,-2.3419,-2.3092,-2.2909,-2.2653,-2.2454,-2.2231,-2.2049,-2.2037,-2.2147,-2.2027,-2.1872,-2.1896,-2.1944,-2.2087,-2.2219,-2.2183,-2.2166,-4.1052,-4.0986,-4.0984,-4.1863,-4.3199,-4.3341,-4.4199,-4.5517,-4.5744,-4.58,-4.5786,-4.5737,-4.57,-4.5693,-4.5622,-4.5586,-4.5586,-4.5586,-4.5586,-4.5586,-4.5532,-4.5361,-4.5151,-4.5038,-4.4796,-4.4364,-4.339,-4.2445,-4.1408,-4.03,-3.9285,-3.8929,-3.8862,-3.8762,-3.8738,-3.8658,-3.8559,-3.8433,-3.8401,-3.8271,-3.8052,-3.7984,-3.7613,-3.7203,-3.6891,-3.6673,-3.6343,-3.6233,-3.6122,-3.5975,-3.5844,-3.5728,-3.5622,-3.5639,-3.5639,-3.5577,-3.5374,-3.5222,-3.4638,-3.3994,-3.352,-3.294,-3.2048,-3.0757,-2.9516,-2.8821,-2.8357,-2.805,-2.789,-2.779,-2.7675,-2.756,-2.756,-2.756,-2.756,-2.756,-2.7575,-2.7584,-2.7518,-2.7335,-2.7189,-2.7193,-2.7012,-2.6866,-2.6705,-2.6529,-2.6173,-2.5674,-2.5179,-2.4686,-2.4432,-2.4295,-2.4191,-2.4191,-2.4191,-2.4191,-2.4217,-2.4123,-2.3596,-2.3355,-2.3356,-2.303,-2.2643,-2.2436,-2.2246,-2.2424,-2.2674,-2.2357,-2.2123,-2.2123,-2.2147,-2.2241,-2.2261,-2.2324,-2.2313,-4.1065,-4.0986,-4.0984,-4.156,-4.2516,-4.3139,-4.3947,-4.5033,-4.5537,-4.5722,-4.567,-4.5746,-4.5668,-4.562,-4.5622,-4.5586,-4.5586,-4.5586,-4.5586,-4.5531,-4.54,-4.526,-4.5087,-4.4895,-4.4674,-4.428,-4.3586,-4.2725,-4.1762,-4.0985,-3.983,-3.9003,-3.8936,-3.881,-3.8701,-3.8578,-3.8465,-3.8354,-3.834,-3.8204,-3.807,-3.7949,-3.7721,-3.7206,-3.7031,-3.6834,-3.6343,-3.6233,-3.6122,-3.6002,-3.5888,-3.5711,-3.5622,-3.5622,-3.5639,-3.5594,-3.5566,-3.5419,-3.5088,-3.4594,-3.4108,-3.3491,-3.2413,-3.1006,-2.9859,-2.9269,-2.8738,-2.8323,-2.8299,-2.7936,-2.776,-2.759,-2.7724,-2.756,-2.7575,-2.7575,-2.7584,-2.7652,-2.7535,-2.7277,-2.7143,-2.719,-2.6949,-2.6773,-2.7109,-2.7001,-2.668,-2.6224,-2.5774,-2.5289,-2.48,-2.4517,-2.4334,-2.4295,-2.4308,-2.4439,-2.4805,-2.4671,-2.4241,-2.4141,-2.4174,-2.3668,-2.2822,-2.2869,-2.2751,-2.2963,-2.3022,-2.2639,-2.2389,-2.2312,-2.2324,-2.2519,-2.2663,-2.2751,-2.2772,-4.102,-4.0979,-4.0996,-4.1777,-4.3052,-4.3303,-4.418,-4.5234,-4.5189,-4.5017,-4.4993,-4.5433,-4.5654,-4.5603,-4.5586,-4.5586,-4.5586,-4.5586,-4.5586,-4.5531,-4.54,-4.5239,-4.5042,-4.4821,-4.4587,-4.4279,-4.3826,-4.3234,-4.2382,-4.1698,-4.0811,-4.0011,-3.9195,-3.8847,-3.867,-3.8528,-3.8401,-3.8322,-3.8241,-3.8156,-3.8018,-3.7828,-3.7595,-3.7167,-3.6908,-3.669,-3.6343,-3.6276,-3.6148,-3.6036,-3.5949,-3.5834,-3.5656,-3.5656,-3.5673,-3.5594,-3.552,-3.5492,-3.5429,-3.491,-3.4349,-3.3177,-3.2269,-3.1322,-3.0379,-2.9976,-2.9693,-2.9362,-2.9025,-2.8755,-2.8233,-2.8203,-2.8143,-2.7754,-2.7604,-2.7649,-2.7682,-2.7824,-2.7743,-2.7586,-2.7413,-2.7287,-2.6957,-2.6597,-2.7113,-2.7513,-2.7125,-2.6785,-2.637,-2.5807,-2.5314,-2.5014,-2.4883,-2.4909,-2.4949,-2.5197,-2.5423,-2.5152,-2.481,-2.4701,-2.4534,-2.3525,-2.2873,-2.3056,-2.3229,-2.3173,-2.3056,-2.2807,-2.2639,-2.2716,-2.2811,-2.2982,-2.3109,-2.3255,-2.319,-4.0993,-4.0991,-4.098,-4.1818,-4.3034,-4.305,-4.3812,-4.4885,-4.4473,-4.4327,-4.443,-4.5073,-4.5445,-4.5526,-4.5586,-4.5586,-4.5586,-4.5586,-4.5549,-4.5457,-4.5321,-4.5154,-4.4967,-4.4745,-4.4496,-4.4258,-4.3871,-4.3297,-4.2705,-4.2465,-4.1366,-4.0203,-3.9485,-3.9099,-3.859,-3.8483,-3.8354,-3.8274,-3.8174,-3.8088,-3.7915,-3.7685,-3.7429,-3.7069,-3.6846,-3.6585,-3.6385,-3.6301,-3.6174,-3.6148,-3.6146,-3.6048,-3.5898,-3.5791,-3.5808,-3.5661,-3.5503,-3.5446,-3.5337,-3.4927,-3.4267,-3.3253,-3.2665,-3.1774,-3.101,-3.0652,-3.0387,-2.9902,-2.9864,-2.9652,-2.8914,-2.8682,-2.8457,-2.8098,-2.8053,-2.8098,-2.8159,-2.8218,-2.8066,-2.7935,-2.7792,-2.7816,-2.7953,-2.7726,-2.7598,-2.7907,-2.7506,-2.7215,-2.6986,-2.6436,-2.5827,-2.5638,-2.5576,-2.5654,-2.5772,-2.5866,-2.5895,-2.5743,-2.5403,-2.5012,-2.459,-2.3671,-2.3271,-2.3537,-2.363,-2.3444,-2.3398,-2.3329,-2.3245,-2.3167,-2.3241,-2.3382,-2.3537,-2.3734,-2.3651,-4.0991,-4.0996,-4.0991,-4.1468,-4.2189,-4.2177,-4.2707,-4.3664,-4.3524,-4.3694,-4.4141,-4.4418,-4.4906,-4.5372,-4.547,-4.5586,-4.5586,-4.5586,-4.5513,-4.5361,-4.5027,-4.4938,-4.4739,-4.4484,-4.4214,-4.4071,-4.3562,-4.3044,-4.2779,-4.2261,-4.1206,-4.0283,-3.9657,-3.9221,-3.8546,-3.8368,-3.8274,-3.8174,-3.8088,-3.7967,-3.7846,-3.7558,-3.7241,-3.6987,-3.6748,-3.6502,-3.636,-3.6259,-3.6242,-3.6275,-3.6461,-3.6355,-3.5938,-3.6231,-3.6146,-3.5645,-3.5429,-3.5337,-3.5245,-3.4707,-3.407,-3.3447,-3.2867,-3.2222,-3.1574,-3.1229,-3.096,-3.0608,-3.0258,-2.9946,-2.9477,-2.9086,-2.8861,-2.8622,-2.8592,-2.8554,-2.8628,-2.8847,-2.8733,-2.8341,-2.838,-2.8512,-2.894,-2.9004,-2.8502,-2.8232,-2.7831,-2.7625,-2.7515,-2.7042,-2.6351,-2.6345,-2.6321,-2.6308,-2.6348,-2.6349,-2.6349,-2.6202,-2.5866,-2.5345,-2.4915,-2.4319,-2.4059,-2.416,-2.3973,-2.3802,-2.3939,-2.4097,-2.3873,-2.3607,-2.3607,-2.3723,-2.3962,-2.4074,-2.3933,-4.0996,-4.098,-4.0935,-4.1082,-4.1393,-4.1895,-4.259,-4.3296,-4.3272,-4.3067,-4.3023,-4.375,-4.4429,-4.4816,-4.5355,-4.5586,-4.5586,-4.5586,-4.5495,-4.5226,-4.4696,-4.4611,-4.4449,-4.4026,-4.381,-4.3901,-4.3364,-4.2698,-4.2779,-4.21,-4.1231,-4.0357,-3.9417,-3.8802,-3.8488,-3.8354,-3.8274,-3.8174,-3.8088,-3.7933,-3.7685,-3.7392,-3.7087,-3.6788,-3.6585,-3.6402,-3.6233,-3.6233,-3.6277,-3.6376,-3.6621,-3.6282,-3.6079,-3.6434,-3.5915,-3.5554,-3.5354,-3.5088,-3.4851,-3.4349,-3.4,-3.3503,-3.2942,-3.2454,-3.2074,-3.2004,-3.1741,-3.1384,-3.1091,-3.0815,-3.0278,-3.0058,-2.9804,-2.9355,-2.925,-2.9074,-2.9129,-2.9478,-2.953,-2.8884,-2.8642,-2.8425,-2.8604,-2.8987,-2.8757,-2.832,-2.7884,-2.8015,-2.7976,-2.7457,-2.6876,-2.7078,-2.7105,-2.7027,-2.6961,-2.6842,-2.6537,-2.6333,-2.5934,-2.5411,-2.5052,-2.4611,-2.4455,-2.4253,-2.4227,-2.4189,-2.4189,-2.4177,-2.4146,-2.3973,-2.3976,-2.3964,-2.41,-2.4143,-2.4143,-4.098,-4.0991,-4.0945,-4.0888,-4.0974,-4.1438,-4.1997,-4.2395,-4.2342,-4.2092,-4.2221,-4.333,-4.4085,-4.4489,-4.5143,-4.5586,-4.5586,-4.5513,-4.5055,-4.4838,-4.4456,-4.4264,-4.3936,-4.3493,-4.3417,-4.3423,-4.2701,-4.198,-4.2198,-4.1853,-4.1009,-3.9945,-3.893,-3.8561,-3.8336,-3.8289,-3.8189,-3.814,-3.802,-3.7828,-3.754,-3.7241,-3.697,-3.6725,-3.652,-3.6276,-3.6208,-3.6251,-3.6302,-3.6416,-3.635,-3.6169,-3.6231,-3.6122,-3.5706,-3.5547,-3.5245,-3.4947,-3.4594,-3.405,-3.3745,-3.345,-3.285,-3.2578,-3.2453,-3.2321,-3.2185,-3.2018,-3.1996,-3.1585,-3.0968,-3.0791,-3.0372,-2.9909,-2.9854,-2.9674,-2.9696,-3.0026,-3.0032,-2.9377,-2.8911,-2.8618,-2.8387,-2.8528,-2.8697,-2.8288,-2.7908,-2.8126,-2.8261,-2.7608,-2.718,-2.738,-2.7484,-2.7353,-2.7181,-2.7113,-2.6815,-2.6471,-2.5931,-2.5382,-2.4969,-2.4562,-2.449,-2.4418,-2.4273,-2.4189,-2.4189,-2.4154,-2.4181,-2.4169,-2.4241,-2.4192,-2.4189,-2.4189,-2.4189,-4.0982,-4.0982,-4.0936,-4.0888,-4.0897,-4.0884,-4.0866,-4.0758,-4.0717,-4.1133,-4.1898,-4.264,-4.3412,-4.4259,-4.5066,-4.5355,-4.528,-4.5151,-4.4535,-4.4119,-4.3957,-4.3787,-4.3444,-4.3016,-4.2938,-4.2358,-4.1638,-4.1074,-4.1322,-4.0677,-4.0062,-3.969,-3.8848,-3.846,-3.8289,-3.8189,-3.8122,-3.8054,-3.7916,-3.7685,-3.7392,-3.7164,-3.6891,-3.6626,-3.6419,-3.6233,-3.6165,-3.6174,-3.6112,-3.6202,-3.6384,-3.6163,-3.6122,-3.6198,-3.59,-3.5462,-3.5058,-3.4804,-3.4448,-3.3899,-3.3555,-3.3361,-3.3058,-3.2757,-3.2508,-3.2398,-3.2247,-3.2094,-3.194,-3.1769,-3.1492,-3.1046,-3.0672,-3.0496,-3.044,-3.0372,-3.0317,-3.0367,-3.0395,-2.9992,-2.9562,-2.9252,-2.8904,-2.8919,-2.875,-2.8442,-2.8116,-2.7927,-2.7877,-2.7322,-2.7078,-2.7419,-2.7523,-2.7456,-2.7403,-2.7201,-2.685,-2.6427,-2.5804,-2.5241,-2.4838,-2.4562,-2.4418,-2.4345,-2.4261,-2.4189,-2.4189,-2.4189,-2.4177,-2.4261,-2.4261,-2.4273,-2.42,-2.4273,-2.4261,-4.0982,-4.0982,-4.0937,-4.0858,-4.0826,-4.0757,-4.0707,-4.07,-4.0621,-4.0805,-4.1031,-4.1813,-4.2701,-4.3451,-4.372,-4.4182,-4.4207,-4.3905,-4.3348,-4.3161,-4.3279,-4.3189,-4.2921,-4.2548,-4.2489,-4.2047,-4.1223,-4.0219,-4.0251,-3.9619,-3.9473,-3.9469,-3.8747,-3.8343,-3.8171,-3.8088,-3.8036,-3.7967,-3.7828,-3.754,-3.7261,-3.7048,-3.6771,-3.6485,-3.6335,-3.6208,-3.6122,-3.5993,-3.6031,-3.6457,-3.6079,-3.5958,-3.7205,-3.6256,-3.5392,-3.5108,-3.4835,-3.4643,-3.4349,-3.4,-3.3658,-3.3309,-3.3058,-3.2757,-3.2508,-3.2318,-3.2252,-3.2175,-3.2076,-3.1877,-3.1717,-3.136,-3.1091,-3.0989,-3.0875,-3.0789,-3.066,-3.047,-3.0447,-3.004,-2.9695,-2.9473,-2.9228,-2.8998,-2.883,-2.8549,-2.829,-2.8029,-2.7692,-2.7114,-2.7,-2.7406,-2.7469,-2.7469,-2.7335,-2.7146,-2.6782,-2.6289,-2.5734,-2.5241,-2.4897,-2.4622,-2.4418,-2.4345,-2.4273,-2.4273,-2.4189,-2.4189,-2.4189,-2.4189,-2.42,-2.42,-2.4273,-2.4273,-2.4261,-4.0945,-4.0966,-4.0888,-4.0837,-4.0792,-4.0739,-4.0668,-4.0654,-4.0626,-4.0583,-4.0669,-4.1466,-4.2085,-4.2585,-4.3008,-4.3412,-4.3722,-4.3197,-4.2713,-4.2664,-4.2508,-4.2615,-4.2436,-4.1996,-4.1712,-4.1308,-4.057,-3.9557,-3.946,-3.9118,-3.8907,-3.897,-3.8482,-3.8225,-3.8002,-3.7933,-3.788,-3.781,-3.7667,-3.7392,-3.7164,-3.693,-3.665,-3.6385,-3.6251,-3.6122,-3.5993,-3.5861,-3.6017,-3.6282,-3.5655,-3.5782,-3.6544,-3.5599,-3.534,-3.5133,-3.4823,-3.4611,-3.43,-3.3848,-3.3539,-3.3293,-3.292,-3.2633,-3.2622,-3.2563,-3.2532,-3.254,-3.2322,-3.2103,-3.1882,-3.1661,-3.1541,-3.1437,-3.1263,-3.1146,-3.0866,-3.0628,-3.0251,-2.9917,-2.9662,-2.9482,-2.9279,-2.9111,-2.8895,-2.8675,-2.8443,-2.813,-2.7816,-2.7366,-2.7289,-2.7471,-2.7456,-2.7469,-2.7281,-2.7079,-2.6726,-2.6289,-2.5734,-2.5241,-2.4957,-2.4611,-2.4334,-2.4345,-2.4345,-2.4273,-2.42,-2.42,-2.4189,-2.42,-2.42,-2.4273,-2.4273,-2.4261,-2.4261,-4.0714,-4.0752,-4.0721,-4.0688,-4.0776,-4.0713,-4.0654,-4.0588,-4.0583,-4.0554,-4.0677,-4.1316,-4.17,-4.2027,-4.2354,-4.2684,-4.2675,-4.2259,-4.1888,-4.2281,-4.2341,-4.2248,-4.1782,-4.151,-4.1078,-4.0182,-3.9483,-3.9061,-3.8835,-3.864,-3.8501,-3.8307,-3.8189,-3.8036,-3.7881,-3.7774,-3.7721,-3.7595,-3.7449,-3.7241,-3.7027,-3.6806,-3.6602,-3.636,-3.6233,-3.6122,-3.5993,-3.5861,-3.5701,-3.5583,-3.558,-3.5555,-3.5554,-3.5278,-3.5447,-3.5235,-3.4857,-3.448,-3.4151,-3.3745,-3.345,-3.3134,-3.2796,-3.2523,-3.2552,-3.2553,-3.2505,-3.2437,-3.2189,-3.2015,-3.1824,-3.1558,-3.1366,-3.1219,-3.1043,-3.0866,-3.0702,-3.0401,-3.0021,-2.9747,-2.9623,-2.949,-2.949,-2.9336,-2.9128,-2.8898,-2.8588,-2.8284,-2.7927,-2.7564,-2.7472,-2.7523,-2.7456,-2.7403,-2.7214,-2.7011,-2.6726,-2.6302,-2.5734,-2.5312,-2.5028,-2.4683,-2.4189,-2.4273,-2.4273,-2.4273,-2.4273,-2.42,-2.42,-2.42,-2.4273,-2.4345,-2.4345,-2.4261,-2.4189,-3.9364,-3.9898,-3.9846,-4.0138,-4.0688,-4.0654,-4.0626,-4.0603,-4.0539,-4.0523,-4.0562,-4.0777,-4.12,-4.17,-4.1357,-4.1536,-4.1741,-4.1264,-4.0625,-4.0851,-4.1255,-4.1501,-4.0952,-4.0754,-4.0396,-3.9926,-3.9319,-3.8732,-3.867,-3.8528,-3.8368,-3.8307,-3.8104,-3.7915,-3.7775,-3.7703,-3.7631,-3.7485,-3.7241,-3.7126,-3.6987,-3.6788,-3.6585,-3.6318,-3.6191,-3.6079,-3.5932,-3.5756,-3.5639,-3.5525,-3.5988,-3.6235,-3.6439,-3.5844,-3.558,-3.538,-3.4807,-3.4398,-3.405,-3.3658,-3.3346,-3.3134,-3.2796,-3.2563,-3.2419,-3.2333,-3.2327,-3.2243,-3.2116,-3.203,-3.181,-3.1485,-3.1102,-3.0984,-3.0807,-3.0628,-3.0447,-3.0144,-2.9775,-2.9727,-2.9602,-2.9602,-2.9602,-2.9512,-2.9331,-2.9101,-2.8721,-2.8441,-2.809,-2.7696,-2.7472,-2.7456,-2.7403,-2.7281,-2.7079,-2.6943,-2.6658,-2.6302,-2.5746,-2.5453,-2.5182,-2.4683,-2.4189,-2.4189,-2.42,-2.42,-2.4273,-2.42,-2.42,-2.42,-2.42,-2.4273,-2.4273,-2.4189,-2.4189,-3.8957,-3.9063,-3.9336,-3.9714,-4.0127,-4.0453,-4.0583,-4.0588,-4.0504,-4.0489,-4.0489,-4.0527,-4.0777,-4.1204,-4.0633,-4.0545,-4.0883,-4.0288,-4.0409,-4.0476,-4.0347,-4.0614,-4.0458,-4.0195,-3.9808,-3.9448,-3.8995,-3.8609,-3.8578,-3.8401,-3.8238,-3.8156,-3.7984,-3.781,-3.7685,-3.7631,-3.7559,-3.7429,-3.7143,-3.7027,-3.693,-3.669,-3.6485,-3.6259,-3.6148,-3.6019,-3.5932,-3.5756,-3.5549,-3.5417,-3.5502,-3.6092,-3.6157,-3.5646,-3.5332,-3.5183,-3.4789,-3.425,-3.4048,-3.3738,-3.3388,-3.3212,-3.2773,-3.2514,-3.245,-3.2497,-3.295,-3.2925,-3.2885,-3.2766,-3.2422,-3.2153,-3.1397,-3.0983,-3.0671,-3.0387,-3.0144,-2.9898,-2.9713,-2.9665,-2.9602,-2.9602,-2.9602,-2.9602,-2.9435,-2.9121,-2.878,-2.8565,-2.8225,-2.804,-2.7773,-2.7533,-2.7569,-2.7224,-2.693,-2.6807,-2.6658,-2.6245,-2.5938,-2.5289,-2.4873,-2.449,-2.4189,-2.4189,-2.4189,-2.42,-2.42,-2.4189,-2.4189,-2.42,-2.42,-2.42,-2.4189,-2.4189,-2.4189,-3.8656,-3.8266,-3.8786,-3.9123,-3.9341,-4.0077,-4.0395,-4.0419,-4.0466,-4.0489,-4.0489,-4.0489,-4.0489,-4.0457,-4.0358,-4.0325,-4.0215,-3.9996,-4.0242,-4.0382,-4.033,-4.0205,-4.0039,-3.9922,-3.9405,-3.9007,-3.8627,-3.851,-3.8478,-3.8234,-3.8086,-3.7949,-3.781,-3.7667,-3.7613,-3.7577,-3.754,-3.7354,-3.7143,-3.697,-3.6771,-3.6568,-3.6385,-3.6216,-3.6088,-3.6019,-3.5932,-3.5756,-3.552,-3.5499,-3.5446,-3.6075,-3.6137,-3.5791,-3.5689,-3.5473,-3.5031,-3.4704,-3.4452,-3.4165,-3.3794,-3.337,-3.2858,-3.2644,-3.2711,-3.2909,-3.3361,-3.3396,-3.3427,-3.3093,-3.2807,-3.2237,-3.1438,-3.0862,-3.0459,-3.0158,-2.9913,-2.9741,-2.9693,-2.9645,-2.9645,-2.9645,-2.9771,-2.9757,-2.9582,-2.9251,-2.8971,-2.8621,-2.8412,-2.8368,-2.8213,-2.8036,-2.7911,-2.7498,-2.7023,-2.6873,-2.688,-2.6909,-2.6596,-2.5505,-2.469,-2.4565,-2.4395,-2.4189,-2.4189,-2.4189,-2.4189,-2.4189,-2.4189,-2.4189,-2.4189,-2.4189,-2.4189,-2.4189,-2.4116,-3.6774,-3.717,-3.7332,-3.7758,-3.842,-3.9201,-3.9552,-3.9657,-4.0254,-4.0489,-4.0489,-4.0489,-4.0489,-4.0489,-4.0377,-4.0233,-4.0041,-3.9851,-3.9731,-3.9789,-3.9728,-3.9573,-3.9435,-3.9353,-3.8879,-3.8658,-3.851,-3.8478,-3.8332,-3.8153,-3.8018,-3.7949,-3.7703,-3.7613,-3.7613,-3.7577,-3.7466,-3.7297,-3.7087,-3.6891,-3.655,-3.6385,-3.6326,-3.6216,-3.6088,-3.6019,-3.5949,-3.5701,-3.5719,-3.5921,-3.6059,-3.6462,-3.6359,-3.5899,-3.5665,-3.5792,-3.5367,-3.5334,-3.5126,-3.4892,-3.458,-3.3966,-3.3575,-3.3429,-3.3437,-3.3432,-3.3651,-3.3472,-3.3275,-3.2688,-3.2222,-3.1474,-3.0736,-3.0377,-3.0017,-2.9936,-2.9777,-2.9743,-2.9757,-2.9771,-2.9785,-3.001,-3.0375,-3.0367,-3.0299,-3.0014,-2.9927,-2.9565,-2.9059,-2.8874,-2.8703,-2.8511,-2.8318,-2.7966,-2.7608,-2.7321,-2.7256,-2.7376,-2.7162,-2.6178,-2.5415,-2.4997,-2.4756,-2.4315,-2.42,-2.4189,-2.4189,-2.4189,-2.4189,-2.4189,-2.4189,-2.4189,-2.4189,-2.4223,-2.4173]}]]